<?xml version='1.0' encoding='UTF-8'?><gpx version="1.1" creator="JPX - https://github.com/jenetics/jpx" xmlns="http://www.topografix.com/GPX/1/1"><trk><trkseg><trkpt lat="43.7518878" lon="11.3056611"><ele>62.5</ele><time>2026-04-05T09:53:00.801Z</time></trkpt><trkpt lat="43.7518673" lon="11.3057442"><ele>62.0</ele><time>2026-04-05T09:53:48.802Z</time></trkpt><trkpt lat="43.7518047" lon="11.3057723"><ele>61.5</ele><time>2026-04-05T09:54:53.8Z</time></trkpt><trkpt lat="43.7517155" lon="11.3057445"><ele>61.0</ele><time>2026-04-05T09:54:56.802Z</time></trkpt><trkpt lat="43.7516414" lon="11.3057258"><ele>60.5</ele><time>2026-04-05T09:54:58.801Z</time></trkpt><trkpt lat="43.7516159" lon="11.3056245"><ele>60.0</ele><time>2026-04-05T09:55:00.8Z</time></trkpt><trkpt lat="43.7516291" lon="11.3055017"><ele>60.0</ele><time>2026-04-05T09:55:02.801Z</time></trkpt><trkpt lat="43.7516418" lon="11.3053339"><ele>60.0</ele><time>2026-04-05T09:55:04.801Z</time></trkpt><trkpt lat="43.7516501" lon="11.3052397"><ele>60.0</ele><time>2026-04-05T09:55:05.801Z</time></trkpt><trkpt lat="43.7516708" lon="11.3050989"><ele>60.0</ele><time>2026-04-05T09:55:07.8Z</time></trkpt><trkpt lat="43.7517266" lon="11.3050172"><ele>60.0</ele><time>2026-04-05T09:55:09.8Z</time></trkpt><trkpt lat="43.7518524" lon="11.3050218"><ele>60.5</ele><time>2026-04-05T09:55:11.8Z</time></trkpt><trkpt lat="43.7519403" lon="11.305028"><ele>61.0</ele><time>2026-04-05T09:55:12.801Z</time></trkpt><trkpt lat="43.7520116" lon="11.3050415"><ele>61.5</ele><time>2026-04-05T09:55:13.801Z</time></trkpt><trkpt lat="43.7520823" lon="11.3050563"><ele>62.0</ele><time>2026-04-05T09:55:14.801Z</time></trkpt><trkpt lat="43.7521546" lon="11.3050617"><ele>62.5</ele><time>2026-04-05T09:55:15.801Z</time></trkpt><trkpt lat="43.7522645" lon="11.3050968"><ele>63.0</ele><time>2026-04-05T09:55:17.8Z</time></trkpt><trkpt lat="43.7523455" lon="11.3051042"><ele>63.0</ele><time>2026-04-05T09:55:19.801Z</time></trkpt><trkpt lat="43.7524375" lon="11.3051282"><ele>63.0</ele><time>2026-04-05T09:55:21.8Z</time></trkpt><trkpt lat="43.7525167" lon="11.3051436"><ele>63.0</ele><time>2026-04-05T09:55:22.8Z</time></trkpt><trkpt lat="43.7525953" lon="11.3051632"><ele>63.0</ele><time>2026-04-05T09:55:23.8Z</time></trkpt><trkpt lat="43.7526874" lon="11.3051803"><ele>63.0</ele><time>2026-04-05T09:55:24.8Z</time></trkpt><trkpt lat="43.7527732" lon="11.305193"><ele>63.0</ele><time>2026-04-05T09:55:25.801Z</time></trkpt><trkpt lat="43.7528992" lon="11.3052273"><ele>62.4</ele><time>2026-04-05T09:55:27.8Z</time></trkpt><trkpt lat="43.7529646" lon="11.3052437"><ele>61.8</ele><time>2026-04-05T09:55:28.8Z</time></trkpt><trkpt lat="43.7530756" lon="11.30525"><ele>61.2</ele><time>2026-04-05T09:55:29.802Z</time></trkpt><trkpt lat="43.7531716" lon="11.3052728"><ele>60.6</ele><time>2026-04-05T09:55:30.801Z</time></trkpt><trkpt lat="43.7532652" lon="11.3052993"><ele>60.0</ele><time>2026-04-05T09:55:31.802Z</time></trkpt><trkpt lat="43.7533445" lon="11.305322"><ele>60.0</ele><time>2026-04-05T09:55:32.799Z</time></trkpt><trkpt lat="43.7534227" lon="11.3053377"><ele>60.0</ele><time>2026-04-05T09:55:33.8Z</time></trkpt><trkpt lat="43.7534974" lon="11.3053556"><ele>60.0</ele><time>2026-04-05T09:55:34.8Z</time></trkpt><trkpt lat="43.7535652" lon="11.305374"><ele>60.0</ele><time>2026-04-05T09:55:35.8Z</time></trkpt><trkpt lat="43.7536407" lon="11.3053847"><ele>60.0</ele><time>2026-04-05T09:55:36.799Z</time></trkpt><trkpt lat="43.7537098" lon="11.3053992"><ele>60.0</ele><time>2026-04-05T09:55:37.8Z</time></trkpt><trkpt lat="43.753823" lon="11.3054314"><ele>60.0</ele><time>2026-04-05T09:55:39.8Z</time></trkpt><trkpt lat="43.7539194" lon="11.3054756"><ele>60.0</ele><time>2026-04-05T09:55:41.8Z</time></trkpt><trkpt lat="43.7539843" lon="11.305514"><ele>60.0</ele><time>2026-04-05T09:55:43.801Z</time></trkpt><trkpt lat="43.7540357" lon="11.3056377"><ele>60.0</ele><time>2026-04-05T09:55:53.801Z</time></trkpt><trkpt lat="43.754046" lon="11.3057444"><ele>60.0</ele><time>2026-04-05T09:55:54.8Z</time></trkpt><trkpt lat="43.7540568" lon="11.3058604"><ele>60.0</ele><time>2026-04-05T09:55:55.801Z</time></trkpt><trkpt lat="43.7540859" lon="11.3059676"><ele>59.833333333333336</ele><time>2026-04-05T09:55:56.801Z</time></trkpt><trkpt lat="43.7541236" lon="11.3060547"><ele>59.66666666666667</ele><time>2026-04-05T09:55:57.8Z</time></trkpt><trkpt lat="43.7541631" lon="11.3061326"><ele>59.5</ele><time>2026-04-05T09:55:58.802Z</time></trkpt><trkpt lat="43.7542076" lon="11.3062088"><ele>59.333333333333336</ele><time>2026-04-05T09:55:59.801Z</time></trkpt><trkpt lat="43.7542494" lon="11.3062791"><ele>59.16666666666667</ele><time>2026-04-05T09:56:00.801Z</time></trkpt><trkpt lat="43.7542862" lon="11.306352"><ele>59.0</ele><time>2026-04-05T09:56:01.799Z</time></trkpt><trkpt lat="43.7542968" lon="11.306514"><ele>59.00000000000001</ele><time>2026-04-05T09:56:03.799Z</time></trkpt><trkpt lat="43.7542858" lon="11.3066182"><ele>59.0</ele><time>2026-04-05T09:56:04.8Z</time></trkpt><trkpt lat="43.7542731" lon="11.3067214"><ele>59.0</ele><time>2026-04-05T09:56:05.801Z</time></trkpt><trkpt lat="43.7542697" lon="11.3068193"><ele>59.0</ele><time>2026-04-05T09:56:06.8Z</time></trkpt><trkpt lat="43.7542612" lon="11.3069274"><ele>59.00000000000001</ele><time>2026-04-05T09:56:07.8Z</time></trkpt><trkpt lat="43.7542497" lon="11.3070289"><ele>59.0</ele><time>2026-04-05T09:56:08.8Z</time></trkpt><trkpt lat="43.7542361" lon="11.3071514"><ele>59.16666666666667</ele><time>2026-04-05T09:56:09.799Z</time></trkpt><trkpt lat="43.75422" lon="11.3072667"><ele>59.333333333333336</ele><time>2026-04-05T09:56:10.8Z</time></trkpt><trkpt lat="43.7542003" lon="11.3073862"><ele>59.5</ele><time>2026-04-05T09:56:11.8Z</time></trkpt><trkpt lat="43.7541885" lon="11.3075048"><ele>59.66666666666667</ele><time>2026-04-05T09:56:12.799Z</time></trkpt><trkpt lat="43.75417" lon="11.3076311"><ele>59.833333333333336</ele><time>2026-04-05T09:56:13.8Z</time></trkpt><trkpt lat="43.7541516" lon="11.3077549"><ele>60.0</ele><time>2026-04-05T09:56:14.8Z</time></trkpt><trkpt lat="43.7541305" lon="11.3078832"><ele>60.0</ele><time>2026-04-05T09:56:15.8Z</time></trkpt><trkpt lat="43.7541143" lon="11.3080056"><ele>60.0</ele><time>2026-04-05T09:56:16.801Z</time></trkpt><trkpt lat="43.7540995" lon="11.3081255"><ele>60.0</ele><time>2026-04-05T09:56:17.801Z</time></trkpt><trkpt lat="43.7540796" lon="11.3082434"><ele>60.0</ele><time>2026-04-05T09:56:18.801Z</time></trkpt><trkpt lat="43.7540645" lon="11.3083567"><ele>60.0</ele><time>2026-04-05T09:56:19.801Z</time></trkpt><trkpt lat="43.7540466" lon="11.3084865"><ele>60.0</ele><time>2026-04-05T09:56:20.799Z</time></trkpt><trkpt lat="43.7540277" lon="11.3086148"><ele>60.166666666666664</ele><time>2026-04-05T09:56:21.8Z</time></trkpt><trkpt lat="43.754007" lon="11.3087335"><ele>60.33333333333333</ele><time>2026-04-05T09:56:22.8Z</time></trkpt><trkpt lat="43.7539895" lon="11.3088424"><ele>60.5</ele><time>2026-04-05T09:56:23.8Z</time></trkpt><trkpt lat="43.7539759" lon="11.3089311"><ele>60.666666666666664</ele><time>2026-04-05T09:56:24.801Z</time></trkpt><trkpt lat="43.7539592" lon="11.3090833"><ele>60.83333333333333</ele><time>2026-04-05T09:56:26.8Z</time></trkpt><trkpt lat="43.7539453" lon="11.3091971"><ele>61.0</ele><time>2026-04-05T09:56:28.801Z</time></trkpt><trkpt lat="43.7539711" lon="11.3092822"><ele>60.99999999999999</ele><time>2026-04-05T09:56:30.802Z</time></trkpt><trkpt lat="43.7540463" lon="11.3093121"><ele>61.0</ele><time>2026-04-05T09:56:32.8Z</time></trkpt><trkpt lat="43.7541384" lon="11.3093204"><ele>61.0</ele><time>2026-04-05T09:56:34.8Z</time></trkpt><trkpt lat="43.7542007" lon="11.3093482"><ele>61.0</ele><time>2026-04-05T09:56:35.801Z</time></trkpt><trkpt lat="43.7542692" lon="11.3093796"><ele>60.99999999999999</ele><time>2026-04-05T09:56:36.799Z</time></trkpt><trkpt lat="43.7543441" lon="11.3094071"><ele>61.0</ele><time>2026-04-05T09:56:37.801Z</time></trkpt><trkpt lat="43.7544158" lon="11.3094383"><ele>60.666666666666664</ele><time>2026-04-05T09:56:38.801Z</time></trkpt><trkpt lat="43.7544842" lon="11.3094641"><ele>60.33333333333333</ele><time>2026-04-05T09:56:39.8Z</time></trkpt><trkpt lat="43.7545834" lon="11.3094994"><ele>60.0</ele><time>2026-04-05T09:56:41.801Z</time></trkpt><trkpt lat="43.7546577" lon="11.3095278"><ele>59.66666666666667</ele><time>2026-04-05T09:56:43.8Z</time></trkpt><trkpt lat="43.7547447" lon="11.3095725"><ele>59.333333333333336</ele><time>2026-04-05T09:56:45.801Z</time></trkpt><trkpt lat="43.7548243" lon="11.3095841"><ele>59.0</ele><time>2026-04-05T09:56:47.801Z</time></trkpt><trkpt lat="43.7548917" lon="11.3095399"><ele>59.00000000000001</ele><time>2026-04-05T09:56:49.8Z</time></trkpt><trkpt lat="43.7549309" lon="11.3094352"><ele>59.0</ele><time>2026-04-05T09:56:51.799Z</time></trkpt><trkpt lat="43.7549402" lon="11.309345"><ele>59.0</ele><time>2026-04-05T09:56:52.799Z</time></trkpt><trkpt lat="43.7549494" lon="11.3092436"><ele>59.0</ele><time>2026-04-05T09:56:53.801Z</time></trkpt><trkpt lat="43.7549598" lon="11.3091139"><ele>59.00000000000001</ele><time>2026-04-05T09:56:54.801Z</time></trkpt><trkpt lat="43.7549626" lon="11.3089564"><ele>59.0</ele><time>2026-04-05T09:56:55.8Z</time></trkpt><trkpt lat="43.7549773" lon="11.308776"><ele>59.0</ele><time>2026-04-05T09:56:56.802Z</time></trkpt><trkpt lat="43.754997" lon="11.3085998"><ele>59.0</ele><time>2026-04-05T09:56:57.8Z</time></trkpt><trkpt lat="43.755012" lon="11.3084336"><ele>59.0</ele><time>2026-04-05T09:56:58.802Z</time></trkpt><trkpt lat="43.7550252" lon="11.3082875"><ele>59.0</ele><time>2026-04-05T09:56:59.801Z</time></trkpt><trkpt lat="43.7550384" lon="11.308151"><ele>59.0</ele><time>2026-04-05T09:57:00.799Z</time></trkpt><trkpt lat="43.7550558" lon="11.3079914"><ele>59.0</ele><time>2026-04-05T09:57:01.801Z</time></trkpt><trkpt lat="43.7550788" lon="11.3078133"><ele>59.0</ele><time>2026-04-05T09:57:02.8Z</time></trkpt><trkpt lat="43.7551083" lon="11.3076035"><ele>59.0</ele><time>2026-04-05T09:57:03.8Z</time></trkpt><trkpt lat="43.7551432" lon="11.3073902"><ele>58.800000000000004</ele><time>2026-04-05T09:57:04.8Z</time></trkpt><trkpt lat="43.7551722" lon="11.3071976"><ele>58.60000000000001</ele><time>2026-04-05T09:57:05.799Z</time></trkpt><trkpt lat="43.7552054" lon="11.3070464"><ele>58.4</ele><time>2026-04-05T09:57:06.801Z</time></trkpt><trkpt lat="43.7552257" lon="11.3069168"><ele>58.2</ele><time>2026-04-05T09:57:07.8Z</time></trkpt><trkpt lat="43.7552579" lon="11.3068151"><ele>58.0</ele><time>2026-04-05T09:57:08.8Z</time></trkpt><trkpt lat="43.7552989" lon="11.3067417"><ele>57.99999999999999</ele><time>2026-04-05T09:57:09.8Z</time></trkpt><trkpt lat="43.7553488" lon="11.3066745"><ele>58.0</ele><time>2026-04-05T09:57:10.801Z</time></trkpt><trkpt lat="43.755401" lon="11.3065828"><ele>58.0</ele><time>2026-04-05T09:57:11.801Z</time></trkpt><trkpt lat="43.7554314" lon="11.3064849"><ele>58.0</ele><time>2026-04-05T09:57:12.8Z</time></trkpt><trkpt lat="43.7554641" lon="11.3063744"><ele>57.99999999999999</ele><time>2026-04-05T09:57:13.801Z</time></trkpt><trkpt lat="43.7554961" lon="11.3062514"><ele>58.0</ele><time>2026-04-05T09:57:14.8Z</time></trkpt><trkpt lat="43.7555271" lon="11.3061155"><ele>58.0</ele><time>2026-04-05T09:57:15.801Z</time></trkpt><trkpt lat="43.7555586" lon="11.3059715"><ele>58.0</ele><time>2026-04-05T09:57:16.802Z</time></trkpt><trkpt lat="43.7555856" lon="11.3058372"><ele>58.0</ele><time>2026-04-05T09:57:17.801Z</time></trkpt><trkpt lat="43.7556188" lon="11.3056958"><ele>58.0</ele><time>2026-04-05T09:57:18.802Z</time></trkpt><trkpt lat="43.755646" lon="11.3055511"><ele>58.0</ele><time>2026-04-05T09:57:19.8Z</time></trkpt><trkpt lat="43.7556804" lon="11.3054043"><ele>57.8</ele><time>2026-04-05T09:57:20.799Z</time></trkpt><trkpt lat="43.755716" lon="11.3052565"><ele>57.599999999999994</ele><time>2026-04-05T09:57:21.8Z</time></trkpt><trkpt lat="43.7557465" lon="11.3051104"><ele>57.400000000000006</ele><time>2026-04-05T09:57:22.8Z</time></trkpt><trkpt lat="43.7557718" lon="11.3049758"><ele>57.2</ele><time>2026-04-05T09:57:23.8Z</time></trkpt><trkpt lat="43.7557988" lon="11.3048554"><ele>57.0</ele><time>2026-04-05T09:57:24.801Z</time></trkpt><trkpt lat="43.7558199" lon="11.3047594"><ele>57.166666666666664</ele><time>2026-04-05T09:57:25.8Z</time></trkpt><trkpt lat="43.7558498" lon="11.3046745"><ele>57.33333333333333</ele><time>2026-04-05T09:57:26.801Z</time></trkpt><trkpt lat="43.7558878" lon="11.3046015"><ele>57.5</ele><time>2026-04-05T09:57:27.801Z</time></trkpt><trkpt lat="43.7559331" lon="11.3045284"><ele>57.666666666666664</ele><time>2026-04-05T09:57:28.801Z</time></trkpt><trkpt lat="43.7559782" lon="11.3044558"><ele>57.83333333333333</ele><time>2026-04-05T09:57:29.8Z</time></trkpt><trkpt lat="43.7560233" lon="11.3043236"><ele>58.0</ele><time>2026-04-05T09:57:31.801Z</time></trkpt><trkpt lat="43.7560447" lon="11.3042204"><ele>57.99999999999999</ele><time>2026-04-05T09:57:33.8Z</time></trkpt><trkpt lat="43.7560298" lon="11.304104"><ele>58.0</ele><time>2026-04-05T10:03:04.799Z</time></trkpt><trkpt lat="43.7559895" lon="11.3040278"><ele>58.0</ele><time>2026-04-05T10:03:09.798Z</time></trkpt><trkpt lat="43.7559847" lon="11.3039199"><ele>58.0</ele><time>2026-04-05T10:03:11.8Z</time></trkpt><trkpt lat="43.7559996" lon="11.3038082"><ele>57.99999999999999</ele><time>2026-04-05T10:03:12.8Z</time></trkpt><trkpt lat="43.7560056" lon="11.303699"><ele>58.0</ele><time>2026-04-05T10:03:13.799Z</time></trkpt><trkpt lat="43.7560088" lon="11.3035773"><ele>58.0</ele><time>2026-04-05T10:03:14.799Z</time></trkpt><trkpt lat="43.7560275" lon="11.3034658"><ele>58.0</ele><time>2026-04-05T10:03:15.799Z</time></trkpt><trkpt lat="43.7560628" lon="11.3033702"><ele>58.0</ele><time>2026-04-05T10:03:16.801Z</time></trkpt><trkpt lat="43.7561224" lon="11.3032824"><ele>58.0</ele><time>2026-04-05T10:03:17.8Z</time></trkpt><trkpt lat="43.7561998" lon="11.3032049"><ele>58.0</ele><time>2026-04-05T10:03:18.801Z</time></trkpt><trkpt lat="43.7563058" lon="11.3031469"><ele>58.0</ele><time>2026-04-05T10:03:19.8Z</time></trkpt><trkpt lat="43.75642" lon="11.3031117"><ele>58.0</ele><time>2026-04-05T10:03:20.8Z</time></trkpt><trkpt lat="43.7565432" lon="11.3030962"><ele>58.0</ele><time>2026-04-05T10:03:21.8Z</time></trkpt><trkpt lat="43.7566637" lon="11.3030555"><ele>58.0</ele><time>2026-04-05T10:03:22.8Z</time></trkpt><trkpt lat="43.7567654" lon="11.3029871"><ele>58.0</ele><time>2026-04-05T10:03:23.799Z</time></trkpt><trkpt lat="43.7568525" lon="11.3028942"><ele>58.0</ele><time>2026-04-05T10:03:24.8Z</time></trkpt><trkpt lat="43.7569383" lon="11.3028154"><ele>58.0</ele><time>2026-04-05T10:03:25.8Z</time></trkpt><trkpt lat="43.7570357" lon="11.3027621"><ele>58.0</ele><time>2026-04-05T10:03:26.8Z</time></trkpt><trkpt lat="43.7571408" lon="11.3027435"><ele>58.0</ele><time>2026-04-05T10:03:27.801Z</time></trkpt><trkpt lat="43.7572396" lon="11.3027553"><ele>58.25</ele><time>2026-04-05T10:03:28.799Z</time></trkpt><trkpt lat="43.7573422" lon="11.3028147"><ele>58.5</ele><time>2026-04-05T10:03:29.8Z</time></trkpt><trkpt lat="43.7574654" lon="11.3028744"><ele>58.75</ele><time>2026-04-05T10:03:30.8Z</time></trkpt><trkpt lat="43.7575942" lon="11.3029342"><ele>59.0</ele><time>2026-04-05T10:03:31.801Z</time></trkpt><trkpt lat="43.7577331" lon="11.3030158"><ele>58.333333333333336</ele><time>2026-04-05T10:03:32.799Z</time></trkpt><trkpt lat="43.7578813" lon="11.303097"><ele>57.66666666666667</ele><time>2026-04-05T10:03:33.799Z</time></trkpt><trkpt lat="43.7580358" lon="11.3031899"><ele>57.0</ele><time>2026-04-05T10:03:34.8Z</time></trkpt><trkpt lat="43.7582036" lon="11.3032867"><ele>57.0</ele><time>2026-04-05T10:03:35.8Z</time></trkpt><trkpt lat="43.7583797" lon="11.3033818"><ele>57.0</ele><time>2026-04-05T10:03:36.801Z</time></trkpt><trkpt lat="43.7585667" lon="11.3034905"><ele>57.0</ele><time>2026-04-05T10:03:37.798Z</time></trkpt><trkpt lat="43.7587509" lon="11.3035836"><ele>56.0</ele><time>2026-04-05T10:03:38.799Z</time></trkpt><trkpt lat="43.758927" lon="11.3036538"><ele>55.0</ele><time>2026-04-05T10:03:39.8Z</time></trkpt><trkpt lat="43.7591069" lon="11.3037044"><ele>54.0</ele><time>2026-04-05T10:03:40.8Z</time></trkpt><trkpt lat="43.759283" lon="11.3037445"><ele>54.66666666666667</ele><time>2026-04-05T10:03:41.798Z</time></trkpt><trkpt lat="43.759457" lon="11.3037666"><ele>55.333333333333336</ele><time>2026-04-05T10:03:42.799Z</time></trkpt><trkpt lat="43.7596224" lon="11.3037771"><ele>56.0</ele><time>2026-04-05T10:03:43.799Z</time></trkpt><trkpt lat="43.7597856" lon="11.3037777"><ele>56.0</ele><time>2026-04-05T10:03:44.8Z</time></trkpt><trkpt lat="43.7599519" lon="11.3037695"><ele>56.0</ele><time>2026-04-05T10:03:45.799Z</time></trkpt><trkpt lat="43.7601247" lon="11.3037594"><ele>56.0</ele><time>2026-04-05T10:03:46.8Z</time></trkpt><trkpt lat="43.7602971" lon="11.303746"><ele>56.0</ele><time>2026-04-05T10:03:47.8Z</time></trkpt><trkpt lat="43.7604724" lon="11.3037305"><ele>56.0</ele><time>2026-04-05T10:03:48.799Z</time></trkpt><trkpt lat="43.7606446" lon="11.3037184"><ele>56.0</ele><time>2026-04-05T10:03:49.799Z</time></trkpt><trkpt lat="43.7608097" lon="11.3037044"><ele>56.0</ele><time>2026-04-05T10:03:50.801Z</time></trkpt><trkpt lat="43.7609705" lon="11.3036883"><ele>56.0</ele><time>2026-04-05T10:03:51.799Z</time></trkpt><trkpt lat="43.7611209" lon="11.3036773"><ele>56.0</ele><time>2026-04-05T10:03:52.799Z</time></trkpt><trkpt lat="43.7612641" lon="11.3036654"><ele>56.75</ele><time>2026-04-05T10:03:53.8Z</time></trkpt><trkpt lat="43.7613981" lon="11.3036514"><ele>57.5</ele><time>2026-04-05T10:03:54.801Z</time></trkpt><trkpt lat="43.7615225" lon="11.3036392"><ele>58.25</ele><time>2026-04-05T10:03:55.8Z</time></trkpt><trkpt lat="43.761661" lon="11.3036256"><ele>59.0</ele><time>2026-04-05T10:03:56.801Z</time></trkpt><trkpt lat="43.7617925" lon="11.3036199"><ele>57.5</ele><time>2026-04-05T10:03:57.8Z</time></trkpt><trkpt lat="43.7619229" lon="11.3036154"><ele>56.0</ele><time>2026-04-05T10:03:58.798Z</time></trkpt><trkpt lat="43.7620621" lon="11.303617"><ele>54.5</ele><time>2026-04-05T10:03:59.8Z</time></trkpt><trkpt lat="43.7622121" lon="11.3036192"><ele>53.0</ele><time>2026-04-05T10:04:00.799Z</time></trkpt><trkpt lat="43.7623938" lon="11.3036301"><ele>53.0</ele><time>2026-04-05T10:04:01.8Z</time></trkpt><trkpt lat="43.7625782" lon="11.3036624"><ele>53.0</ele><time>2026-04-05T10:04:02.8Z</time></trkpt><trkpt lat="43.7627609" lon="11.3037114"><ele>53.0</ele><time>2026-04-05T10:04:03.8Z</time></trkpt><trkpt lat="43.7629433" lon="11.3037606"><ele>51.333333333333336</ele><time>2026-04-05T10:04:04.799Z</time></trkpt><trkpt lat="43.7631175" lon="11.3038059"><ele>49.66666666666667</ele><time>2026-04-05T10:04:05.798Z</time></trkpt><trkpt lat="43.763284" lon="11.303853"><ele>48.0</ele><time>2026-04-05T10:04:06.8Z</time></trkpt><trkpt lat="43.7634577" lon="11.3039009"><ele>47.333333333333336</ele><time>2026-04-05T10:04:07.8Z</time></trkpt><trkpt lat="43.7636333" lon="11.3039497"><ele>46.66666666666667</ele><time>2026-04-05T10:04:08.801Z</time></trkpt><trkpt lat="43.7637999" lon="11.3040001"><ele>46.0</ele><time>2026-04-05T10:04:09.799Z</time></trkpt><trkpt lat="43.7639624" lon="11.3040416"><ele>46.0</ele><time>2026-04-05T10:04:10.799Z</time></trkpt><trkpt lat="43.764116" lon="11.3040811"><ele>46.0</ele><time>2026-04-05T10:04:11.8Z</time></trkpt><trkpt lat="43.7642521" lon="11.3041157"><ele>46.0</ele><time>2026-04-05T10:04:12.798Z</time></trkpt><trkpt lat="43.7643856" lon="11.3041497"><ele>46.0</ele><time>2026-04-05T10:04:13.8Z</time></trkpt><trkpt lat="43.7645037" lon="11.3041983"><ele>48.0</ele><time>2026-04-05T10:04:14.799Z</time></trkpt><trkpt lat="43.7646158" lon="11.3042699"><ele>50.0</ele><time>2026-04-05T10:04:15.799Z</time></trkpt><trkpt lat="43.7647078" lon="11.3043543"><ele>51.99999999999999</ele><time>2026-04-05T10:04:16.799Z</time></trkpt><trkpt lat="43.7647711" lon="11.3044472"><ele>54.0</ele><time>2026-04-05T10:04:17.798Z</time></trkpt><trkpt lat="43.7648226" lon="11.304535"><ele>56.0</ele><time>2026-04-05T10:04:18.8Z</time></trkpt><trkpt lat="43.7648814" lon="11.304658"><ele>56.00000000000001</ele><time>2026-04-05T10:04:20.801Z</time></trkpt><trkpt lat="43.7649207" lon="11.3047392"><ele>56.0</ele><time>2026-04-05T10:04:28.8Z</time></trkpt><trkpt lat="43.7649537" lon="11.3048336"><ele>56.0</ele><time>2026-04-05T10:04:40.8Z</time></trkpt><trkpt lat="43.7649979" lon="11.3049283"><ele>56.0</ele><time>2026-04-05T10:04:43.798Z</time></trkpt><trkpt lat="43.7650319" lon="11.3050056"><ele>56.00000000000001</ele><time>2026-04-05T10:04:45.8Z</time></trkpt><trkpt lat="43.7650846" lon="11.3051259"><ele>56.0</ele><time>2026-04-05T10:04:47.799Z</time></trkpt><trkpt lat="43.7651717" lon="11.3052865"><ele>56.50000000000001</ele><time>2026-04-05T10:04:49.799Z</time></trkpt><trkpt lat="43.7652216" lon="11.3053738"><ele>57.0</ele><time>2026-04-05T10:04:50.8Z</time></trkpt><trkpt lat="43.7652705" lon="11.305444"><ele>57.5</ele><time>2026-04-05T10:04:51.801Z</time></trkpt><trkpt lat="43.7653188" lon="11.3055094"><ele>58.0</ele><time>2026-04-05T10:04:52.8Z</time></trkpt><trkpt lat="43.7654283" lon="11.3055288"><ele>58.50000000000001</ele><time>2026-04-05T10:04:54.799Z</time></trkpt><trkpt lat="43.7655064" lon="11.3054337"><ele>59.0</ele><time>2026-04-05T10:04:56.798Z</time></trkpt><trkpt lat="43.7655347" lon="11.305267"><ele>59.0</ele><time>2026-04-05T10:04:58.799Z</time></trkpt><trkpt lat="43.7655421" lon="11.3051655"><ele>59.00000000000001</ele><time>2026-04-05T10:04:59.8Z</time></trkpt><trkpt lat="43.7655477" lon="11.3050528"><ele>59.00000000000001</ele><time>2026-04-05T10:05:00.801Z</time></trkpt><trkpt lat="43.7655565" lon="11.304927"><ele>59.0</ele><time>2026-04-05T10:05:01.799Z</time></trkpt><trkpt lat="43.7655701" lon="11.304775"><ele>59.0</ele><time>2026-04-05T10:05:02.798Z</time></trkpt><trkpt lat="43.7655866" lon="11.304595"><ele>58.75</ele><time>2026-04-05T10:05:03.799Z</time></trkpt><trkpt lat="43.7656058" lon="11.3044016"><ele>58.5</ele><time>2026-04-05T10:05:04.8Z</time></trkpt><trkpt lat="43.7656314" lon="11.3041894"><ele>58.25</ele><time>2026-04-05T10:05:05.8Z</time></trkpt><trkpt lat="43.7656515" lon="11.3039968"><ele>58.0</ele><time>2026-04-05T10:05:06.801Z</time></trkpt><trkpt lat="43.7656718" lon="11.3038239"><ele>57.75</ele><time>2026-04-05T10:05:07.8Z</time></trkpt><trkpt lat="43.7656958" lon="11.3036538"><ele>57.5</ele><time>2026-04-05T10:05:08.799Z</time></trkpt><trkpt lat="43.7657208" lon="11.303483"><ele>57.25</ele><time>2026-04-05T10:05:09.8Z</time></trkpt><trkpt lat="43.7657414" lon="11.3033149"><ele>57.0</ele><time>2026-04-05T10:05:10.8Z</time></trkpt><trkpt lat="43.7657576" lon="11.3031611"><ele>56.8</ele><time>2026-04-05T10:05:11.799Z</time></trkpt><trkpt lat="43.7657756" lon="11.3030162"><ele>56.6</ele><time>2026-04-05T10:05:12.8Z</time></trkpt><trkpt lat="43.7657909" lon="11.3028761"><ele>56.39999999999999</ele><time>2026-04-05T10:05:13.799Z</time></trkpt><trkpt lat="43.7658088" lon="11.30274"><ele>56.199999999999996</ele><time>2026-04-05T10:05:14.801Z</time></trkpt><trkpt lat="43.7658339" lon="11.3025949"><ele>56.0</ele><time>2026-04-05T10:05:15.799Z</time></trkpt><trkpt lat="43.7658524" lon="11.3024467"><ele>56.00000000000001</ele><time>2026-04-05T10:05:16.8Z</time></trkpt><trkpt lat="43.7658708" lon="11.3023167"><ele>56.0</ele><time>2026-04-05T10:05:17.801Z</time></trkpt><trkpt lat="43.7658922" lon="11.3021894"><ele>56.0</ele><time>2026-04-05T10:05:18.801Z</time></trkpt><trkpt lat="43.7659108" lon="11.3020821"><ele>56.0</ele><time>2026-04-05T10:05:19.799Z</time></trkpt><trkpt lat="43.7659161" lon="11.301989"><ele>56.00000000000001</ele><time>2026-04-05T10:05:20.799Z</time></trkpt><trkpt lat="43.7659213" lon="11.3018957"><ele>56.0</ele><time>2026-04-05T10:05:21.8Z</time></trkpt><trkpt lat="43.7659293" lon="11.3018088"><ele>55.8</ele><time>2026-04-05T10:05:22.798Z</time></trkpt><trkpt lat="43.7659512" lon="11.3016451"><ele>55.599999999999994</ele><time>2026-04-05T10:05:24.801Z</time></trkpt><trkpt lat="43.7659816" lon="11.3014882"><ele>55.4</ele><time>2026-04-05T10:05:26.799Z</time></trkpt><trkpt lat="43.7659979" lon="11.3013523"><ele>55.2</ele><time>2026-04-05T10:05:28.8Z</time></trkpt><trkpt lat="43.7660211" lon="11.3012068"><ele>55.0</ele><time>2026-04-05T10:05:30.799Z</time></trkpt><trkpt lat="43.7660499" lon="11.3010297"><ele>55.0</ele><time>2026-04-05T10:05:32.8Z</time></trkpt><trkpt lat="43.7660658" lon="11.3009307"><ele>55.0</ele><time>2026-04-05T10:05:33.799Z</time></trkpt><trkpt lat="43.7660881" lon="11.3008157"><ele>55.0</ele><time>2026-04-05T10:05:34.799Z</time></trkpt><trkpt lat="43.7661071" lon="11.3006883"><ele>55.0</ele><time>2026-04-05T10:05:35.798Z</time></trkpt><trkpt lat="43.7661239" lon="11.3005573"><ele>55.0</ele><time>2026-04-05T10:05:36.801Z</time></trkpt><trkpt lat="43.7661495" lon="11.3004133"><ele>54.5</ele><time>2026-04-05T10:05:37.8Z</time></trkpt><trkpt lat="43.7661766" lon="11.3002578"><ele>54.0</ele><time>2026-04-05T10:05:38.798Z</time></trkpt><trkpt lat="43.7662033" lon="11.3000857"><ele>53.5</ele><time>2026-04-05T10:05:39.799Z</time></trkpt><trkpt lat="43.7662315" lon="11.2999002"><ele>53.0</ele><time>2026-04-05T10:05:40.799Z</time></trkpt><trkpt lat="43.7662531" lon="11.2997215"><ele>53.0</ele><time>2026-04-05T10:05:41.799Z</time></trkpt><trkpt lat="43.7662806" lon="11.2995437"><ele>53.0</ele><time>2026-04-05T10:05:42.799Z</time></trkpt><trkpt lat="43.7663122" lon="11.2993624"><ele>53.0</ele><time>2026-04-05T10:05:43.799Z</time></trkpt><trkpt lat="43.766346" lon="11.2991688"><ele>53.0</ele><time>2026-04-05T10:05:44.8Z</time></trkpt><trkpt lat="43.7663872" lon="11.298959"><ele>53.0</ele><time>2026-04-05T10:05:45.799Z</time></trkpt><trkpt lat="43.766434" lon="11.2987399"><ele>53.0</ele><time>2026-04-05T10:05:46.799Z</time></trkpt><trkpt lat="43.7664823" lon="11.298513"><ele>53.0</ele><time>2026-04-05T10:05:47.799Z</time></trkpt><trkpt lat="43.7665285" lon="11.2983005"><ele>53.0</ele><time>2026-04-05T10:05:48.799Z</time></trkpt><trkpt lat="43.766549" lon="11.2981157"><ele>53.0</ele><time>2026-04-05T10:05:49.801Z</time></trkpt><trkpt lat="43.7665776" lon="11.2979525"><ele>53.0</ele><time>2026-04-05T10:05:50.799Z</time></trkpt><trkpt lat="43.7666078" lon="11.2977947"><ele>53.0</ele><time>2026-04-05T10:05:51.8Z</time></trkpt><trkpt lat="43.7666356" lon="11.2976452"><ele>53.0</ele><time>2026-04-05T10:05:52.8Z</time></trkpt><trkpt lat="43.7666648" lon="11.2974896"><ele>53.0</ele><time>2026-04-05T10:05:53.8Z</time></trkpt><trkpt lat="43.7666912" lon="11.2973634"><ele>53.0</ele><time>2026-04-05T10:05:54.799Z</time></trkpt><trkpt lat="43.7667141" lon="11.2972462"><ele>53.0</ele><time>2026-04-05T10:05:55.799Z</time></trkpt><trkpt lat="43.7667367" lon="11.2971459"><ele>53.0</ele><time>2026-04-05T10:05:56.8Z</time></trkpt><trkpt lat="43.7667739" lon="11.2970055"><ele>53.00000000000001</ele><time>2026-04-05T10:05:58.799Z</time></trkpt><trkpt lat="43.7668118" lon="11.296926"><ele>53.0</ele><time>2026-04-05T10:06:00.8Z</time></trkpt><trkpt lat="43.7668798" lon="11.2968712"><ele>53.0</ele><time>2026-04-05T10:06:02.798Z</time></trkpt><trkpt lat="43.7670035" lon="11.2968852"><ele>53.0</ele><time>2026-04-05T10:06:04.801Z</time></trkpt><trkpt lat="43.7670735" lon="11.2969193"><ele>53.00000000000001</ele><time>2026-04-05T10:06:05.8Z</time></trkpt><trkpt lat="43.767139" lon="11.2969572"><ele>53.0</ele><time>2026-04-05T10:06:06.799Z</time></trkpt><trkpt lat="43.7672183" lon="11.2969972"><ele>52.8</ele><time>2026-04-05T10:06:07.799Z</time></trkpt><trkpt lat="43.767301" lon="11.2970377"><ele>52.599999999999994</ele><time>2026-04-05T10:06:08.8Z</time></trkpt><trkpt lat="43.7673883" lon="11.2970826"><ele>52.400000000000006</ele><time>2026-04-05T10:06:09.799Z</time></trkpt><trkpt lat="43.7674741" lon="11.2971261"><ele>52.2</ele><time>2026-04-05T10:06:10.799Z</time></trkpt><trkpt lat="43.7675593" lon="11.2971666"><ele>52.0</ele><time>2026-04-05T10:06:11.801Z</time></trkpt><trkpt lat="43.76765" lon="11.297203"><ele>52.2</ele><time>2026-04-05T10:06:12.799Z</time></trkpt><trkpt lat="43.7677252" lon="11.2972346"><ele>52.400000000000006</ele><time>2026-04-05T10:06:13.799Z</time></trkpt><trkpt lat="43.767834" lon="11.2972622"><ele>52.599999999999994</ele><time>2026-04-05T10:06:15.8Z</time></trkpt><trkpt lat="43.7678995" lon="11.297262"><ele>52.8</ele><time>2026-04-05T10:06:18.799Z</time></trkpt><trkpt lat="43.7680252" lon="11.2972445"><ele>53.0</ele><time>2026-04-05T10:06:21.799Z</time></trkpt><trkpt lat="43.7680974" lon="11.2972247"><ele>53.0</ele><time>2026-04-05T10:06:22.798Z</time></trkpt><trkpt lat="43.76819" lon="11.2972065"><ele>53.0</ele><time>2026-04-05T10:06:23.8Z</time></trkpt><trkpt lat="43.7682976" lon="11.2972225"><ele>53.0</ele><time>2026-04-05T10:06:24.8Z</time></trkpt><trkpt lat="43.7684123" lon="11.2972414"><ele>53.0</ele><time>2026-04-05T10:06:25.799Z</time></trkpt><trkpt lat="43.768492" lon="11.2972519"><ele>53.0</ele><time>2026-04-05T10:06:26.799Z</time></trkpt><trkpt lat="43.7685577" lon="11.2972579"><ele>53.00000000000001</ele><time>2026-04-05T10:06:27.8Z</time></trkpt><trkpt lat="43.7686304" lon="11.2972628"><ele>53.0</ele><time>2026-04-05T10:06:28.801Z</time></trkpt><trkpt lat="43.7687009" lon="11.2972529"><ele>53.0</ele><time>2026-04-05T10:06:29.798Z</time></trkpt><trkpt lat="43.7687669" lon="11.2972474"><ele>53.0</ele><time>2026-04-05T10:06:30.8Z</time></trkpt><trkpt lat="43.7688332" lon="11.2972416"><ele>53.00000000000001</ele><time>2026-04-05T10:06:31.8Z</time></trkpt><trkpt lat="43.7689985" lon="11.2972142"><ele>53.0</ele><time>2026-04-05T10:06:33.801Z</time></trkpt><trkpt lat="43.7691114" lon="11.2972227"><ele>52.8</ele><time>2026-04-05T10:06:34.799Z</time></trkpt><trkpt lat="43.7691903" lon="11.2972136"><ele>52.599999999999994</ele><time>2026-04-05T10:06:35.8Z</time></trkpt><trkpt lat="43.7692817" lon="11.2972126"><ele>52.400000000000006</ele><time>2026-04-05T10:06:36.8Z</time></trkpt><trkpt lat="43.7693776" lon="11.2972011"><ele>52.2</ele><time>2026-04-05T10:06:37.8Z</time></trkpt><trkpt lat="43.7694836" lon="11.2972026"><ele>52.0</ele><time>2026-04-05T10:06:38.8Z</time></trkpt><trkpt lat="43.7695682" lon="11.2971989"><ele>51.99999999999999</ele><time>2026-04-05T10:06:39.799Z</time></trkpt><trkpt lat="43.7696566" lon="11.2971997"><ele>52.0</ele><time>2026-04-05T10:06:40.8Z</time></trkpt><trkpt lat="43.769742" lon="11.2972074"><ele>52.0</ele><time>2026-04-05T10:06:41.799Z</time></trkpt><trkpt lat="43.7698146" lon="11.2972175"><ele>52.0</ele><time>2026-04-05T10:06:42.8Z</time></trkpt><trkpt lat="43.7698853" lon="11.2972363"><ele>51.99999999999999</ele><time>2026-04-05T10:06:43.799Z</time></trkpt><trkpt lat="43.7699534" lon="11.2972595"><ele>52.0</ele><time>2026-04-05T10:06:44.799Z</time></trkpt><trkpt lat="43.7700422" lon="11.2973324"><ele>52.0</ele><time>2026-04-05T10:06:46.8Z</time></trkpt><trkpt lat="43.7700977" lon="11.2973917"><ele>52.0</ele><time>2026-04-05T10:06:49.799Z</time></trkpt><trkpt lat="43.7701846" lon="11.2974863"><ele>52.0</ele><time>2026-04-05T10:06:55.799Z</time></trkpt><trkpt lat="43.7702713" lon="11.2975246"><ele>52.0</ele><time>2026-04-05T10:06:56.799Z</time></trkpt><trkpt lat="43.7703629" lon="11.2975616"><ele>52.0</ele><time>2026-04-05T10:06:57.799Z</time></trkpt><trkpt lat="43.7704617" lon="11.297641"><ele>52.25</ele><time>2026-04-05T10:06:58.8Z</time></trkpt><trkpt lat="43.7705555" lon="11.2977562"><ele>52.5</ele><time>2026-04-05T10:06:59.8Z</time></trkpt><trkpt lat="43.7706389" lon="11.297898"><ele>52.75</ele><time>2026-04-05T10:07:00.798Z</time></trkpt><trkpt lat="43.7707043" lon="11.2980399"><ele>53.0</ele><time>2026-04-05T10:07:01.8Z</time></trkpt><trkpt lat="43.7707632" lon="11.2981799"><ele>53.333333333333336</ele><time>2026-04-05T10:07:02.799Z</time></trkpt><trkpt lat="43.7708203" lon="11.298286"><ele>53.66666666666667</ele><time>2026-04-05T10:07:03.8Z</time></trkpt><trkpt lat="43.7708561" lon="11.2983978"><ele>54.0</ele><time>2026-04-05T10:07:04.8Z</time></trkpt><trkpt lat="43.7709284" lon="11.2984445"><ele>54.33333333333333</ele><time>2026-04-05T10:07:05.799Z</time></trkpt><trkpt lat="43.7709979" lon="11.2984746"><ele>54.666666666666664</ele><time>2026-04-05T10:07:06.799Z</time></trkpt><trkpt lat="43.7710657" lon="11.2984988"><ele>55.0</ele><time>2026-04-05T10:07:07.8Z</time></trkpt><trkpt lat="43.7711373" lon="11.2985205"><ele>54.99999999999999</ele><time>2026-04-05T10:07:08.8Z</time></trkpt><trkpt lat="43.7712066" lon="11.2985411"><ele>55.0</ele><time>2026-04-05T10:07:09.799Z</time></trkpt><trkpt lat="43.7712799" lon="11.2985623"><ele>55.0</ele><time>2026-04-05T10:07:10.799Z</time></trkpt><trkpt lat="43.7713561" lon="11.2985857"><ele>55.0</ele><time>2026-04-05T10:07:11.8Z</time></trkpt><trkpt lat="43.7714385" lon="11.2986102"><ele>54.99999999999999</ele><time>2026-04-05T10:07:12.799Z</time></trkpt><trkpt lat="43.7715234" lon="11.2986451"><ele>55.0</ele><time>2026-04-05T10:07:13.799Z</time></trkpt><trkpt lat="43.7716097" lon="11.2986782"><ele>54.99999999999999</ele><time>2026-04-05T10:07:14.799Z</time></trkpt><trkpt lat="43.7716875" lon="11.2987111"><ele>55.0</ele><time>2026-04-05T10:07:15.799Z</time></trkpt><trkpt lat="43.7717574" lon="11.2987469"><ele>55.0</ele><time>2026-04-05T10:07:16.799Z</time></trkpt><trkpt lat="43.7718274" lon="11.2987728"><ele>55.0</ele><time>2026-04-05T10:07:17.799Z</time></trkpt><trkpt lat="43.7718949" lon="11.2988078"><ele>55.0</ele><time>2026-04-05T10:07:18.799Z</time></trkpt><trkpt lat="43.7719616" lon="11.2988435"><ele>54.99999999999999</ele><time>2026-04-05T10:07:19.799Z</time></trkpt><trkpt lat="43.7720325" lon="11.2988782"><ele>55.0</ele><time>2026-04-05T10:07:20.799Z</time></trkpt><trkpt lat="43.7721016" lon="11.2989055"><ele>55.49999999999999</ele><time>2026-04-05T10:07:21.799Z</time></trkpt><trkpt lat="43.7721712" lon="11.2989366"><ele>56.0</ele><time>2026-04-05T10:07:22.8Z</time></trkpt><trkpt lat="43.7722374" lon="11.2989714"><ele>56.5</ele><time>2026-04-05T10:07:23.799Z</time></trkpt><trkpt lat="43.7723474" lon="11.2990201"><ele>57.0</ele><time>2026-04-05T10:07:25.799Z</time></trkpt><trkpt lat="43.7724174" lon="11.2990557"><ele>57.49999999999999</ele><time>2026-04-05T10:07:26.799Z</time></trkpt><trkpt lat="43.7724863" lon="11.2990947"><ele>58.0</ele><time>2026-04-05T10:07:27.799Z</time></trkpt><trkpt lat="43.7725672" lon="11.2991321"><ele>57.99999999999999</ele><time>2026-04-05T10:07:28.799Z</time></trkpt><trkpt lat="43.7726477" lon="11.2991675"><ele>58.0</ele><time>2026-04-05T10:07:29.799Z</time></trkpt><trkpt lat="43.7727335" lon="11.2992065"><ele>58.0</ele><time>2026-04-05T10:07:30.799Z</time></trkpt><trkpt lat="43.7728209" lon="11.299254"><ele>58.0</ele><time>2026-04-05T10:07:31.799Z</time></trkpt><trkpt lat="43.7729018" lon="11.2993109"><ele>57.99999999999999</ele><time>2026-04-05T10:07:32.799Z</time></trkpt><trkpt lat="43.7729753" lon="11.2993698"><ele>58.0</ele><time>2026-04-05T10:07:33.799Z</time></trkpt><trkpt lat="43.7730388" lon="11.2994281"><ele>57.99999999999999</ele><time>2026-04-05T10:07:34.798Z</time></trkpt><trkpt lat="43.7731013" lon="11.2994775"><ele>58.0</ele><time>2026-04-05T10:07:35.8Z</time></trkpt><trkpt lat="43.7731629" lon="11.2995318"><ele>58.0</ele><time>2026-04-05T10:07:36.799Z</time></trkpt><trkpt lat="43.773258" lon="11.2996294"><ele>58.0</ele><time>2026-04-05T10:07:38.799Z</time></trkpt><trkpt lat="43.7733147" lon="11.2996815"><ele>57.99999999999999</ele><time>2026-04-05T10:07:39.799Z</time></trkpt><trkpt lat="43.7733749" lon="11.2997313"><ele>58.0</ele><time>2026-04-05T10:07:40.799Z</time></trkpt><trkpt lat="43.7734377" lon="11.2997828"><ele>57.99999999999999</ele><time>2026-04-05T10:07:41.8Z</time></trkpt><trkpt lat="43.7734966" lon="11.2998347"><ele>58.0</ele><time>2026-04-05T10:07:42.8Z</time></trkpt><trkpt lat="43.7735565" lon="11.2998865"><ele>58.0</ele><time>2026-04-05T10:07:43.799Z</time></trkpt><trkpt lat="43.7736256" lon="11.2999362"><ele>58.0</ele><time>2026-04-05T10:07:44.799Z</time></trkpt><trkpt lat="43.7736998" lon="11.2999901"><ele>57.99999999999999</ele><time>2026-04-05T10:07:45.799Z</time></trkpt><trkpt lat="43.7737643" lon="11.3000455"><ele>58.0</ele><time>2026-04-05T10:07:46.8Z</time></trkpt><trkpt lat="43.7738321" lon="11.3000961"><ele>58.28571428571429</ele><time>2026-04-05T10:07:47.799Z</time></trkpt><trkpt lat="43.7739019" lon="11.3001451"><ele>58.57142857142857</ele><time>2026-04-05T10:07:48.799Z</time></trkpt><trkpt lat="43.7739612" lon="11.30019"><ele>58.85714285714286</ele><time>2026-04-05T10:07:49.799Z</time></trkpt><trkpt lat="43.7740272" lon="11.3002325"><ele>59.142857142857146</ele><time>2026-04-05T10:07:50.798Z</time></trkpt><trkpt lat="43.7740967" lon="11.3002748"><ele>59.42857142857143</ele><time>2026-04-05T10:07:51.8Z</time></trkpt><trkpt lat="43.7741669" lon="11.3003169"><ele>59.714285714285715</ele><time>2026-04-05T10:07:52.8Z</time></trkpt><trkpt lat="43.7742393" lon="11.3003575"><ele>60.0</ele><time>2026-04-05T10:07:53.799Z</time></trkpt><trkpt lat="43.7743097" lon="11.3004007"><ele>60.2</ele><time>2026-04-05T10:07:54.8Z</time></trkpt><trkpt lat="43.7743845" lon="11.3004479"><ele>60.4</ele><time>2026-04-05T10:07:55.799Z</time></trkpt><trkpt lat="43.7744578" lon="11.3004949"><ele>60.599999999999994</ele><time>2026-04-05T10:07:56.799Z</time></trkpt><trkpt lat="43.7745496" lon="11.3005576"><ele>60.8</ele><time>2026-04-05T10:07:57.799Z</time></trkpt><trkpt lat="43.7746431" lon="11.3006257"><ele>61.0</ele><time>2026-04-05T10:07:58.799Z</time></trkpt><trkpt lat="43.7747432" lon="11.300711"><ele>60.5</ele><time>2026-04-05T10:07:59.799Z</time></trkpt><trkpt lat="43.7748519" lon="11.3008043"><ele>60.0</ele><time>2026-04-05T10:08:00.799Z</time></trkpt><trkpt lat="43.7749676" lon="11.3009008"><ele>59.5</ele><time>2026-04-05T10:08:01.8Z</time></trkpt><trkpt lat="43.7750748" lon="11.3009959"><ele>59.0</ele><time>2026-04-05T10:08:02.798Z</time></trkpt><trkpt lat="43.7751705" lon="11.3010764"><ele>59.400000000000006</ele><time>2026-04-05T10:08:03.799Z</time></trkpt><trkpt lat="43.7752532" lon="11.3011432"><ele>59.800000000000004</ele><time>2026-04-05T10:08:04.8Z</time></trkpt><trkpt lat="43.7753291" lon="11.3012078"><ele>60.199999999999996</ele><time>2026-04-05T10:08:05.8Z</time></trkpt><trkpt lat="43.7754122" lon="11.3012814"><ele>60.599999999999994</ele><time>2026-04-05T10:08:06.799Z</time></trkpt><trkpt lat="43.7755296" lon="11.301345"><ele>61.0</ele><time>2026-04-05T10:08:07.799Z</time></trkpt><trkpt lat="43.7756506" lon="11.301423"><ele>61.0</ele><time>2026-04-05T10:08:08.799Z</time></trkpt><trkpt lat="43.7757754" lon="11.3015099"><ele>61.0</ele><time>2026-04-05T10:08:09.799Z</time></trkpt><trkpt lat="43.7759082" lon="11.3015973"><ele>61.0</ele><time>2026-04-05T10:08:10.799Z</time></trkpt><trkpt lat="43.7760388" lon="11.3016966"><ele>61.0</ele><time>2026-04-05T10:08:11.8Z</time></trkpt><trkpt lat="43.7761576" lon="11.3017786"><ele>61.75</ele><time>2026-04-05T10:08:12.799Z</time></trkpt><trkpt lat="43.7762724" lon="11.3018557"><ele>62.5</ele><time>2026-04-05T10:08:13.799Z</time></trkpt><trkpt lat="43.7763808" lon="11.3019284"><ele>63.25</ele><time>2026-04-05T10:08:14.799Z</time></trkpt><trkpt lat="43.7764818" lon="11.3019945"><ele>64.0</ele><time>2026-04-05T10:08:15.799Z</time></trkpt><trkpt lat="43.7765836" lon="11.3020531"><ele>64.0</ele><time>2026-04-05T10:08:16.799Z</time></trkpt><trkpt lat="43.7766777" lon="11.3021094"><ele>64.0</ele><time>2026-04-05T10:08:17.799Z</time></trkpt><trkpt lat="43.7767829" lon="11.3021728"><ele>64.0</ele><time>2026-04-05T10:08:18.799Z</time></trkpt><trkpt lat="43.7768949" lon="11.3022405"><ele>64.0</ele><time>2026-04-05T10:08:19.799Z</time></trkpt><trkpt lat="43.7770013" lon="11.3023061"><ele>63.400000000000006</ele><time>2026-04-05T10:08:20.8Z</time></trkpt><trkpt lat="43.777113" lon="11.3023576"><ele>62.800000000000004</ele><time>2026-04-05T10:08:21.8Z</time></trkpt><trkpt lat="43.7772261" lon="11.3023979"><ele>62.199999999999996</ele><time>2026-04-05T10:08:22.799Z</time></trkpt><trkpt lat="43.7773302" lon="11.3024261"><ele>61.599999999999994</ele><time>2026-04-05T10:08:23.799Z</time></trkpt><trkpt lat="43.7774217" lon="11.3024447"><ele>61.0</ele><time>2026-04-05T10:08:24.799Z</time></trkpt><trkpt lat="43.777504" lon="11.3024545"><ele>61.0</ele><time>2026-04-05T10:08:25.799Z</time></trkpt><trkpt lat="43.7775889" lon="11.302461"><ele>60.99999999999999</ele><time>2026-04-05T10:08:26.799Z</time></trkpt><trkpt lat="43.7776716" lon="11.3024531"><ele>60.99999999999999</ele><time>2026-04-05T10:08:27.799Z</time></trkpt><trkpt lat="43.7777559" lon="11.3024112"><ele>61.0</ele><time>2026-04-05T10:08:28.799Z</time></trkpt><trkpt lat="43.7778416" lon="11.3023303"><ele>61.0</ele><time>2026-04-05T10:08:29.799Z</time></trkpt><trkpt lat="43.777923" lon="11.3022152"><ele>61.25</ele><time>2026-04-05T10:08:30.799Z</time></trkpt><trkpt lat="43.7779932" lon="11.3020765"><ele>61.5</ele><time>2026-04-05T10:08:31.798Z</time></trkpt><trkpt lat="43.7780574" lon="11.3019224"><ele>61.75</ele><time>2026-04-05T10:08:32.798Z</time></trkpt><trkpt lat="43.7781044" lon="11.3017558"><ele>62.0</ele><time>2026-04-05T10:08:33.799Z</time></trkpt><trkpt lat="43.7781527" lon="11.3015657"><ele>61.75</ele><time>2026-04-05T10:08:34.8Z</time></trkpt><trkpt lat="43.7781972" lon="11.3014036"><ele>61.5</ele><time>2026-04-05T10:08:35.799Z</time></trkpt><trkpt lat="43.7782345" lon="11.3012449"><ele>61.25</ele><time>2026-04-05T10:08:36.799Z</time></trkpt><trkpt lat="43.7782801" lon="11.3011016"><ele>61.0</ele><time>2026-04-05T10:08:37.799Z</time></trkpt><trkpt lat="43.7783096" lon="11.3009742"><ele>61.0</ele><time>2026-04-05T10:08:38.8Z</time></trkpt><trkpt lat="43.7783314" lon="11.3008594"><ele>60.99999999999999</ele><time>2026-04-05T10:08:39.799Z</time></trkpt><trkpt lat="43.7783659" lon="11.3007475"><ele>60.99999999999999</ele><time>2026-04-05T10:08:40.8Z</time></trkpt><trkpt lat="43.7783957" lon="11.3006213"><ele>61.0</ele><time>2026-04-05T10:08:41.8Z</time></trkpt><trkpt lat="43.7784223" lon="11.3004799"><ele>61.0</ele><time>2026-04-05T10:08:42.8Z</time></trkpt><trkpt lat="43.7784575" lon="11.3003307"><ele>61.25</ele><time>2026-04-05T10:08:43.798Z</time></trkpt><trkpt lat="43.7784991" lon="11.3001712"><ele>61.5</ele><time>2026-04-05T10:08:44.8Z</time></trkpt><trkpt lat="43.7785397" lon="11.3000169"><ele>61.75</ele><time>2026-04-05T10:08:45.8Z</time></trkpt><trkpt lat="43.778574" lon="11.2998725"><ele>62.0</ele><time>2026-04-05T10:08:46.799Z</time></trkpt><trkpt lat="43.7786047" lon="11.29973"><ele>62.0</ele><time>2026-04-05T10:08:47.798Z</time></trkpt><trkpt lat="43.7786323" lon="11.2995804"><ele>62.0</ele><time>2026-04-05T10:08:48.8Z</time></trkpt><trkpt lat="43.7786518" lon="11.2994344"><ele>62.0</ele><time>2026-04-05T10:08:49.8Z</time></trkpt><trkpt lat="43.7786699" lon="11.2992911"><ele>62.0</ele><time>2026-04-05T10:08:50.799Z</time></trkpt><trkpt lat="43.7786909" lon="11.2991487"><ele>62.0</ele><time>2026-04-05T10:08:51.798Z</time></trkpt><trkpt lat="43.7787191" lon="11.2990075"><ele>62.0</ele><time>2026-04-05T10:08:52.799Z</time></trkpt><trkpt lat="43.7787553" lon="11.2988661"><ele>62.0</ele><time>2026-04-05T10:08:53.799Z</time></trkpt><trkpt lat="43.7787979" lon="11.2987364"><ele>62.0</ele><time>2026-04-05T10:08:54.8Z</time></trkpt><trkpt lat="43.7788421" lon="11.2986148"><ele>62.0</ele><time>2026-04-05T10:08:55.799Z</time></trkpt><trkpt lat="43.7788871" lon="11.2984989"><ele>62.0</ele><time>2026-04-05T10:08:56.797Z</time></trkpt><trkpt lat="43.7789256" lon="11.2983961"><ele>62.00000000000001</ele><time>2026-04-05T10:08:57.798Z</time></trkpt><trkpt lat="43.7789587" lon="11.298306"><ele>62.0</ele><time>2026-04-05T10:08:58.799Z</time></trkpt><trkpt lat="43.7789874" lon="11.2982185"><ele>62.0</ele><time>2026-04-05T10:08:59.799Z</time></trkpt><trkpt lat="43.779013" lon="11.2981367"><ele>62.0</ele><time>2026-04-05T10:09:00.799Z</time></trkpt><trkpt lat="43.7790412" lon="11.2980536"><ele>62.00000000000001</ele><time>2026-04-05T10:09:01.8Z</time></trkpt><trkpt lat="43.7790977" lon="11.2978918"><ele>62.0</ele><time>2026-04-05T10:09:03.8Z</time></trkpt><trkpt lat="43.7791543" lon="11.2977378"><ele>62.00000000000001</ele><time>2026-04-05T10:09:05.798Z</time></trkpt><trkpt lat="43.7791817" lon="11.2976559"><ele>62.0</ele><time>2026-04-05T10:09:06.799Z</time></trkpt><trkpt lat="43.7792131" lon="11.2975768"><ele>62.0</ele><time>2026-04-05T10:09:07.799Z</time></trkpt><trkpt lat="43.7792625" lon="11.2974431"><ele>62.0</ele><time>2026-04-05T10:09:09.799Z</time></trkpt><trkpt lat="43.7793174" lon="11.2973661"><ele>62.00000000000001</ele><time>2026-04-05T10:09:11.799Z</time></trkpt><trkpt lat="43.7793434" lon="11.2972398"><ele>62.0</ele><time>2026-04-05T10:10:35.799Z</time></trkpt><trkpt lat="43.7793885" lon="11.2971093"><ele>62.00000000000001</ele><time>2026-04-05T10:10:37.799Z</time></trkpt><trkpt lat="43.7794229" lon="11.2969626"><ele>62.0</ele><time>2026-04-05T10:10:39.799Z</time></trkpt><trkpt lat="43.7794638" lon="11.2968427"><ele>62.0</ele><time>2026-04-05T10:10:41.799Z</time></trkpt><trkpt lat="43.7795037" lon="11.2967624"><ele>62.0</ele><time>2026-04-05T10:10:43.8Z</time></trkpt><trkpt lat="43.779538" lon="11.2966837"><ele>62.00000000000001</ele><time>2026-04-05T10:10:46.799Z</time></trkpt><trkpt lat="43.7795874" lon="11.2965979"><ele>62.0</ele><time>2026-04-05T10:10:53.798Z</time></trkpt><trkpt lat="43.7796638" lon="11.2964143"><ele>61.5</ele><time>2026-04-05T10:10:55.799Z</time></trkpt><trkpt lat="43.7797099" lon="11.2962892"><ele>61.0</ele><time>2026-04-05T10:10:56.798Z</time></trkpt><trkpt lat="43.7797613" lon="11.2961361"><ele>60.5</ele><time>2026-04-05T10:10:57.799Z</time></trkpt><trkpt lat="43.779822" lon="11.295964"><ele>60.0</ele><time>2026-04-05T10:10:58.798Z</time></trkpt><trkpt lat="43.7798894" lon="11.2957786"><ele>60.0</ele><time>2026-04-05T10:10:59.799Z</time></trkpt><trkpt lat="43.7799597" lon="11.2955817"><ele>60.0</ele><time>2026-04-05T10:11:00.799Z</time></trkpt><trkpt lat="43.7800356" lon="11.2953687"><ele>60.0</ele><time>2026-04-05T10:11:01.799Z</time></trkpt><trkpt lat="43.7801123" lon="11.2951585"><ele>60.0</ele><time>2026-04-05T10:11:02.798Z</time></trkpt><trkpt lat="43.7801875" lon="11.2949562"><ele>60.0</ele><time>2026-04-05T10:11:03.799Z</time></trkpt><trkpt lat="43.7802721" lon="11.2947588"><ele>60.0</ele><time>2026-04-05T10:11:04.798Z</time></trkpt><trkpt lat="43.7803598" lon="11.294548"><ele>60.66666666666667</ele><time>2026-04-05T10:11:05.798Z</time></trkpt><trkpt lat="43.7804428" lon="11.2943459"><ele>61.333333333333336</ele><time>2026-04-05T10:11:06.799Z</time></trkpt><trkpt lat="43.7805339" lon="11.2941409"><ele>62.0</ele><time>2026-04-05T10:11:07.799Z</time></trkpt><trkpt lat="43.7806238" lon="11.2939275"><ele>62.0</ele><time>2026-04-05T10:11:08.798Z</time></trkpt><trkpt lat="43.7807131" lon="11.2937137"><ele>62.0</ele><time>2026-04-05T10:11:09.798Z</time></trkpt><trkpt lat="43.7807747" lon="11.2935099"><ele>62.0</ele><time>2026-04-05T10:11:10.799Z</time></trkpt><trkpt lat="43.7808405" lon="11.2933195"><ele>62.0</ele><time>2026-04-05T10:11:11.799Z</time></trkpt><trkpt lat="43.7808931" lon="11.2931597"><ele>62.0</ele><time>2026-04-05T10:11:12.798Z</time></trkpt><trkpt lat="43.7809389" lon="11.2930242"><ele>62.0</ele><time>2026-04-05T10:11:13.797Z</time></trkpt><trkpt lat="43.7809759" lon="11.2929015"><ele>62.0</ele><time>2026-04-05T10:11:14.799Z</time></trkpt><trkpt lat="43.7810186" lon="11.2928051"><ele>62.0</ele><time>2026-04-05T10:11:15.799Z</time></trkpt><trkpt lat="43.7810751" lon="11.2927407"><ele>62.333333333333336</ele><time>2026-04-05T10:11:18.799Z</time></trkpt><trkpt lat="43.7811455" lon="11.2927541"><ele>62.66666666666667</ele><time>2026-04-05T10:11:25.797Z</time></trkpt><trkpt lat="43.7811959" lon="11.292808"><ele>63.0</ele><time>2026-04-05T10:11:26.798Z</time></trkpt><trkpt lat="43.7812484" lon="11.2928613"><ele>63.33333333333333</ele><time>2026-04-05T10:11:27.799Z</time></trkpt><trkpt lat="43.7813231" lon="11.2929105"><ele>63.666666666666664</ele><time>2026-04-05T10:11:28.799Z</time></trkpt><trkpt lat="43.7813991" lon="11.29297"><ele>64.0</ele><time>2026-04-05T10:11:29.799Z</time></trkpt><trkpt lat="43.7814812" lon="11.2930423"><ele>64.0</ele><time>2026-04-05T10:11:30.798Z</time></trkpt><trkpt lat="43.7816014" lon="11.2931362"><ele>64.0</ele><time>2026-04-05T10:11:31.799Z</time></trkpt><trkpt lat="43.7817121" lon="11.2932315"><ele>64.0</ele><time>2026-04-05T10:11:32.799Z</time></trkpt><trkpt lat="43.7818324" lon="11.2933247"><ele>64.0</ele><time>2026-04-05T10:11:33.799Z</time></trkpt><trkpt lat="43.7819476" lon="11.2934137"><ele>64.0</ele><time>2026-04-05T10:11:34.798Z</time></trkpt><trkpt lat="43.7820525" lon="11.2934993"><ele>64.0</ele><time>2026-04-05T10:11:35.799Z</time></trkpt><trkpt lat="43.7821407" lon="11.2935615"><ele>64.0</ele><time>2026-04-05T10:11:36.798Z</time></trkpt><trkpt lat="43.7822319" lon="11.2936137"><ele>64.0</ele><time>2026-04-05T10:11:37.799Z</time></trkpt><trkpt lat="43.7823195" lon="11.2936588"><ele>64.0</ele><time>2026-04-05T10:11:38.798Z</time></trkpt><trkpt lat="43.7824161" lon="11.293716"><ele>64.0</ele><time>2026-04-05T10:11:39.798Z</time></trkpt><trkpt lat="43.7825441" lon="11.2937731"><ele>64.0</ele><time>2026-04-05T10:11:40.799Z</time></trkpt><trkpt lat="43.7826899" lon="11.2938494"><ele>64.0</ele><time>2026-04-05T10:11:41.798Z</time></trkpt><trkpt lat="43.78286" lon="11.2939392"><ele>64.0</ele><time>2026-04-05T10:11:42.8Z</time></trkpt><trkpt lat="43.7830422" lon="11.2940287"><ele>64.0</ele><time>2026-04-05T10:11:43.798Z</time></trkpt><trkpt lat="43.7832294" lon="11.2941017"><ele>64.0</ele><time>2026-04-05T10:11:44.798Z</time></trkpt><trkpt lat="43.7834062" lon="11.2941545"><ele>64.33333333333333</ele><time>2026-04-05T10:11:45.799Z</time></trkpt><trkpt lat="43.783567" lon="11.2941974"><ele>64.66666666666667</ele><time>2026-04-05T10:11:46.799Z</time></trkpt><trkpt lat="43.7837194" lon="11.2942265"><ele>65.0</ele><time>2026-04-05T10:11:47.799Z</time></trkpt><trkpt lat="43.7838691" lon="11.2942443"><ele>65.0</ele><time>2026-04-05T10:11:48.798Z</time></trkpt><trkpt lat="43.7840218" lon="11.2942627"><ele>65.0</ele><time>2026-04-05T10:11:49.798Z</time></trkpt><trkpt lat="43.7841719" lon="11.2942827"><ele>65.0</ele><time>2026-04-05T10:11:50.798Z</time></trkpt><trkpt lat="43.7843235" lon="11.2942977"><ele>65.4</ele><time>2026-04-05T10:11:51.799Z</time></trkpt><trkpt lat="43.7844543" lon="11.2943143"><ele>65.8</ele><time>2026-04-05T10:11:52.798Z</time></trkpt><trkpt lat="43.7845663" lon="11.2943277"><ele>66.2</ele><time>2026-04-05T10:11:53.799Z</time></trkpt><trkpt lat="43.7846687" lon="11.2943338"><ele>66.6</ele><time>2026-04-05T10:11:54.799Z</time></trkpt><trkpt lat="43.7847581" lon="11.294329"><ele>67.0</ele><time>2026-04-05T10:11:55.8Z</time></trkpt><trkpt lat="43.7848651" lon="11.2943322"><ele>67.0</ele><time>2026-04-05T10:11:57.799Z</time></trkpt><trkpt lat="43.7849733" lon="11.2943396"><ele>67.0</ele><time>2026-04-05T10:11:59.799Z</time></trkpt><trkpt lat="43.7850399" lon="11.2943569"><ele>67.0</ele><time>2026-04-05T10:12:00.797Z</time></trkpt><trkpt lat="43.7851134" lon="11.2943555"><ele>67.0</ele><time>2026-04-05T10:12:01.799Z</time></trkpt><trkpt lat="43.7851751" lon="11.294316"><ele>67.0</ele><time>2026-04-05T10:12:02.798Z</time></trkpt><trkpt lat="43.7852212" lon="11.2942533"><ele>67.0</ele><time>2026-04-05T10:12:03.799Z</time></trkpt><trkpt lat="43.7852563" lon="11.2941556"><ele>67.5</ele><time>2026-04-05T10:12:04.799Z</time></trkpt><trkpt lat="43.7852764" lon="11.2940233"><ele>68.0</ele><time>2026-04-05T10:12:05.799Z</time></trkpt><trkpt lat="43.7852822" lon="11.2938635"><ele>68.5</ele><time>2026-04-05T10:12:06.798Z</time></trkpt><trkpt lat="43.7852799" lon="11.293694"><ele>69.0</ele><time>2026-04-05T10:12:07.799Z</time></trkpt><trkpt lat="43.7852678" lon="11.2935153"><ele>69.0</ele><time>2026-04-05T10:12:08.799Z</time></trkpt><trkpt lat="43.7852569" lon="11.2933366"><ele>69.0</ele><time>2026-04-05T10:12:09.799Z</time></trkpt><trkpt lat="43.7852253" lon="11.2931556"><ele>69.0</ele><time>2026-04-05T10:12:10.798Z</time></trkpt><trkpt lat="43.7851953" lon="11.2929686"><ele>69.0</ele><time>2026-04-05T10:12:11.799Z</time></trkpt><trkpt lat="43.7851605" lon="11.2927768"><ele>69.0</ele><time>2026-04-05T10:12:12.798Z</time></trkpt><trkpt lat="43.7851307" lon="11.2925824"><ele>69.0</ele><time>2026-04-05T10:12:13.799Z</time></trkpt><trkpt lat="43.7850879" lon="11.2924043"><ele>69.0</ele><time>2026-04-05T10:12:14.799Z</time></trkpt><trkpt lat="43.7850574" lon="11.2922279"><ele>69.0</ele><time>2026-04-05T10:12:15.798Z</time></trkpt><trkpt lat="43.785027" lon="11.2920432"><ele>68.75</ele><time>2026-04-05T10:12:16.798Z</time></trkpt><trkpt lat="43.7850006" lon="11.2918688"><ele>68.5</ele><time>2026-04-05T10:12:17.799Z</time></trkpt><trkpt lat="43.7849929" lon="11.2916848"><ele>68.25</ele><time>2026-04-05T10:12:18.799Z</time></trkpt><trkpt lat="43.7849793" lon="11.2915058"><ele>68.0</ele><time>2026-04-05T10:12:19.798Z</time></trkpt><trkpt lat="43.7849845" lon="11.2913305"><ele>67.5</ele><time>2026-04-05T10:12:20.798Z</time></trkpt><trkpt lat="43.7849906" lon="11.2911497"><ele>67.0</ele><time>2026-04-05T10:12:21.799Z</time></trkpt><trkpt lat="43.784996" lon="11.2909662"><ele>66.5</ele><time>2026-04-05T10:12:22.798Z</time></trkpt><trkpt lat="43.7850269" lon="11.2907787"><ele>66.0</ele><time>2026-04-05T10:12:23.799Z</time></trkpt><trkpt lat="43.7850474" lon="11.2905912"><ele>66.33333333333333</ele><time>2026-04-05T10:12:24.799Z</time></trkpt><trkpt lat="43.7850817" lon="11.2903966"><ele>66.66666666666666</ele><time>2026-04-05T10:12:25.798Z</time></trkpt><trkpt lat="43.785122" lon="11.2901993"><ele>67.0</ele><time>2026-04-05T10:12:26.799Z</time></trkpt><trkpt lat="43.7851852" lon="11.289982"><ele>68.75</ele><time>2026-04-05T10:12:27.798Z</time></trkpt><trkpt lat="43.7852375" lon="11.2897996"><ele>70.5</ele><time>2026-04-05T10:12:28.798Z</time></trkpt><trkpt lat="43.785283" lon="11.2896329"><ele>72.25</ele><time>2026-04-05T10:12:29.8Z</time></trkpt><trkpt lat="43.7853175" lon="11.2894647"><ele>74.0</ele><time>2026-04-05T10:12:30.798Z</time></trkpt><trkpt lat="43.7853635" lon="11.2892995"><ele>74.0</ele><time>2026-04-05T10:12:31.799Z</time></trkpt><trkpt lat="43.7854112" lon="11.2891355"><ele>74.0</ele><time>2026-04-05T10:12:32.798Z</time></trkpt><trkpt lat="43.785458" lon="11.2889774"><ele>74.0</ele><time>2026-04-05T10:12:33.798Z</time></trkpt><trkpt lat="43.7855124" lon="11.2888278"><ele>74.0</ele><time>2026-04-05T10:12:34.799Z</time></trkpt><trkpt lat="43.785564" lon="11.2886722"><ele>73.25</ele><time>2026-04-05T10:12:35.797Z</time></trkpt><trkpt lat="43.785625" lon="11.2885169"><ele>72.5</ele><time>2026-04-05T10:12:36.799Z</time></trkpt><trkpt lat="43.7856791" lon="11.2883685"><ele>71.75</ele><time>2026-04-05T10:12:37.798Z</time></trkpt><trkpt lat="43.7857385" lon="11.2882176"><ele>71.0</ele><time>2026-04-05T10:12:38.799Z</time></trkpt><trkpt lat="43.7858011" lon="11.2880619"><ele>70.25</ele><time>2026-04-05T10:12:39.798Z</time></trkpt><trkpt lat="43.7858586" lon="11.2879204"><ele>69.5</ele><time>2026-04-05T10:12:40.799Z</time></trkpt><trkpt lat="43.7859265" lon="11.2877759"><ele>68.75</ele><time>2026-04-05T10:12:41.798Z</time></trkpt><trkpt lat="43.786006" lon="11.2876275"><ele>68.0</ele><time>2026-04-05T10:12:42.797Z</time></trkpt><trkpt lat="43.7860741" lon="11.2874706"><ele>67.66666666666667</ele><time>2026-04-05T10:12:43.797Z</time></trkpt><trkpt lat="43.7861522" lon="11.2873143"><ele>67.33333333333333</ele><time>2026-04-05T10:12:44.8Z</time></trkpt><trkpt lat="43.786252" lon="11.2871469"><ele>67.0</ele><time>2026-04-05T10:12:45.798Z</time></trkpt><trkpt lat="43.7863488" lon="11.2869674"><ele>67.0</ele><time>2026-04-05T10:12:46.799Z</time></trkpt><trkpt lat="43.786447" lon="11.2867902"><ele>67.0</ele><time>2026-04-05T10:12:47.798Z</time></trkpt><trkpt lat="43.7865439" lon="11.2866029"><ele>67.0</ele><time>2026-04-05T10:12:48.799Z</time></trkpt><trkpt lat="43.7866199" lon="11.2864331"><ele>66.75</ele><time>2026-04-05T10:12:49.799Z</time></trkpt><trkpt lat="43.7867005" lon="11.2862661"><ele>66.5</ele><time>2026-04-05T10:12:50.799Z</time></trkpt><trkpt lat="43.786769" lon="11.2861056"><ele>66.25</ele><time>2026-04-05T10:12:51.798Z</time></trkpt><trkpt lat="43.7868389" lon="11.2859438"><ele>66.0</ele><time>2026-04-05T10:12:52.798Z</time></trkpt><trkpt lat="43.7868849" lon="11.2857963"><ele>67.5</ele><time>2026-04-05T10:12:53.798Z</time></trkpt><trkpt lat="43.7869326" lon="11.2856512"><ele>69.0</ele><time>2026-04-05T10:12:54.798Z</time></trkpt><trkpt lat="43.78698" lon="11.285506"><ele>70.5</ele><time>2026-04-05T10:12:55.798Z</time></trkpt><trkpt lat="43.787029" lon="11.2853597"><ele>72.0</ele><time>2026-04-05T10:12:56.799Z</time></trkpt><trkpt lat="43.7870752" lon="11.2852312"><ele>72.16666666666667</ele><time>2026-04-05T10:12:57.798Z</time></trkpt><trkpt lat="43.7871128" lon="11.285113"><ele>72.33333333333333</ele><time>2026-04-05T10:12:58.799Z</time></trkpt><trkpt lat="43.7871477" lon="11.2850012"><ele>72.5</ele><time>2026-04-05T10:12:59.797Z</time></trkpt><trkpt lat="43.7871817" lon="11.2848903"><ele>72.66666666666666</ele><time>2026-04-05T10:13:00.798Z</time></trkpt><trkpt lat="43.7872079" lon="11.2848026"><ele>72.83333333333333</ele><time>2026-04-05T10:13:01.798Z</time></trkpt><trkpt lat="43.7872389" lon="11.2846782"><ele>73.0</ele><time>2026-04-05T10:13:03.799Z</time></trkpt><trkpt lat="43.787281" lon="11.28461"><ele>73.0</ele><time>2026-04-05T10:13:05.8Z</time></trkpt><trkpt lat="43.787357" lon="11.2845867"><ele>73.0</ele><time>2026-04-05T10:13:07.799Z</time></trkpt><trkpt lat="43.7874409" lon="11.2846724"><ele>73.0</ele><time>2026-04-05T10:13:09.799Z</time></trkpt><trkpt lat="43.7874945" lon="11.2847316"><ele>73.0</ele><time>2026-04-05T10:13:10.798Z</time></trkpt><trkpt lat="43.7875498" lon="11.2847956"><ele>73.0</ele><time>2026-04-05T10:13:11.798Z</time></trkpt><trkpt lat="43.7876438" lon="11.2849122"><ele>73.0</ele><time>2026-04-05T10:13:13.798Z</time></trkpt><trkpt lat="43.7876909" lon="11.2849795"><ele>75.66666666666666</ele><time>2026-04-05T10:13:14.798Z</time></trkpt><trkpt lat="43.7877448" lon="11.2850545"><ele>78.33333333333333</ele><time>2026-04-05T10:13:15.8Z</time></trkpt><trkpt lat="43.7878026" lon="11.2851297"><ele>81.0</ele><time>2026-04-05T10:13:16.798Z</time></trkpt><trkpt lat="43.7878612" lon="11.2851957"><ele>83.66666666666667</ele><time>2026-04-05T10:13:17.799Z</time></trkpt><trkpt lat="43.7879214" lon="11.285265"><ele>86.33333333333334</ele><time>2026-04-05T10:13:18.798Z</time></trkpt><trkpt lat="43.7879833" lon="11.2853405"><ele>89.0</ele><time>2026-04-05T10:13:19.798Z</time></trkpt><trkpt lat="43.7880464" lon="11.2854244"><ele>89.0</ele><time>2026-04-05T10:13:20.799Z</time></trkpt><trkpt lat="43.7881186" lon="11.2855045"><ele>89.0</ele><time>2026-04-05T10:13:21.797Z</time></trkpt><trkpt lat="43.7881962" lon="11.2855935"><ele>89.0</ele><time>2026-04-05T10:13:22.798Z</time></trkpt><trkpt lat="43.7882767" lon="11.2856766"><ele>89.0</ele><time>2026-04-05T10:13:23.799Z</time></trkpt><trkpt lat="43.7883574" lon="11.2857559"><ele>89.0</ele><time>2026-04-05T10:13:24.797Z</time></trkpt><trkpt lat="43.788445" lon="11.2858284"><ele>90.2</ele><time>2026-04-05T10:13:25.798Z</time></trkpt><trkpt lat="43.7885318" lon="11.2859073"><ele>91.4</ele><time>2026-04-05T10:13:26.798Z</time></trkpt><trkpt lat="43.7886165" lon="11.2859781"><ele>92.6</ele><time>2026-04-05T10:13:27.798Z</time></trkpt><trkpt lat="43.7886969" lon="11.2860539"><ele>93.8</ele><time>2026-04-05T10:13:28.798Z</time></trkpt><trkpt lat="43.7887818" lon="11.2861239"><ele>95.0</ele><time>2026-04-05T10:13:29.798Z</time></trkpt><trkpt lat="43.7888731" lon="11.2861873"><ele>95.0</ele><time>2026-04-05T10:13:30.798Z</time></trkpt><trkpt lat="43.7889695" lon="11.2862529"><ele>95.0</ele><time>2026-04-05T10:13:31.799Z</time></trkpt><trkpt lat="43.7890728" lon="11.2863111"><ele>95.0</ele><time>2026-04-05T10:13:32.798Z</time></trkpt><trkpt lat="43.7891685" lon="11.2863805"><ele>95.0</ele><time>2026-04-05T10:13:33.798Z</time></trkpt><trkpt lat="43.789266" lon="11.2864445"><ele>95.0</ele><time>2026-04-05T10:13:34.798Z</time></trkpt><trkpt lat="43.7893632" lon="11.2865051"><ele>94.0</ele><time>2026-04-05T10:13:35.799Z</time></trkpt><trkpt lat="43.7894547" lon="11.2865632"><ele>93.0</ele><time>2026-04-05T10:13:36.799Z</time></trkpt><trkpt lat="43.7895547" lon="11.2866031"><ele>92.0</ele><time>2026-04-05T10:13:37.798Z</time></trkpt><trkpt lat="43.7896435" lon="11.2866542"><ele>91.0</ele><time>2026-04-05T10:13:38.798Z</time></trkpt><trkpt lat="43.7897338" lon="11.2866928"><ele>90.0</ele><time>2026-04-05T10:13:39.799Z</time></trkpt><trkpt lat="43.789824" lon="11.2867315"><ele>90.0</ele><time>2026-04-05T10:13:40.798Z</time></trkpt><trkpt lat="43.7899063" lon="11.2867765"><ele>90.0</ele><time>2026-04-05T10:13:41.799Z</time></trkpt><trkpt lat="43.7899965" lon="11.2868089"><ele>90.0</ele><time>2026-04-05T10:13:42.798Z</time></trkpt><trkpt lat="43.7900965" lon="11.2868388"><ele>90.0</ele><time>2026-04-05T10:13:43.798Z</time></trkpt><trkpt lat="43.7902045" lon="11.2868669"><ele>90.0</ele><time>2026-04-05T10:13:44.8Z</time></trkpt><trkpt lat="43.7903237" lon="11.286893"><ele>91.0</ele><time>2026-04-05T10:13:45.799Z</time></trkpt><trkpt lat="43.7904482" lon="11.2869124"><ele>92.0</ele><time>2026-04-05T10:13:46.799Z</time></trkpt><trkpt lat="43.7905764" lon="11.2869433"><ele>93.0</ele><time>2026-04-05T10:13:47.798Z</time></trkpt><trkpt lat="43.7907028" lon="11.286967"><ele>94.0</ele><time>2026-04-05T10:13:48.798Z</time></trkpt><trkpt lat="43.7908167" lon="11.2869912"><ele>94.0</ele><time>2026-04-05T10:13:49.799Z</time></trkpt><trkpt lat="43.7909351" lon="11.287002"><ele>94.0</ele><time>2026-04-05T10:13:50.798Z</time></trkpt><trkpt lat="43.7910463" lon="11.2870204"><ele>94.0</ele><time>2026-04-05T10:13:51.797Z</time></trkpt><trkpt lat="43.7911603" lon="11.2870391"><ele>94.0</ele><time>2026-04-05T10:13:52.798Z</time></trkpt><trkpt lat="43.791281" lon="11.2870424"><ele>95.0</ele><time>2026-04-05T10:13:53.8Z</time></trkpt><trkpt lat="43.7914065" lon="11.2870383"><ele>96.0</ele><time>2026-04-05T10:13:54.799Z</time></trkpt><trkpt lat="43.7915297" lon="11.2870264"><ele>97.0</ele><time>2026-04-05T10:13:55.798Z</time></trkpt><trkpt lat="43.7916506" lon="11.2870136"><ele>98.0</ele><time>2026-04-05T10:13:56.8Z</time></trkpt><trkpt lat="43.7917717" lon="11.2870031"><ele>99.5</ele><time>2026-04-05T10:13:57.798Z</time></trkpt><trkpt lat="43.7918906" lon="11.2869906"><ele>101.0</ele><time>2026-04-05T10:13:58.799Z</time></trkpt><trkpt lat="43.7920107" lon="11.2869785"><ele>102.5</ele><time>2026-04-05T10:13:59.799Z</time></trkpt><trkpt lat="43.7921243" lon="11.2869643"><ele>104.0</ele><time>2026-04-05T10:14:00.799Z</time></trkpt><trkpt lat="43.7922332" lon="11.2869477"><ele>104.0</ele><time>2026-04-05T10:14:01.799Z</time></trkpt><trkpt lat="43.7923391" lon="11.2869386"><ele>104.0</ele><time>2026-04-05T10:14:02.798Z</time></trkpt><trkpt lat="43.7924518" lon="11.2869052"><ele>104.0</ele><time>2026-04-05T10:14:03.799Z</time></trkpt><trkpt lat="43.7925518" lon="11.2868812"><ele>104.0</ele><time>2026-04-05T10:14:04.798Z</time></trkpt><trkpt lat="43.7926631" lon="11.2868513"><ele>104.0</ele><time>2026-04-05T10:14:05.798Z</time></trkpt><trkpt lat="43.7927832" lon="11.286807"><ele>106.5</ele><time>2026-04-05T10:14:06.797Z</time></trkpt><trkpt lat="43.7929093" lon="11.2867543"><ele>109.0</ele><time>2026-04-05T10:14:07.798Z</time></trkpt><trkpt lat="43.7930319" lon="11.2866992"><ele>111.5</ele><time>2026-04-05T10:14:08.799Z</time></trkpt><trkpt lat="43.7931525" lon="11.2866382"><ele>114.0</ele><time>2026-04-05T10:14:09.798Z</time></trkpt><trkpt lat="43.7932789" lon="11.2865658"><ele>114.0</ele><time>2026-04-05T10:14:10.798Z</time></trkpt><trkpt lat="43.7934073" lon="11.286488"><ele>114.0</ele><time>2026-04-05T10:14:11.798Z</time></trkpt><trkpt lat="43.7935281" lon="11.2864095"><ele>114.0</ele><time>2026-04-05T10:14:12.798Z</time></trkpt><trkpt lat="43.793644" lon="11.2863214"><ele>114.0</ele><time>2026-04-05T10:14:13.798Z</time></trkpt><trkpt lat="43.7937627" lon="11.2862265"><ele>113.5</ele><time>2026-04-05T10:14:14.797Z</time></trkpt><trkpt lat="43.7938708" lon="11.2861422"><ele>113.0</ele><time>2026-04-05T10:14:15.799Z</time></trkpt><trkpt lat="43.7939778" lon="11.2860419"><ele>112.5</ele><time>2026-04-05T10:14:16.798Z</time></trkpt><trkpt lat="43.7940868" lon="11.2859383"><ele>112.0</ele><time>2026-04-05T10:14:17.798Z</time></trkpt><trkpt lat="43.7941854" lon="11.2858314"><ele>112.0</ele><time>2026-04-05T10:14:18.798Z</time></trkpt><trkpt lat="43.794277" lon="11.2857263"><ele>112.0</ele><time>2026-04-05T10:14:19.799Z</time></trkpt><trkpt lat="43.7943688" lon="11.285611"><ele>112.0</ele><time>2026-04-05T10:14:20.798Z</time></trkpt><trkpt lat="43.7944665" lon="11.2854836"><ele>112.0</ele><time>2026-04-05T10:14:21.797Z</time></trkpt><trkpt lat="43.7945604" lon="11.2853463"><ele>113.0</ele><time>2026-04-05T10:14:22.799Z</time></trkpt><trkpt lat="43.7946516" lon="11.2852017"><ele>114.0</ele><time>2026-04-05T10:14:23.798Z</time></trkpt><trkpt lat="43.7947388" lon="11.2850472"><ele>115.0</ele><time>2026-04-05T10:14:24.8Z</time></trkpt><trkpt lat="43.7948248" lon="11.2848878"><ele>116.0</ele><time>2026-04-05T10:14:25.798Z</time></trkpt><trkpt lat="43.7949066" lon="11.2847267"><ele>118.25</ele><time>2026-04-05T10:14:26.798Z</time></trkpt><trkpt lat="43.7949841" lon="11.284573"><ele>120.5</ele><time>2026-04-05T10:14:27.798Z</time></trkpt><trkpt lat="43.795052" lon="11.2844389"><ele>122.75</ele><time>2026-04-05T10:14:28.798Z</time></trkpt><trkpt lat="43.795118" lon="11.2843048"><ele>125.0</ele><time>2026-04-05T10:14:29.798Z</time></trkpt><trkpt lat="43.7951885" lon="11.2841688"><ele>125.5</ele><time>2026-04-05T10:14:30.799Z</time></trkpt><trkpt lat="43.7952579" lon="11.2840375"><ele>126.0</ele><time>2026-04-05T10:14:31.798Z</time></trkpt><trkpt lat="43.7953381" lon="11.2839203"><ele>126.5</ele><time>2026-04-05T10:14:32.798Z</time></trkpt><trkpt lat="43.7954489" lon="11.2838782"><ele>127.0</ele><time>2026-04-05T10:14:33.798Z</time></trkpt><trkpt lat="43.7955606" lon="11.2838653"><ele>127.0</ele><time>2026-04-05T10:14:34.798Z</time></trkpt><trkpt lat="43.7956775" lon="11.2838621"><ele>126.99999999999999</ele><time>2026-04-05T10:14:35.798Z</time></trkpt><trkpt lat="43.7957656" lon="11.2839492"><ele>126.99999999999999</ele><time>2026-04-05T10:14:36.798Z</time></trkpt><trkpt lat="43.7958475" lon="11.2840496"><ele>127.0</ele><time>2026-04-05T10:14:37.797Z</time></trkpt><trkpt lat="43.7959065" lon="11.2841723"><ele>127.0</ele><time>2026-04-05T10:14:38.798Z</time></trkpt><trkpt lat="43.7959391" lon="11.2843071"><ele>127.0</ele><time>2026-04-05T10:14:39.799Z</time></trkpt><trkpt lat="43.7959457" lon="11.2844542"><ele>127.0</ele><time>2026-04-05T10:14:40.799Z</time></trkpt><trkpt lat="43.7958885" lon="11.2846161"><ele>127.0</ele><time>2026-04-05T10:14:41.799Z</time></trkpt><trkpt lat="43.795824" lon="11.2847885"><ele>127.0</ele><time>2026-04-05T10:14:42.798Z</time></trkpt><trkpt lat="43.7957389" lon="11.2849683"><ele>127.33333333333334</ele><time>2026-04-05T10:14:43.799Z</time></trkpt><trkpt lat="43.7956489" lon="11.2851628"><ele>127.66666666666666</ele><time>2026-04-05T10:14:44.798Z</time></trkpt><trkpt lat="43.7955663" lon="11.2853418"><ele>128.0</ele><time>2026-04-05T10:14:45.798Z</time></trkpt><trkpt lat="43.7954921" lon="11.285493"><ele>129.6</ele><time>2026-04-05T10:14:46.798Z</time></trkpt><trkpt lat="43.7954265" lon="11.2856394"><ele>131.20000000000002</ele><time>2026-04-05T10:14:47.799Z</time></trkpt><trkpt lat="43.795367" lon="11.2857723"><ele>132.8</ele><time>2026-04-05T10:14:48.798Z</time></trkpt><trkpt lat="43.7953314" lon="11.2859144"><ele>134.4</ele><time>2026-04-05T10:14:49.798Z</time></trkpt><trkpt lat="43.7953146" lon="11.2860536"><ele>136.0</ele><time>2026-04-05T10:14:50.799Z</time></trkpt><trkpt lat="43.7953246" lon="11.2861876"><ele>136.0</ele><time>2026-04-05T10:14:51.799Z</time></trkpt><trkpt lat="43.7953417" lon="11.286307"><ele>136.0</ele><time>2026-04-05T10:14:52.798Z</time></trkpt><trkpt lat="43.7953704" lon="11.2864114"><ele>136.0</ele><time>2026-04-05T10:14:53.799Z</time></trkpt><trkpt lat="43.7954096" lon="11.2865049"><ele>136.0</ele><time>2026-04-05T10:14:54.797Z</time></trkpt><trkpt lat="43.7954639" lon="11.2865968"><ele>136.0</ele><time>2026-04-05T10:14:55.799Z</time></trkpt><trkpt lat="43.7955416" lon="11.2866801"><ele>136.0</ele><time>2026-04-05T10:14:56.798Z</time></trkpt><trkpt lat="43.79565" lon="11.2867468"><ele>136.25</ele><time>2026-04-05T10:14:57.798Z</time></trkpt><trkpt lat="43.7957704" lon="11.286772"><ele>136.5</ele><time>2026-04-05T10:14:58.798Z</time></trkpt><trkpt lat="43.7958969" lon="11.2867738"><ele>136.75</ele><time>2026-04-05T10:14:59.798Z</time></trkpt><trkpt lat="43.7960405" lon="11.2867079"><ele>137.0</ele><time>2026-04-05T10:15:00.799Z</time></trkpt><trkpt lat="43.7961724" lon="11.286607"><ele>137.66666666666666</ele><time>2026-04-05T10:15:01.799Z</time></trkpt><trkpt lat="43.7963176" lon="11.2864866"><ele>138.33333333333334</ele><time>2026-04-05T10:15:02.798Z</time></trkpt><trkpt lat="43.7964658" lon="11.286362"><ele>139.0</ele><time>2026-04-05T10:15:03.799Z</time></trkpt><trkpt lat="43.7966303" lon="11.2862501"><ele>139.0</ele><time>2026-04-05T10:15:04.798Z</time></trkpt><trkpt lat="43.7967887" lon="11.2861214"><ele>139.0</ele><time>2026-04-05T10:15:05.798Z</time></trkpt><trkpt lat="43.7969335" lon="11.286003"><ele>139.0</ele><time>2026-04-05T10:15:06.798Z</time></trkpt><trkpt lat="43.7970704" lon="11.2858976"><ele>138.75</ele><time>2026-04-05T10:15:07.798Z</time></trkpt><trkpt lat="43.7972091" lon="11.2858041"><ele>138.5</ele><time>2026-04-05T10:15:08.798Z</time></trkpt><trkpt lat="43.7973468" lon="11.2857282"><ele>138.25</ele><time>2026-04-05T10:15:09.798Z</time></trkpt><trkpt lat="43.7974792" lon="11.2856521"><ele>138.0</ele><time>2026-04-05T10:15:10.797Z</time></trkpt><trkpt lat="43.7976364" lon="11.2855655"><ele>141.66666666666666</ele><time>2026-04-05T10:15:11.799Z</time></trkpt><trkpt lat="43.7977924" lon="11.28549"><ele>145.33333333333331</ele><time>2026-04-05T10:15:12.799Z</time></trkpt><trkpt lat="43.7979555" lon="11.2854186"><ele>149.0</ele><time>2026-04-05T10:15:13.797Z</time></trkpt><trkpt lat="43.7981122" lon="11.2853546"><ele>149.0</ele><time>2026-04-05T10:15:14.799Z</time></trkpt><trkpt lat="43.7982535" lon="11.2853004"><ele>149.0</ele><time>2026-04-05T10:15:15.798Z</time></trkpt><trkpt lat="43.7983847" lon="11.2852595"><ele>149.0</ele><time>2026-04-05T10:15:16.798Z</time></trkpt><trkpt lat="43.7985068" lon="11.2852239"><ele>149.0</ele><time>2026-04-05T10:15:17.798Z</time></trkpt><trkpt lat="43.7986151" lon="11.2852005"><ele>148.8</ele><time>2026-04-05T10:15:18.798Z</time></trkpt><trkpt lat="43.7987175" lon="11.2851837"><ele>148.60000000000002</ele><time>2026-04-05T10:15:19.798Z</time></trkpt><trkpt lat="43.7988306" lon="11.2851751"><ele>148.4</ele><time>2026-04-05T10:15:20.798Z</time></trkpt><trkpt lat="43.7989456" lon="11.2851709"><ele>148.20000000000002</ele><time>2026-04-05T10:15:21.799Z</time></trkpt><trkpt lat="43.7990611" lon="11.2851647"><ele>148.0</ele><time>2026-04-05T10:15:22.797Z</time></trkpt><trkpt lat="43.7991862" lon="11.2851639"><ele>148.0</ele><time>2026-04-05T10:15:23.798Z</time></trkpt><trkpt lat="43.7993107" lon="11.2851654"><ele>148.0</ele><time>2026-04-05T10:15:24.799Z</time></trkpt><trkpt lat="43.7994253" lon="11.2851738"><ele>148.0</ele><time>2026-04-05T10:15:25.797Z</time></trkpt><trkpt lat="43.7995276" lon="11.2851902"><ele>148.0</ele><time>2026-04-05T10:15:26.798Z</time></trkpt><trkpt lat="43.7996308" lon="11.285202"><ele>148.0</ele><time>2026-04-05T10:15:27.798Z</time></trkpt><trkpt lat="43.7997387" lon="11.2852126"><ele>147.4</ele><time>2026-04-05T10:15:28.799Z</time></trkpt><trkpt lat="43.799844" lon="11.2852271"><ele>146.8</ele><time>2026-04-05T10:15:29.798Z</time></trkpt><trkpt lat="43.7999505" lon="11.2852433"><ele>146.2</ele><time>2026-04-05T10:15:30.798Z</time></trkpt><trkpt lat="43.8000616" lon="11.2852544"><ele>145.6</ele><time>2026-04-05T10:15:31.798Z</time></trkpt><trkpt lat="43.8001733" lon="11.2852667"><ele>145.0</ele><time>2026-04-05T10:15:32.798Z</time></trkpt><trkpt lat="43.8002811" lon="11.2852758"><ele>145.0</ele><time>2026-04-05T10:15:33.798Z</time></trkpt><trkpt lat="43.8003842" lon="11.2852855"><ele>145.0</ele><time>2026-04-05T10:15:34.798Z</time></trkpt><trkpt lat="43.8004872" lon="11.285289"><ele>145.0</ele><time>2026-04-05T10:15:35.798Z</time></trkpt><trkpt lat="43.8005667" lon="11.2852998"><ele>145.0</ele><time>2026-04-05T10:15:36.798Z</time></trkpt><trkpt lat="43.8006603" lon="11.2853127"><ele>145.0</ele><time>2026-04-05T10:15:37.799Z</time></trkpt><trkpt lat="43.8007605" lon="11.2853232"><ele>145.0</ele><time>2026-04-05T10:15:38.798Z</time></trkpt><trkpt lat="43.8008577" lon="11.2853326"><ele>145.0</ele><time>2026-04-05T10:15:39.798Z</time></trkpt><trkpt lat="43.8009425" lon="11.2853479"><ele>145.0</ele><time>2026-04-05T10:15:40.798Z</time></trkpt><trkpt lat="43.8010225" lon="11.2853805"><ele>145.0</ele><time>2026-04-05T10:15:41.799Z</time></trkpt><trkpt lat="43.8011012" lon="11.2854247"><ele>145.0</ele><time>2026-04-05T10:15:42.798Z</time></trkpt><trkpt lat="43.8011836" lon="11.2854895"><ele>145.0</ele><time>2026-04-05T10:15:43.799Z</time></trkpt><trkpt lat="43.8012634" lon="11.2855705"><ele>145.4</ele><time>2026-04-05T10:15:44.798Z</time></trkpt><trkpt lat="43.8013558" lon="11.2856482"><ele>145.8</ele><time>2026-04-05T10:15:45.799Z</time></trkpt><trkpt lat="43.8014475" lon="11.285731"><ele>146.2</ele><time>2026-04-05T10:15:46.797Z</time></trkpt><trkpt lat="43.8015362" lon="11.2858184"><ele>146.6</ele><time>2026-04-05T10:15:47.798Z</time></trkpt><trkpt lat="43.8016273" lon="11.285911"><ele>147.0</ele><time>2026-04-05T10:15:48.798Z</time></trkpt><trkpt lat="43.8017144" lon="11.2859936"><ele>147.0</ele><time>2026-04-05T10:15:49.797Z</time></trkpt><trkpt lat="43.8018039" lon="11.2860766"><ele>147.0</ele><time>2026-04-05T10:15:50.798Z</time></trkpt><trkpt lat="43.8018968" lon="11.2861808"><ele>147.0</ele><time>2026-04-05T10:15:51.798Z</time></trkpt><trkpt lat="43.8019805" lon="11.2863123"><ele>147.0</ele><time>2026-04-05T10:15:52.797Z</time></trkpt><trkpt lat="43.8020597" lon="11.286452"><ele>149.25</ele><time>2026-04-05T10:15:53.797Z</time></trkpt><trkpt lat="43.8021051" lon="11.2866208"><ele>151.5</ele><time>2026-04-05T10:15:54.799Z</time></trkpt><trkpt lat="43.8021603" lon="11.2867804"><ele>153.75</ele><time>2026-04-05T10:15:55.798Z</time></trkpt><trkpt lat="43.8022059" lon="11.2869397"><ele>156.0</ele><time>2026-04-05T10:15:56.798Z</time></trkpt><trkpt lat="43.8022478" lon="11.2870756"><ele>156.0</ele><time>2026-04-05T10:15:57.797Z</time></trkpt><trkpt lat="43.802293" lon="11.2872073"><ele>156.0</ele><time>2026-04-05T10:15:58.798Z</time></trkpt><trkpt lat="43.802339" lon="11.2873504"><ele>156.0</ele><time>2026-04-05T10:15:59.798Z</time></trkpt><trkpt lat="43.8023827" lon="11.2874955"><ele>156.0</ele><time>2026-04-05T10:16:00.798Z</time></trkpt><trkpt lat="43.802432" lon="11.2876409"><ele>156.0</ele><time>2026-04-05T10:16:01.798Z</time></trkpt><trkpt lat="43.8024785" lon="11.2877865"><ele>156.25</ele><time>2026-04-05T10:16:02.798Z</time></trkpt><trkpt lat="43.8025261" lon="11.2879308"><ele>156.5</ele><time>2026-04-05T10:16:03.799Z</time></trkpt><trkpt lat="43.8025711" lon="11.288088"><ele>156.75</ele><time>2026-04-05T10:16:04.799Z</time></trkpt><trkpt lat="43.8026146" lon="11.2882487"><ele>157.0</ele><time>2026-04-05T10:16:05.798Z</time></trkpt><trkpt lat="43.80265" lon="11.2884221"><ele>160.75</ele><time>2026-04-05T10:16:06.799Z</time></trkpt><trkpt lat="43.8026851" lon="11.288598"><ele>164.5</ele><time>2026-04-05T10:16:07.798Z</time></trkpt><trkpt lat="43.8027042" lon="11.2887928"><ele>168.25</ele><time>2026-04-05T10:16:08.799Z</time></trkpt><trkpt lat="43.8027103" lon="11.2889777"><ele>172.0</ele><time>2026-04-05T10:16:09.798Z</time></trkpt><trkpt lat="43.8027001" lon="11.2891628"><ele>172.39999999999998</ele><time>2026-04-05T10:16:10.798Z</time></trkpt><trkpt lat="43.8026771" lon="11.2893289"><ele>172.79999999999998</ele><time>2026-04-05T10:16:11.798Z</time></trkpt><trkpt lat="43.8026462" lon="11.2894942"><ele>173.2</ele><time>2026-04-05T10:16:12.798Z</time></trkpt><trkpt lat="43.8026244" lon="11.289628"><ele>173.6</ele><time>2026-04-05T10:16:13.798Z</time></trkpt><trkpt lat="43.8025902" lon="11.2897618"><ele>174.0</ele><time>2026-04-05T10:16:14.798Z</time></trkpt><trkpt lat="43.8025454" lon="11.2898986"><ele>173.0</ele><time>2026-04-05T10:16:15.798Z</time></trkpt><trkpt lat="43.8024676" lon="11.2900309"><ele>172.0</ele><time>2026-04-05T10:16:16.798Z</time></trkpt><trkpt lat="43.8023776" lon="11.2901475"><ele>171.0</ele><time>2026-04-05T10:16:17.799Z</time></trkpt><trkpt lat="43.8022844" lon="11.2902582"><ele>170.0</ele><time>2026-04-05T10:16:18.799Z</time></trkpt><trkpt lat="43.8021651" lon="11.2903199"><ele>170.0</ele><time>2026-04-05T10:16:19.798Z</time></trkpt><trkpt lat="43.8020585" lon="11.2903615"><ele>170.0</ele><time>2026-04-05T10:16:20.798Z</time></trkpt><trkpt lat="43.8019521" lon="11.2903981"><ele>170.0</ele><time>2026-04-05T10:16:21.797Z</time></trkpt><trkpt lat="43.8018452" lon="11.2904407"><ele>170.0</ele><time>2026-04-05T10:16:22.797Z</time></trkpt><trkpt lat="43.8017342" lon="11.2904912"><ele>170.0</ele><time>2026-04-05T10:16:23.798Z</time></trkpt><trkpt lat="43.8016278" lon="11.2905543"><ele>170.75</ele><time>2026-04-05T10:16:24.798Z</time></trkpt><trkpt lat="43.8015214" lon="11.2906366"><ele>171.5</ele><time>2026-04-05T10:16:25.798Z</time></trkpt><trkpt lat="43.8014252" lon="11.2907523"><ele>172.25</ele><time>2026-04-05T10:16:26.798Z</time></trkpt><trkpt lat="43.801334" lon="11.2908779"><ele>173.0</ele><time>2026-04-05T10:16:27.798Z</time></trkpt><trkpt lat="43.8012348" lon="11.291016"><ele>173.0</ele><time>2026-04-05T10:16:28.799Z</time></trkpt><trkpt lat="43.8011605" lon="11.2911433"><ele>173.0</ele><time>2026-04-05T10:16:29.797Z</time></trkpt><trkpt lat="43.8010889" lon="11.2912688"><ele>173.0</ele><time>2026-04-05T10:16:30.798Z</time></trkpt><trkpt lat="43.801019" lon="11.2913847"><ele>173.0</ele><time>2026-04-05T10:16:31.797Z</time></trkpt><trkpt lat="43.8009431" lon="11.2915099"><ele>173.75</ele><time>2026-04-05T10:16:32.797Z</time></trkpt><trkpt lat="43.8008803" lon="11.2916527"><ele>174.5</ele><time>2026-04-05T10:16:33.797Z</time></trkpt><trkpt lat="43.8008244" lon="11.2917981"><ele>175.25</ele><time>2026-04-05T10:16:34.798Z</time></trkpt><trkpt lat="43.8007793" lon="11.2919371"><ele>176.0</ele><time>2026-04-05T10:16:35.796Z</time></trkpt><trkpt lat="43.8007332" lon="11.292088"><ele>176.0</ele><time>2026-04-05T10:16:36.796Z</time></trkpt><trkpt lat="43.8006883" lon="11.2922472"><ele>176.0</ele><time>2026-04-05T10:16:37.797Z</time></trkpt><trkpt lat="43.8006479" lon="11.2924033"><ele>176.0</ele><time>2026-04-05T10:16:38.799Z</time></trkpt><trkpt lat="43.8006103" lon="11.2925412"><ele>176.0</ele><time>2026-04-05T10:16:39.799Z</time></trkpt><trkpt lat="43.8005879" lon="11.292689"><ele>178.0</ele><time>2026-04-05T10:16:40.799Z</time></trkpt><trkpt lat="43.8005918" lon="11.2928452"><ele>180.0</ele><time>2026-04-05T10:16:41.799Z</time></trkpt><trkpt lat="43.8006234" lon="11.2929934"><ele>182.0</ele><time>2026-04-05T10:16:42.798Z</time></trkpt><trkpt lat="43.8006822" lon="11.2931202"><ele>184.0</ele><time>2026-04-05T10:16:43.798Z</time></trkpt><trkpt lat="43.8007668" lon="11.2932414"><ele>184.0</ele><time>2026-04-05T10:16:44.798Z</time></trkpt><trkpt lat="43.80084" lon="11.2933577"><ele>184.0</ele><time>2026-04-05T10:16:45.798Z</time></trkpt><trkpt lat="43.8009059" lon="11.2934746"><ele>184.0</ele><time>2026-04-05T10:16:46.797Z</time></trkpt><trkpt lat="43.8009721" lon="11.2935972"><ele>184.0</ele><time>2026-04-05T10:16:47.798Z</time></trkpt><trkpt lat="43.8010409" lon="11.2937345"><ele>187.39999999999998</ele><time>2026-04-05T10:16:48.797Z</time></trkpt><trkpt lat="43.8011027" lon="11.2938687"><ele>190.8</ele><time>2026-04-05T10:16:49.799Z</time></trkpt><trkpt lat="43.801159" lon="11.2939921"><ele>194.2</ele><time>2026-04-05T10:16:50.798Z</time></trkpt><trkpt lat="43.8012153" lon="11.2941112"><ele>197.60000000000002</ele><time>2026-04-05T10:16:51.798Z</time></trkpt><trkpt lat="43.8012767" lon="11.2942359"><ele>201.0</ele><time>2026-04-05T10:16:52.799Z</time></trkpt><trkpt lat="43.8013279" lon="11.2943862"><ele>201.25</ele><time>2026-04-05T10:16:53.798Z</time></trkpt><trkpt lat="43.8013527" lon="11.2945512"><ele>201.5</ele><time>2026-04-05T10:16:54.799Z</time></trkpt><trkpt lat="43.8013545" lon="11.2947198"><ele>201.75</ele><time>2026-04-05T10:16:55.797Z</time></trkpt><trkpt lat="43.8013501" lon="11.2948722"><ele>202.0</ele><time>2026-04-05T10:16:56.798Z</time></trkpt><trkpt lat="43.8013419" lon="11.2950231"><ele>203.0</ele><time>2026-04-05T10:16:57.798Z</time></trkpt><trkpt lat="43.8013376" lon="11.2951783"><ele>204.0</ele><time>2026-04-05T10:16:58.797Z</time></trkpt><trkpt lat="43.801337" lon="11.2953292"><ele>205.0</ele><time>2026-04-05T10:16:59.797Z</time></trkpt><trkpt lat="43.8013523" lon="11.2954844"><ele>206.0</ele><time>2026-04-05T10:17:00.797Z</time></trkpt><trkpt lat="43.8013897" lon="11.295641"><ele>208.25</ele><time>2026-04-05T10:17:01.797Z</time></trkpt><trkpt lat="43.8014354" lon="11.2957916"><ele>210.5</ele><time>2026-04-05T10:17:02.798Z</time></trkpt><trkpt lat="43.8014779" lon="11.2959307"><ele>212.75</ele><time>2026-04-05T10:17:03.799Z</time></trkpt><trkpt lat="43.8015191" lon="11.2960744"><ele>215.0</ele><time>2026-04-05T10:17:04.798Z</time></trkpt><trkpt lat="43.801562" lon="11.2962319"><ele>215.0</ele><time>2026-04-05T10:17:05.797Z</time></trkpt><trkpt lat="43.8015956" lon="11.2963983"><ele>215.0</ele><time>2026-04-05T10:17:06.799Z</time></trkpt><trkpt lat="43.8016144" lon="11.296572"><ele>215.0</ele><time>2026-04-05T10:17:07.798Z</time></trkpt><trkpt lat="43.8016374" lon="11.2967237"><ele>215.0</ele><time>2026-04-05T10:17:08.797Z</time></trkpt><trkpt lat="43.8016584" lon="11.2968752"><ele>215.8</ele><time>2026-04-05T10:17:09.797Z</time></trkpt><trkpt lat="43.8016752" lon="11.2970298"><ele>216.6</ele><time>2026-04-05T10:17:10.798Z</time></trkpt><trkpt lat="43.8016898" lon="11.2971774"><ele>217.39999999999998</ele><time>2026-04-05T10:17:11.797Z</time></trkpt><trkpt lat="43.8017004" lon="11.2973234"><ele>218.2</ele><time>2026-04-05T10:17:12.799Z</time></trkpt><trkpt lat="43.8016819" lon="11.297458"><ele>219.0</ele><time>2026-04-05T10:17:13.797Z</time></trkpt><trkpt lat="43.8016358" lon="11.2975979"><ele>220.79999999999998</ele><time>2026-04-05T10:17:14.797Z</time></trkpt><trkpt lat="43.8015603" lon="11.2977134"><ele>222.59999999999997</ele><time>2026-04-05T10:17:15.799Z</time></trkpt><trkpt lat="43.801472" lon="11.2978034"><ele>224.4</ele><time>2026-04-05T10:17:16.797Z</time></trkpt><trkpt lat="43.8013771" lon="11.2978728"><ele>226.2</ele><time>2026-04-05T10:17:17.798Z</time></trkpt><trkpt lat="43.8012867" lon="11.2979097"><ele>228.0</ele><time>2026-04-05T10:17:18.798Z</time></trkpt><trkpt lat="43.8012028" lon="11.2979506"><ele>228.0</ele><time>2026-04-05T10:17:19.797Z</time></trkpt><trkpt lat="43.8011105" lon="11.2979961"><ele>228.0</ele><time>2026-04-05T10:17:20.796Z</time></trkpt><trkpt lat="43.8010109" lon="11.2980371"><ele>228.0</ele><time>2026-04-05T10:17:21.797Z</time></trkpt><trkpt lat="43.8009214" lon="11.298079"><ele>228.0</ele><time>2026-04-05T10:17:22.799Z</time></trkpt><trkpt lat="43.8008397" lon="11.2981107"><ele>228.0</ele><time>2026-04-05T10:17:23.797Z</time></trkpt><trkpt lat="43.8007727" lon="11.2981514"><ele>227.83333333333334</ele><time>2026-04-05T10:17:24.798Z</time></trkpt><trkpt lat="43.800711" lon="11.2982054"><ele>227.66666666666669</ele><time>2026-04-05T10:17:25.797Z</time></trkpt><trkpt lat="43.8006943" lon="11.2983091"><ele>227.5</ele><time>2026-04-05T10:17:26.798Z</time></trkpt><trkpt lat="43.8006955" lon="11.2984"><ele>227.33333333333334</ele><time>2026-04-05T10:17:27.799Z</time></trkpt><trkpt lat="43.8007875" lon="11.2985057"><ele>227.16666666666669</ele><time>2026-04-05T10:17:29.799Z</time></trkpt><trkpt lat="43.800854" lon="11.2985031"><ele>227.0</ele><time>2026-04-05T10:17:30.797Z</time></trkpt><trkpt lat="43.8009322" lon="11.2984625"><ele>229.6</ele><time>2026-04-05T10:17:31.796Z</time></trkpt><trkpt lat="43.8010193" lon="11.2983948"><ele>232.2</ele><time>2026-04-05T10:17:32.798Z</time></trkpt><trkpt lat="43.8011175" lon="11.2983257"><ele>234.8</ele><time>2026-04-05T10:17:33.798Z</time></trkpt><trkpt lat="43.8012151" lon="11.2982723"><ele>237.4</ele><time>2026-04-05T10:17:34.798Z</time></trkpt><trkpt lat="43.8013108" lon="11.2982398"><ele>240.0</ele><time>2026-04-05T10:17:35.798Z</time></trkpt><trkpt lat="43.8014104" lon="11.2982095"><ele>240.0</ele><time>2026-04-05T10:17:36.798Z</time></trkpt><trkpt lat="43.8015182" lon="11.2981889"><ele>240.0</ele><time>2026-04-05T10:17:37.798Z</time></trkpt><trkpt lat="43.801629" lon="11.2981821"><ele>240.0</ele><time>2026-04-05T10:17:38.798Z</time></trkpt><trkpt lat="43.8017267" lon="11.2981556"><ele>240.0</ele><time>2026-04-05T10:17:39.797Z</time></trkpt><trkpt lat="43.801816" lon="11.2981151"><ele>240.0</ele><time>2026-04-05T10:17:40.799Z</time></trkpt><trkpt lat="43.8018974" lon="11.2980507"><ele>244.0</ele><time>2026-04-05T10:17:41.797Z</time></trkpt><trkpt lat="43.8019542" lon="11.2979628"><ele>248.0</ele><time>2026-04-05T10:17:42.797Z</time></trkpt><trkpt lat="43.8019955" lon="11.2978431"><ele>252.0</ele><time>2026-04-05T10:17:43.798Z</time></trkpt><trkpt lat="43.8020139" lon="11.297706"><ele>256.0</ele><time>2026-04-05T10:17:44.798Z</time></trkpt><trkpt lat="43.8020147" lon="11.2975612"><ele>260.0</ele><time>2026-04-05T10:17:45.797Z</time></trkpt><trkpt lat="43.8020145" lon="11.2974019"><ele>260.25</ele><time>2026-04-05T10:17:46.798Z</time></trkpt><trkpt lat="43.8020174" lon="11.2972427"><ele>260.5</ele><time>2026-04-05T10:17:47.796Z</time></trkpt><trkpt lat="43.8020244" lon="11.2970898"><ele>260.75</ele><time>2026-04-05T10:17:48.798Z</time></trkpt><trkpt lat="43.802046" lon="11.2969427"><ele>261.0</ele><time>2026-04-05T10:17:49.798Z</time></trkpt><trkpt lat="43.8020712" lon="11.2967844"><ele>261.0</ele><time>2026-04-05T10:17:50.798Z</time></trkpt><trkpt lat="43.8021031" lon="11.2966239"><ele>261.0</ele><time>2026-04-05T10:17:51.798Z</time></trkpt><trkpt lat="43.8021347" lon="11.2964606"><ele>261.0</ele><time>2026-04-05T10:17:52.798Z</time></trkpt><trkpt lat="43.8021682" lon="11.2963014"><ele>261.0</ele><time>2026-04-05T10:17:53.798Z</time></trkpt><trkpt lat="43.8022019" lon="11.2961503"><ele>259.0</ele><time>2026-04-05T10:17:54.798Z</time></trkpt><trkpt lat="43.8022433" lon="11.2960158"><ele>257.0</ele><time>2026-04-05T10:17:55.797Z</time></trkpt><trkpt lat="43.8022941" lon="11.2958731"><ele>255.0</ele><time>2026-04-05T10:17:56.797Z</time></trkpt><trkpt lat="43.802376" lon="11.2957223"><ele>253.0</ele><time>2026-04-05T10:17:57.798Z</time></trkpt><trkpt lat="43.8024842" lon="11.2955998"><ele>256.75</ele><time>2026-04-05T10:17:58.797Z</time></trkpt><trkpt lat="43.8025895" lon="11.2955154"><ele>260.5</ele><time>2026-04-05T10:17:59.797Z</time></trkpt><trkpt lat="43.8026911" lon="11.295413"><ele>264.25</ele><time>2026-04-05T10:18:00.798Z</time></trkpt><trkpt lat="43.802785" lon="11.2953161"><ele>268.0</ele><time>2026-04-05T10:18:01.798Z</time></trkpt><trkpt lat="43.8028812" lon="11.2952184"><ele>268.0</ele><time>2026-04-05T10:18:02.799Z</time></trkpt><trkpt lat="43.8029797" lon="11.295107"><ele>268.0</ele><time>2026-04-05T10:18:03.798Z</time></trkpt><trkpt lat="43.8030774" lon="11.2950072"><ele>268.0</ele><time>2026-04-05T10:18:04.798Z</time></trkpt><trkpt lat="43.8031755" lon="11.2949087"><ele>268.0</ele><time>2026-04-05T10:18:05.799Z</time></trkpt><trkpt lat="43.8032712" lon="11.2947947"><ele>264.25</ele><time>2026-04-05T10:18:06.799Z</time></trkpt><trkpt lat="43.8033553" lon="11.2946547"><ele>260.5</ele><time>2026-04-05T10:18:07.799Z</time></trkpt><trkpt lat="43.8034382" lon="11.2945167"><ele>256.75</ele><time>2026-04-05T10:18:08.796Z</time></trkpt><trkpt lat="43.8035133" lon="11.294371"><ele>253.0</ele><time>2026-04-05T10:18:09.797Z</time></trkpt><trkpt lat="43.8035867" lon="11.2942249"><ele>257.0</ele><time>2026-04-05T10:18:10.798Z</time></trkpt><trkpt lat="43.8036642" lon="11.2940837"><ele>261.0</ele><time>2026-04-05T10:18:11.798Z</time></trkpt><trkpt lat="43.8037435" lon="11.2939471"><ele>265.0</ele><time>2026-04-05T10:18:12.798Z</time></trkpt><trkpt lat="43.803831" lon="11.2938026"><ele>269.0</ele><time>2026-04-05T10:18:13.798Z</time></trkpt><trkpt lat="43.8039264" lon="11.2936497"><ele>269.0</ele><time>2026-04-05T10:18:14.799Z</time></trkpt><trkpt lat="43.8040232" lon="11.293504"><ele>269.0</ele><time>2026-04-05T10:18:15.796Z</time></trkpt><trkpt lat="43.8041357" lon="11.2933289"><ele>269.0</ele><time>2026-04-05T10:18:16.798Z</time></trkpt><trkpt lat="43.8042819" lon="11.2931473"><ele>271.33333333333337</ele><time>2026-04-05T10:18:17.797Z</time></trkpt><trkpt lat="43.8044188" lon="11.29299"><ele>273.6666666666667</ele><time>2026-04-05T10:18:18.799Z</time></trkpt><trkpt lat="43.8045334" lon="11.2928353"><ele>276.0</ele><time>2026-04-05T10:18:19.797Z</time></trkpt><trkpt lat="43.804633" lon="11.2926788"><ele>276.0</ele><time>2026-04-05T10:18:20.799Z</time></trkpt><trkpt lat="43.8047165" lon="11.2925345"><ele>276.0</ele><time>2026-04-05T10:18:21.798Z</time></trkpt><trkpt lat="43.8048021" lon="11.2924018"><ele>276.0</ele><time>2026-04-05T10:18:22.798Z</time></trkpt><trkpt lat="43.8048993" lon="11.292332"><ele>276.0</ele><time>2026-04-05T10:18:23.797Z</time></trkpt><trkpt lat="43.8049995" lon="11.292294"><ele>276.0</ele><time>2026-04-05T10:18:24.798Z</time></trkpt><trkpt lat="43.8051039" lon="11.2923067"><ele>276.0</ele><time>2026-04-05T10:18:25.799Z</time></trkpt><trkpt lat="43.8052399" lon="11.2923504"><ele>276.0</ele><time>2026-04-05T10:18:26.799Z</time></trkpt><trkpt lat="43.8053879" lon="11.292391"><ele>276.0</ele><time>2026-04-05T10:18:27.798Z</time></trkpt><trkpt lat="43.8055287" lon="11.2924211"><ele>276.5</ele><time>2026-04-05T10:18:28.798Z</time></trkpt><trkpt lat="43.8056534" lon="11.2924331"><ele>277.0</ele><time>2026-04-05T10:18:29.799Z</time></trkpt><trkpt lat="43.8057734" lon="11.2924038"><ele>277.5</ele><time>2026-04-05T10:18:30.798Z</time></trkpt><trkpt lat="43.8058815" lon="11.2923408"><ele>278.0</ele><time>2026-04-05T10:18:31.799Z</time></trkpt><trkpt lat="43.8059754" lon="11.2922562"><ele>281.6</ele><time>2026-04-05T10:18:32.798Z</time></trkpt><trkpt lat="43.8060569" lon="11.2921681"><ele>285.20000000000005</ele><time>2026-04-05T10:18:33.797Z</time></trkpt><trkpt lat="43.8061249" lon="11.2920859"><ele>288.8</ele><time>2026-04-05T10:18:34.797Z</time></trkpt><trkpt lat="43.8061872" lon="11.292009"><ele>292.40000000000003</ele><time>2026-04-05T10:18:35.796Z</time></trkpt><trkpt lat="43.8062514" lon="11.2919248"><ele>296.0</ele><time>2026-04-05T10:18:36.798Z</time></trkpt><trkpt lat="43.8063174" lon="11.2918406"><ele>296.0</ele><time>2026-04-05T10:18:37.797Z</time></trkpt><trkpt lat="43.8063829" lon="11.2917661"><ele>296.0</ele><time>2026-04-05T10:18:38.797Z</time></trkpt><trkpt lat="43.8064496" lon="11.2916964"><ele>296.0</ele><time>2026-04-05T10:18:39.798Z</time></trkpt><trkpt lat="43.8065221" lon="11.2916567"><ele>296.0</ele><time>2026-04-05T10:18:40.797Z</time></trkpt><trkpt lat="43.8065974" lon="11.2916517"><ele>296.0</ele><time>2026-04-05T10:18:41.797Z</time></trkpt><trkpt lat="43.8066731" lon="11.2916706"><ele>296.0</ele><time>2026-04-05T10:18:42.797Z</time></trkpt><trkpt lat="43.806733" lon="11.2917026"><ele>296.0</ele><time>2026-04-05T10:18:43.797Z</time></trkpt><trkpt lat="43.8067876" lon="11.2917481"><ele>296.0</ele><time>2026-04-05T10:18:44.799Z</time></trkpt><trkpt lat="43.8068659" lon="11.2918262"><ele>296.0</ele><time>2026-04-05T10:18:46.799Z</time></trkpt><trkpt lat="43.8069206" lon="11.2919066"><ele>296.0</ele><time>2026-04-05T10:18:49.799Z</time></trkpt><trkpt lat="43.8069709" lon="11.2919731"><ele>296.0</ele><time>2026-04-05T10:18:51.798Z</time></trkpt><trkpt lat="43.8070007" lon="11.2920734"><ele>296.0</ele><time>2026-04-05T10:18:53.797Z</time></trkpt><trkpt lat="43.806996" lon="11.2922008"><ele>296.1666666666667</ele><time>2026-04-05T10:18:55.798Z</time></trkpt><trkpt lat="43.8069629" lon="11.2923051"><ele>296.33333333333337</ele><time>2026-04-05T10:18:57.798Z</time></trkpt><trkpt lat="43.8069362" lon="11.292388"><ele>296.5</ele><time>2026-04-05T10:18:59.798Z</time></trkpt><trkpt lat="43.8068972" lon="11.2924783"><ele>296.6666666666667</ele><time>2026-04-05T10:19:01.797Z</time></trkpt><trkpt lat="43.8068579" lon="11.292602"><ele>296.8333333333333</ele><time>2026-04-05T10:19:03.799Z</time></trkpt><trkpt lat="43.8068682" lon="11.2927504"><ele>297.0</ele><time>2026-04-05T10:19:05.799Z</time></trkpt><trkpt lat="43.8068695" lon="11.2928505"><ele>297.0</ele><time>2026-04-05T10:19:06.798Z</time></trkpt><trkpt lat="43.8068656" lon="11.2929558"><ele>297.0</ele><time>2026-04-05T10:19:07.798Z</time></trkpt><trkpt lat="43.8068608" lon="11.2930639"><ele>297.0</ele><time>2026-04-05T10:19:08.798Z</time></trkpt><trkpt lat="43.8068584" lon="11.2931769"><ele>297.0</ele><time>2026-04-05T10:19:09.797Z</time></trkpt><trkpt lat="43.8068551" lon="11.2932823"><ele>297.0</ele><time>2026-04-05T10:19:10.799Z</time></trkpt><trkpt lat="43.8068463" lon="11.2934034"><ele>297.0</ele><time>2026-04-05T10:19:11.797Z</time></trkpt><trkpt lat="43.806836" lon="11.2935295"><ele>296.6</ele><time>2026-04-05T10:19:12.799Z</time></trkpt><trkpt lat="43.8068427" lon="11.2936584"><ele>296.2</ele><time>2026-04-05T10:19:13.797Z</time></trkpt><trkpt lat="43.8068354" lon="11.2937972"><ele>295.8</ele><time>2026-04-05T10:19:14.798Z</time></trkpt><trkpt lat="43.8068451" lon="11.2939495"><ele>295.4</ele><time>2026-04-05T10:19:15.798Z</time></trkpt><trkpt lat="43.8068641" lon="11.2941015"><ele>295.0</ele><time>2026-04-05T10:19:16.798Z</time></trkpt><trkpt lat="43.8068797" lon="11.2942683"><ele>295.0</ele><time>2026-04-05T10:19:17.797Z</time></trkpt><trkpt lat="43.8068988" lon="11.2944311"><ele>295.0</ele><time>2026-04-05T10:19:18.797Z</time></trkpt><trkpt lat="43.806907" lon="11.2945927"><ele>295.0</ele><time>2026-04-05T10:19:19.798Z</time></trkpt><trkpt lat="43.8069159" lon="11.2947411"><ele>295.0</ele><time>2026-04-05T10:19:20.798Z</time></trkpt><trkpt lat="43.8069223" lon="11.2948855"><ele>295.0</ele><time>2026-04-05T10:19:21.798Z</time></trkpt><trkpt lat="43.8069274" lon="11.2950181"><ele>296.16666666666663</ele><time>2026-04-05T10:19:22.799Z</time></trkpt><trkpt lat="43.8069253" lon="11.2951382"><ele>297.3333333333333</ele><time>2026-04-05T10:19:23.798Z</time></trkpt><trkpt lat="43.8069211" lon="11.295255"><ele>298.5</ele><time>2026-04-05T10:19:24.798Z</time></trkpt><trkpt lat="43.8069171" lon="11.295368"><ele>299.6666666666667</ele><time>2026-04-05T10:19:25.798Z</time></trkpt><trkpt lat="43.8069221" lon="11.2954833"><ele>300.83333333333337</ele><time>2026-04-05T10:19:26.797Z</time></trkpt><trkpt lat="43.8069264" lon="11.2955949"><ele>302.0</ele><time>2026-04-05T10:19:27.798Z</time></trkpt><trkpt lat="43.806923" lon="11.2957194"><ele>302.33333333333337</ele><time>2026-04-05T10:19:28.797Z</time></trkpt><trkpt lat="43.8069167" lon="11.2958454"><ele>302.6666666666667</ele><time>2026-04-05T10:19:29.798Z</time></trkpt><trkpt lat="43.8069124" lon="11.2959647"><ele>303.0</ele><time>2026-04-05T10:19:30.798Z</time></trkpt><trkpt lat="43.806905" lon="11.2960541"><ele>303.3333333333333</ele><time>2026-04-05T10:19:31.797Z</time></trkpt><trkpt lat="43.8068973" lon="11.2961913"><ele>303.66666666666663</ele><time>2026-04-05T10:19:33.798Z</time></trkpt><trkpt lat="43.8068909" lon="11.2963015"><ele>304.0</ele><time>2026-04-05T10:19:50.797Z</time></trkpt><trkpt lat="43.8069006" lon="11.2963928"><ele>304.5</ele><time>2026-04-05T10:19:55.797Z</time></trkpt><trkpt lat="43.8069285" lon="11.2964883"><ele>305.0</ele><time>2026-04-05T10:19:57.798Z</time></trkpt><trkpt lat="43.8069674" lon="11.2966269"><ele>305.5</ele><time>2026-04-05T10:19:59.796Z</time></trkpt><trkpt lat="43.806994" lon="11.296746"><ele>306.0</ele><time>2026-04-05T10:20:01.798Z</time></trkpt><trkpt lat="43.8070125" lon="11.2968341"><ele>306.5</ele><time>2026-04-05T10:20:03.797Z</time></trkpt><trkpt lat="43.8070383" lon="11.2969175"><ele>307.0</ele><time>2026-04-05T10:20:08.798Z</time></trkpt><trkpt lat="43.8070655" lon="11.2970059"><ele>307.0</ele><time>2026-04-05T10:20:11.798Z</time></trkpt><trkpt lat="43.8071039" lon="11.2970942"><ele>307.0</ele><time>2026-04-05T10:20:15.797Z</time></trkpt><trkpt lat="43.8071427" lon="11.2971731"><ele>307.0</ele><time>2026-04-05T10:20:17.796Z</time></trkpt><trkpt lat="43.8071707" lon="11.2972619"><ele>307.0</ele><time>2026-04-05T10:20:20.798Z</time></trkpt><trkpt lat="43.8072213" lon="11.2973997"><ele>307.0</ele><time>2026-04-05T10:20:23.796Z</time></trkpt><trkpt lat="43.8072363" lon="11.2975837"><ele>307.66666666666663</ele><time>2026-04-05T10:20:25.798Z</time></trkpt><trkpt lat="43.8072375" lon="11.2976743"><ele>308.3333333333333</ele><time>2026-04-05T10:20:26.797Z</time></trkpt><trkpt lat="43.807231" lon="11.2978085"><ele>309.0</ele><time>2026-04-05T10:20:28.799Z</time></trkpt><trkpt lat="43.8072421" lon="11.2979101"><ele>309.6666666666667</ele><time>2026-04-05T10:20:43.797Z</time></trkpt><trkpt lat="43.8072386" lon="11.2980075"><ele>310.33333333333337</ele><time>2026-04-05T10:20:46.797Z</time></trkpt><trkpt lat="43.8072368" lon="11.2981192"><ele>311.0</ele><time>2026-04-05T10:20:48.798Z</time></trkpt><trkpt lat="43.8072684" lon="11.2982104"><ele>311.7142857142857</ele><time>2026-04-05T10:20:50.798Z</time></trkpt><trkpt lat="43.807297" lon="11.298289"><ele>312.42857142857144</ele><time>2026-04-05T10:20:51.797Z</time></trkpt><trkpt lat="43.8073339" lon="11.2983696"><ele>313.14285714285717</ele><time>2026-04-05T10:20:52.798Z</time></trkpt><trkpt lat="43.8073702" lon="11.2984503"><ele>313.8571428571429</ele><time>2026-04-05T10:20:53.798Z</time></trkpt><trkpt lat="43.8073811" lon="11.2985485"><ele>314.57142857142856</ele><time>2026-04-05T10:20:54.797Z</time></trkpt><trkpt lat="43.8073907" lon="11.29865"><ele>315.28571428571433</ele><time>2026-04-05T10:20:55.797Z</time></trkpt><trkpt lat="43.8073971" lon="11.2987409"><ele>316.0</ele><time>2026-04-05T10:20:56.797Z</time></trkpt><trkpt lat="43.807407" lon="11.2988289"><ele>316.16666666666663</ele><time>2026-04-05T10:20:57.797Z</time></trkpt><trkpt lat="43.8074189" lon="11.298919"><ele>316.3333333333333</ele><time>2026-04-05T10:20:58.798Z</time></trkpt><trkpt lat="43.8074388" lon="11.2990264"><ele>316.5</ele><time>2026-04-05T10:20:59.798Z</time></trkpt><trkpt lat="43.8074555" lon="11.2991484"><ele>316.6666666666667</ele><time>2026-04-05T10:21:00.797Z</time></trkpt><trkpt lat="43.8074791" lon="11.29927"><ele>316.83333333333337</ele><time>2026-04-05T10:21:01.797Z</time></trkpt><trkpt lat="43.8075047" lon="11.2993815"><ele>317.0</ele><time>2026-04-05T10:21:02.799Z</time></trkpt><trkpt lat="43.8075305" lon="11.2994773"><ele>317.0</ele><time>2026-04-05T10:21:03.797Z</time></trkpt><trkpt lat="43.8075511" lon="11.2995651"><ele>317.0</ele><time>2026-04-05T10:21:04.797Z</time></trkpt><trkpt lat="43.8075667" lon="11.2996511"><ele>317.0</ele><time>2026-04-05T10:21:05.798Z</time></trkpt><trkpt lat="43.8075863" lon="11.2997359"><ele>317.0</ele><time>2026-04-05T10:21:06.797Z</time></trkpt><trkpt lat="43.807603" lon="11.2998253"><ele>317.0</ele><time>2026-04-05T10:21:07.798Z</time></trkpt><trkpt lat="43.8076196" lon="11.2999813"><ele>317.0</ele><time>2026-04-05T10:21:09.797Z</time></trkpt><trkpt lat="43.8076305" lon="11.3001173"><ele>318.0</ele><time>2026-04-05T10:21:11.797Z</time></trkpt><trkpt lat="43.8076069" lon="11.3002842"><ele>319.0</ele><time>2026-04-05T10:21:13.798Z</time></trkpt><trkpt lat="43.807576" lon="11.3004332"><ele>320.0</ele><time>2026-04-05T10:21:15.798Z</time></trkpt><trkpt lat="43.8075583" lon="11.3005971"><ele>321.0</ele><time>2026-04-05T10:21:17.799Z</time></trkpt><trkpt lat="43.8075408" lon="11.3006862"><ele>322.0</ele><time>2026-04-05T10:21:18.796Z</time></trkpt><trkpt lat="43.8075393" lon="11.3007807"><ele>322.0</ele><time>2026-04-05T10:21:19.798Z</time></trkpt><trkpt lat="43.8075543" lon="11.3009133"><ele>322.0</ele><time>2026-04-05T10:21:21.797Z</time></trkpt><trkpt lat="43.807565" lon="11.301033"><ele>322.0</ele><time>2026-04-05T10:21:24.798Z</time></trkpt><trkpt lat="43.8075578" lon="11.3011394"><ele>322.0</ele><time>2026-04-05T10:21:26.797Z</time></trkpt><trkpt lat="43.8075247" lon="11.3012691"><ele>322.0</ele><time>2026-04-05T10:21:28.797Z</time></trkpt><trkpt lat="43.8074826" lon="11.3013785"><ele>322.6</ele><time>2026-04-05T10:21:30.798Z</time></trkpt><trkpt lat="43.8074123" lon="11.3014899"><ele>323.20000000000005</ele><time>2026-04-05T10:21:32.799Z</time></trkpt><trkpt lat="43.8073543" lon="11.3016121"><ele>323.8</ele><time>2026-04-05T10:21:34.797Z</time></trkpt><trkpt lat="43.8073173" lon="11.3017391"><ele>324.4</ele><time>2026-04-05T10:21:36.797Z</time></trkpt><trkpt lat="43.807309" lon="11.3018423"><ele>325.0</ele><time>2026-04-05T10:21:38.798Z</time></trkpt><trkpt lat="43.8073511" lon="11.301974"><ele>325.0</ele><time>2026-04-05T10:21:40.797Z</time></trkpt><trkpt lat="43.8074091" lon="11.3020472"><ele>325.0</ele><time>2026-04-05T10:21:41.798Z</time></trkpt><trkpt lat="43.8074763" lon="11.3021066"><ele>325.0</ele><time>2026-04-05T10:21:42.798Z</time></trkpt><trkpt lat="43.8075498" lon="11.3021726"><ele>325.0</ele><time>2026-04-05T10:21:43.797Z</time></trkpt><trkpt lat="43.8076165" lon="11.3022316"><ele>325.0</ele><time>2026-04-05T10:21:44.798Z</time></trkpt><trkpt lat="43.8076721" lon="11.30229"><ele>325.0</ele><time>2026-04-05T10:21:45.796Z</time></trkpt><trkpt lat="43.8077096" lon="11.3023612"><ele>323.5</ele><time>2026-04-05T10:21:46.796Z</time></trkpt><trkpt lat="43.8077677" lon="11.3024228"><ele>322.0</ele><time>2026-04-05T10:21:47.797Z</time></trkpt><trkpt lat="43.8078395" lon="11.3024815"><ele>320.5</ele><time>2026-04-05T10:21:48.796Z</time></trkpt><trkpt lat="43.8078978" lon="11.3025255"><ele>319.0</ele><time>2026-04-05T10:21:49.797Z</time></trkpt><trkpt lat="43.8079958" lon="11.3025979"><ele>317.5</ele><time>2026-04-05T10:21:51.797Z</time></trkpt><trkpt lat="43.8080966" lon="11.3026688"><ele>316.0</ele><time>2026-04-05T10:21:53.797Z</time></trkpt><trkpt lat="43.8081466" lon="11.3027318"><ele>316.00000000000006</ele><time>2026-04-05T10:21:54.798Z</time></trkpt><trkpt lat="43.8081924" lon="11.302798"><ele>316.0</ele><time>2026-04-05T10:21:55.798Z</time></trkpt><trkpt lat="43.8082497" lon="11.3029396"><ele>316.0</ele><time>2026-04-05T10:21:57.798Z</time></trkpt><trkpt lat="43.8082657" lon="11.3030287"><ele>316.0</ele><time>2026-04-05T10:21:58.797Z</time></trkpt><trkpt lat="43.8082738" lon="11.3031163"><ele>316.0</ele><time>2026-04-05T10:21:59.797Z</time></trkpt><trkpt lat="43.8082794" lon="11.3032043"><ele>316.00000000000006</ele><time>2026-04-05T10:22:00.797Z</time></trkpt><trkpt lat="43.8082845" lon="11.3033009"><ele>316.0</ele><time>2026-04-05T10:22:01.797Z</time></trkpt><trkpt lat="43.8082876" lon="11.3034056"><ele>318.0</ele><time>2026-04-05T10:22:02.797Z</time></trkpt><trkpt lat="43.8082864" lon="11.3035195"><ele>320.0</ele><time>2026-04-05T10:22:03.797Z</time></trkpt><trkpt lat="43.8082849" lon="11.3036391"><ele>322.0</ele><time>2026-04-05T10:22:04.797Z</time></trkpt><trkpt lat="43.8082758" lon="11.3037424"><ele>324.0</ele><time>2026-04-05T10:22:05.797Z</time></trkpt><trkpt lat="43.8082767" lon="11.3038357"><ele>326.0</ele><time>2026-04-05T10:22:06.797Z</time></trkpt><trkpt lat="43.8082699" lon="11.3039254"><ele>328.0</ele><time>2026-04-05T10:22:07.797Z</time></trkpt><trkpt lat="43.8082741" lon="11.3040363"><ele>329.0</ele><time>2026-04-05T10:22:08.797Z</time></trkpt><trkpt lat="43.8082578" lon="11.3041492"><ele>330.0</ele><time>2026-04-05T10:22:09.797Z</time></trkpt><trkpt lat="43.808259" lon="11.3042813"><ele>331.0</ele><time>2026-04-05T10:22:10.797Z</time></trkpt><trkpt lat="43.8082742" lon="11.3044614"><ele>332.0</ele><time>2026-04-05T10:22:11.797Z</time></trkpt><trkpt lat="43.8082909" lon="11.3046892"><ele>334.0</ele><time>2026-04-05T10:22:12.797Z</time></trkpt><trkpt lat="43.8082946" lon="11.3049229"><ele>336.0</ele><time>2026-04-05T10:22:13.797Z</time></trkpt><trkpt lat="43.8083096" lon="11.305143"><ele>338.0</ele><time>2026-04-05T10:22:14.797Z</time></trkpt><trkpt lat="43.8083234" lon="11.3053436"><ele>338.0</ele><time>2026-04-05T10:22:15.797Z</time></trkpt><trkpt lat="43.8083393" lon="11.3055208"><ele>338.0</ele><time>2026-04-05T10:22:16.797Z</time></trkpt><trkpt lat="43.8083457" lon="11.3056746"><ele>338.0</ele><time>2026-04-05T10:22:17.797Z</time></trkpt><trkpt lat="43.8083377" lon="11.3058293"><ele>338.0</ele><time>2026-04-05T10:22:18.797Z</time></trkpt><trkpt lat="43.8083082" lon="11.3059734"><ele>338.59999999999997</ele><time>2026-04-05T10:22:19.798Z</time></trkpt><trkpt lat="43.8082685" lon="11.3061239"><ele>339.2</ele><time>2026-04-05T10:22:20.798Z</time></trkpt><trkpt lat="43.8082249" lon="11.3062637"><ele>339.8</ele><time>2026-04-05T10:22:21.798Z</time></trkpt><trkpt lat="43.8081804" lon="11.3064037"><ele>340.4</ele><time>2026-04-05T10:22:22.796Z</time></trkpt><trkpt lat="43.8081217" lon="11.3065384"><ele>341.0</ele><time>2026-04-05T10:22:23.797Z</time></trkpt><trkpt lat="43.8080757" lon="11.3066835"><ele>341.0</ele><time>2026-04-05T10:22:24.797Z</time></trkpt><trkpt lat="43.8080407" lon="11.3068378"><ele>341.0</ele><time>2026-04-05T10:22:25.798Z</time></trkpt><trkpt lat="43.8080173" lon="11.3070049"><ele>341.0</ele><time>2026-04-05T10:22:26.797Z</time></trkpt><trkpt lat="43.8079922" lon="11.3071669"><ele>341.0</ele><time>2026-04-05T10:22:27.797Z</time></trkpt><trkpt lat="43.8079667" lon="11.3073324"><ele>340.5</ele><time>2026-04-05T10:22:28.797Z</time></trkpt><trkpt lat="43.8079471" lon="11.3075005"><ele>340.0</ele><time>2026-04-05T10:22:29.797Z</time></trkpt><trkpt lat="43.8079178" lon="11.3076759"><ele>339.5</ele><time>2026-04-05T10:22:30.797Z</time></trkpt><trkpt lat="43.8078929" lon="11.3078473"><ele>339.0</ele><time>2026-04-05T10:22:31.796Z</time></trkpt><trkpt lat="43.8078771" lon="11.308018"><ele>338.75</ele><time>2026-04-05T10:22:32.797Z</time></trkpt><trkpt lat="43.8078608" lon="11.3081997"><ele>338.5</ele><time>2026-04-05T10:22:33.796Z</time></trkpt><trkpt lat="43.8078456" lon="11.308374"><ele>338.25</ele><time>2026-04-05T10:22:34.797Z</time></trkpt><trkpt lat="43.8078316" lon="11.3085548"><ele>338.0</ele><time>2026-04-05T10:22:35.797Z</time></trkpt><trkpt lat="43.8078228" lon="11.3087311"><ele>338.0</ele><time>2026-04-05T10:22:36.797Z</time></trkpt><trkpt lat="43.8078163" lon="11.308905"><ele>338.0</ele><time>2026-04-05T10:22:37.798Z</time></trkpt><trkpt lat="43.8078205" lon="11.3090748"><ele>338.0</ele><time>2026-04-05T10:22:38.797Z</time></trkpt><trkpt lat="43.807827" lon="11.3092418"><ele>338.0</ele><time>2026-04-05T10:22:39.798Z</time></trkpt><trkpt lat="43.8078371" lon="11.3094051"><ele>339.5</ele><time>2026-04-05T10:22:40.797Z</time></trkpt><trkpt lat="43.8078448" lon="11.3095621"><ele>341.0</ele><time>2026-04-05T10:22:41.797Z</time></trkpt><trkpt lat="43.807863" lon="11.3097168"><ele>342.5</ele><time>2026-04-05T10:22:42.797Z</time></trkpt><trkpt lat="43.8078941" lon="11.309869"><ele>344.0</ele><time>2026-04-05T10:22:43.796Z</time></trkpt><trkpt lat="43.8079429" lon="11.310024"><ele>345.75</ele><time>2026-04-05T10:22:44.796Z</time></trkpt><trkpt lat="43.8080074" lon="11.3101793"><ele>347.5</ele><time>2026-04-05T10:22:45.797Z</time></trkpt><trkpt lat="43.8080876" lon="11.3103443"><ele>349.25</ele><time>2026-04-05T10:22:46.797Z</time></trkpt><trkpt lat="43.8081684" lon="11.3105032"><ele>351.0</ele><time>2026-04-05T10:22:47.797Z</time></trkpt><trkpt lat="43.8082591" lon="11.3106584"><ele>352.0</ele><time>2026-04-05T10:22:48.798Z</time></trkpt><trkpt lat="43.8083394" lon="11.3108254"><ele>353.0</ele><time>2026-04-05T10:22:49.797Z</time></trkpt><trkpt lat="43.8084085" lon="11.3109979"><ele>354.0</ele><time>2026-04-05T10:22:50.797Z</time></trkpt><trkpt lat="43.8084639" lon="11.3111747"><ele>355.0</ele><time>2026-04-05T10:22:51.796Z</time></trkpt><trkpt lat="43.808504" lon="11.3113621"><ele>358.5</ele><time>2026-04-05T10:22:52.797Z</time></trkpt><trkpt lat="43.8085437" lon="11.3115474"><ele>362.0</ele><time>2026-04-05T10:22:53.798Z</time></trkpt><trkpt lat="43.8085736" lon="11.3117215"><ele>365.5</ele><time>2026-04-05T10:22:54.797Z</time></trkpt><trkpt lat="43.8086008" lon="11.3118777"><ele>369.0</ele><time>2026-04-05T10:22:55.798Z</time></trkpt><trkpt lat="43.8086266" lon="11.3120314"><ele>369.0</ele><time>2026-04-05T10:22:56.797Z</time></trkpt><trkpt lat="43.8086607" lon="11.3122012"><ele>369.0</ele><time>2026-04-05T10:22:57.797Z</time></trkpt><trkpt lat="43.8087021" lon="11.3123881"><ele>369.0</ele><time>2026-04-05T10:22:58.797Z</time></trkpt><trkpt lat="43.8087381" lon="11.3125805"><ele>369.0</ele><time>2026-04-05T10:22:59.797Z</time></trkpt><trkpt lat="43.8087758" lon="11.312767"><ele>368.5</ele><time>2026-04-05T10:23:00.797Z</time></trkpt><trkpt lat="43.8088132" lon="11.3129356"><ele>368.0</ele><time>2026-04-05T10:23:01.797Z</time></trkpt><trkpt lat="43.8088589" lon="11.3130886"><ele>367.5</ele><time>2026-04-05T10:23:02.797Z</time></trkpt><trkpt lat="43.808936" lon="11.3132338"><ele>367.0</ele><time>2026-04-05T10:23:03.798Z</time></trkpt><trkpt lat="43.8090534" lon="11.3133708"><ele>365.3333333333333</ele><time>2026-04-05T10:23:04.798Z</time></trkpt><trkpt lat="43.8091775" lon="11.3135337"><ele>363.6666666666667</ele><time>2026-04-05T10:23:05.798Z</time></trkpt><trkpt lat="43.8093033" lon="11.3137032"><ele>362.0</ele><time>2026-04-05T10:23:06.797Z</time></trkpt><trkpt lat="43.809425" lon="11.313862"><ele>361.5</ele><time>2026-04-05T10:23:07.797Z</time></trkpt><trkpt lat="43.8095303" lon="11.3140145"><ele>361.0</ele><time>2026-04-05T10:23:08.797Z</time></trkpt><trkpt lat="43.8096359" lon="11.3141562"><ele>360.5</ele><time>2026-04-05T10:23:09.798Z</time></trkpt><trkpt lat="43.8097396" lon="11.3142863"><ele>360.0</ele><time>2026-04-05T10:23:10.798Z</time></trkpt><trkpt lat="43.8098461" lon="11.3144198"><ele>360.0</ele><time>2026-04-05T10:23:11.797Z</time></trkpt><trkpt lat="43.8099462" lon="11.3145431"><ele>360.0</ele><time>2026-04-05T10:23:12.797Z</time></trkpt><trkpt lat="43.8100343" lon="11.314654"><ele>360.0</ele><time>2026-04-05T10:23:13.797Z</time></trkpt><trkpt lat="43.8101219" lon="11.3147614"><ele>360.0</ele><time>2026-04-05T10:23:14.798Z</time></trkpt><trkpt lat="43.8102124" lon="11.3148738"><ele>361.6</ele><time>2026-04-05T10:23:15.797Z</time></trkpt><trkpt lat="43.8103055" lon="11.314983"><ele>363.2</ele><time>2026-04-05T10:23:16.797Z</time></trkpt><trkpt lat="43.8103972" lon="11.3150556"><ele>364.79999999999995</ele><time>2026-04-05T10:23:17.797Z</time></trkpt><trkpt lat="43.8104857" lon="11.315116"><ele>366.4</ele><time>2026-04-05T10:23:18.798Z</time></trkpt><trkpt lat="43.8105781" lon="11.315174"><ele>368.0</ele><time>2026-04-05T10:23:19.797Z</time></trkpt><trkpt lat="43.81067" lon="11.3152148"><ele>368.0</ele><time>2026-04-05T10:23:20.797Z</time></trkpt><trkpt lat="43.8107719" lon="11.3152295"><ele>368.0</ele><time>2026-04-05T10:23:21.798Z</time></trkpt><trkpt lat="43.8108664" lon="11.3152383"><ele>368.0</ele><time>2026-04-05T10:23:22.797Z</time></trkpt><trkpt lat="43.8109671" lon="11.3152319"><ele>368.0</ele><time>2026-04-05T10:23:23.797Z</time></trkpt><trkpt lat="43.811071" lon="11.3152239"><ele>368.0</ele><time>2026-04-05T10:23:24.797Z</time></trkpt><trkpt lat="43.8111976" lon="11.3152129"><ele>368.0</ele><time>2026-04-05T10:23:25.797Z</time></trkpt><trkpt lat="43.8113043" lon="11.3152049"><ele>368.0</ele><time>2026-04-05T10:23:26.798Z</time></trkpt><trkpt lat="43.8114062" lon="11.3152022"><ele>368.0</ele><time>2026-04-05T10:23:27.797Z</time></trkpt><trkpt lat="43.8115055" lon="11.3152205"><ele>368.0</ele><time>2026-04-05T10:23:28.797Z</time></trkpt><trkpt lat="43.8116" lon="11.3152525"><ele>368.0</ele><time>2026-04-05T10:23:29.797Z</time></trkpt><trkpt lat="43.8117125" lon="11.3152931"><ele>368.0</ele><time>2026-04-05T10:23:30.797Z</time></trkpt><trkpt lat="43.8118039" lon="11.3153397"><ele>368.0</ele><time>2026-04-05T10:23:31.796Z</time></trkpt><trkpt lat="43.8119101" lon="11.3153846"><ele>368.0</ele><time>2026-04-05T10:23:32.797Z</time></trkpt><trkpt lat="43.8120035" lon="11.31544"><ele>368.0</ele><time>2026-04-05T10:23:33.797Z</time></trkpt><trkpt lat="43.8120895" lon="11.3155198"><ele>368.0</ele><time>2026-04-05T10:23:34.796Z</time></trkpt><trkpt lat="43.812177" lon="11.3156194"><ele>370.75</ele><time>2026-04-05T10:23:35.798Z</time></trkpt><trkpt lat="43.8122586" lon="11.3157276"><ele>373.5</ele><time>2026-04-05T10:23:36.795Z</time></trkpt><trkpt lat="43.8123631" lon="11.3158102"><ele>376.25</ele><time>2026-04-05T10:23:37.796Z</time></trkpt><trkpt lat="43.8124769" lon="11.3158637"><ele>379.0</ele><time>2026-04-05T10:23:38.797Z</time></trkpt><trkpt lat="43.8126017" lon="11.3158869"><ele>378.75</ele><time>2026-04-05T10:23:39.797Z</time></trkpt><trkpt lat="43.8127379" lon="11.3158806"><ele>378.5</ele><time>2026-04-05T10:23:40.797Z</time></trkpt><trkpt lat="43.8128664" lon="11.315883"><ele>378.25</ele><time>2026-04-05T10:23:41.797Z</time></trkpt><trkpt lat="43.8129848" lon="11.3159006"><ele>378.0</ele><time>2026-04-05T10:23:42.797Z</time></trkpt><trkpt lat="43.8131171" lon="11.3159314"><ele>378.0</ele><time>2026-04-05T10:23:43.798Z</time></trkpt><trkpt lat="43.8132521" lon="11.3159964"><ele>378.0</ele><time>2026-04-05T10:23:44.797Z</time></trkpt><trkpt lat="43.8133815" lon="11.3160707"><ele>378.0</ele><time>2026-04-05T10:23:45.797Z</time></trkpt><trkpt lat="43.8134977" lon="11.3161686"><ele>378.0</ele><time>2026-04-05T10:23:46.797Z</time></trkpt><trkpt lat="43.8136092" lon="11.3162398"><ele>377.25</ele><time>2026-04-05T10:23:47.796Z</time></trkpt><trkpt lat="43.8137014" lon="11.3163511"><ele>376.5</ele><time>2026-04-05T10:23:48.797Z</time></trkpt><trkpt lat="43.8137733" lon="11.316506"><ele>375.75</ele><time>2026-04-05T10:23:49.797Z</time></trkpt><trkpt lat="43.8138336" lon="11.3166778"><ele>375.0</ele><time>2026-04-05T10:23:50.798Z</time></trkpt><trkpt lat="43.8138881" lon="11.3168371"><ele>375.0</ele><time>2026-04-05T10:23:51.798Z</time></trkpt><trkpt lat="43.8139442" lon="11.3169787"><ele>375.0</ele><time>2026-04-05T10:23:52.795Z</time></trkpt><trkpt lat="43.8140057" lon="11.3171112"><ele>375.0</ele><time>2026-04-05T10:23:53.798Z</time></trkpt><trkpt lat="43.8140757" lon="11.3172244"><ele>375.0</ele><time>2026-04-05T10:23:54.798Z</time></trkpt><trkpt lat="43.8141621" lon="11.3173108"><ele>375.0</ele><time>2026-04-05T10:23:55.797Z</time></trkpt><trkpt lat="43.8142541" lon="11.317383"><ele>377.5</ele><time>2026-04-05T10:23:56.796Z</time></trkpt><trkpt lat="43.8143747" lon="11.3174029"><ele>380.0</ele><time>2026-04-05T10:23:57.797Z</time></trkpt><trkpt lat="43.8144876" lon="11.3174005"><ele>382.5</ele><time>2026-04-05T10:23:58.796Z</time></trkpt><trkpt lat="43.8146039" lon="11.3173656"><ele>385.0</ele><time>2026-04-05T10:23:59.797Z</time></trkpt><trkpt lat="43.814729" lon="11.3173104"><ele>385.0</ele><time>2026-04-05T10:24:00.797Z</time></trkpt><trkpt lat="43.8148703" lon="11.3172512"><ele>385.0</ele><time>2026-04-05T10:24:01.797Z</time></trkpt><trkpt lat="43.8150152" lon="11.3171932"><ele>385.0</ele><time>2026-04-05T10:24:02.798Z</time></trkpt><trkpt lat="43.8151602" lon="11.3171395"><ele>385.0</ele><time>2026-04-05T10:24:03.797Z</time></trkpt><trkpt lat="43.8152859" lon="11.3170995"><ele>382.75</ele><time>2026-04-05T10:24:04.796Z</time></trkpt><trkpt lat="43.8154165" lon="11.3170586"><ele>380.5</ele><time>2026-04-05T10:24:05.797Z</time></trkpt><trkpt lat="43.8155522" lon="11.3170079"><ele>378.25</ele><time>2026-04-05T10:24:06.797Z</time></trkpt><trkpt lat="43.8156911" lon="11.3169492"><ele>376.0</ele><time>2026-04-05T10:24:07.797Z</time></trkpt><trkpt lat="43.8158152" lon="11.3168972"><ele>376.0</ele><time>2026-04-05T10:24:08.797Z</time></trkpt><trkpt lat="43.8159354" lon="11.316848"><ele>376.0</ele><time>2026-04-05T10:24:09.797Z</time></trkpt><trkpt lat="43.8160488" lon="11.3168237"><ele>376.0</ele><time>2026-04-05T10:24:10.797Z</time></trkpt><trkpt lat="43.816168" lon="11.3168411"><ele>376.0</ele><time>2026-04-05T10:24:11.797Z</time></trkpt><trkpt lat="43.8162781" lon="11.3169018"><ele>375.25</ele><time>2026-04-05T10:24:12.797Z</time></trkpt><trkpt lat="43.8163842" lon="11.3169991"><ele>374.5</ele><time>2026-04-05T10:24:13.796Z</time></trkpt><trkpt lat="43.81649" lon="11.3171227"><ele>373.75</ele><time>2026-04-05T10:24:14.795Z</time></trkpt><trkpt lat="43.8165934" lon="11.317242"><ele>373.0</ele><time>2026-04-05T10:24:15.798Z</time></trkpt><trkpt lat="43.8166937" lon="11.3173651"><ele>371.25</ele><time>2026-04-05T10:24:16.798Z</time></trkpt><trkpt lat="43.816789" lon="11.3174871"><ele>369.5</ele><time>2026-04-05T10:24:17.796Z</time></trkpt><trkpt lat="43.8168827" lon="11.3176072"><ele>367.75</ele><time>2026-04-05T10:24:18.797Z</time></trkpt><trkpt lat="43.8169633" lon="11.317746"><ele>366.0</ele><time>2026-04-05T10:24:19.797Z</time></trkpt><trkpt lat="43.8170349" lon="11.3178988"><ele>366.0</ele><time>2026-04-05T10:24:20.796Z</time></trkpt><trkpt lat="43.8170911" lon="11.3180474"><ele>366.0</ele><time>2026-04-05T10:24:21.796Z</time></trkpt><trkpt lat="43.8171307" lon="11.3181928"><ele>366.0</ele><time>2026-04-05T10:24:22.796Z</time></trkpt><trkpt lat="43.8171738" lon="11.3183192"><ele>366.0</ele><time>2026-04-05T10:24:23.797Z</time></trkpt><trkpt lat="43.8172116" lon="11.318442"><ele>366.0</ele><time>2026-04-05T10:24:24.797Z</time></trkpt><trkpt lat="43.8172565" lon="11.3185679"><ele>368.0</ele><time>2026-04-05T10:24:25.797Z</time></trkpt><trkpt lat="43.817307" lon="11.3186981"><ele>370.0</ele><time>2026-04-05T10:24:26.797Z</time></trkpt><trkpt lat="43.8173927" lon="11.3188065"><ele>372.0</ele><time>2026-04-05T10:24:27.797Z</time></trkpt><trkpt lat="43.8174885" lon="11.3188828"><ele>374.0</ele><time>2026-04-05T10:24:28.797Z</time></trkpt><trkpt lat="43.8176066" lon="11.3189128"><ele>375.6</ele><time>2026-04-05T10:24:29.797Z</time></trkpt><trkpt lat="43.8177246" lon="11.3189321"><ele>377.2</ele><time>2026-04-05T10:24:30.797Z</time></trkpt><trkpt lat="43.817836" lon="11.3189381"><ele>378.8</ele><time>2026-04-05T10:24:31.797Z</time></trkpt><trkpt lat="43.8179288" lon="11.3189467"><ele>380.40000000000003</ele><time>2026-04-05T10:24:32.798Z</time></trkpt><trkpt lat="43.8180194" lon="11.3189578"><ele>382.0</ele><time>2026-04-05T10:24:33.797Z</time></trkpt><trkpt lat="43.818106" lon="11.3189648"><ele>382.0</ele><time>2026-04-05T10:24:34.796Z</time></trkpt><trkpt lat="43.8181789" lon="11.3189704"><ele>382.0</ele><time>2026-04-05T10:24:35.798Z</time></trkpt><trkpt lat="43.8182631" lon="11.3189738"><ele>382.0</ele><time>2026-04-05T10:24:36.797Z</time></trkpt><trkpt lat="43.818347" lon="11.3189978"><ele>382.0</ele><time>2026-04-05T10:24:37.798Z</time></trkpt><trkpt lat="43.8184258" lon="11.3190453"><ele>382.0</ele><time>2026-04-05T10:24:38.797Z</time></trkpt><trkpt lat="43.8184958" lon="11.3191301"><ele>382.0</ele><time>2026-04-05T10:24:39.797Z</time></trkpt><trkpt lat="43.8185727" lon="11.3192443"><ele>381.5</ele><time>2026-04-05T10:24:40.798Z</time></trkpt><trkpt lat="43.8186724" lon="11.3193326"><ele>381.0</ele><time>2026-04-05T10:24:41.798Z</time></trkpt><trkpt lat="43.8188083" lon="11.3194051"><ele>380.5</ele><time>2026-04-05T10:24:42.796Z</time></trkpt><trkpt lat="43.8189496" lon="11.3194414"><ele>380.0</ele><time>2026-04-05T10:24:43.797Z</time></trkpt><trkpt lat="43.8190981" lon="11.3194387"><ele>380.0</ele><time>2026-04-05T10:24:44.798Z</time></trkpt><trkpt lat="43.819231" lon="11.3194214"><ele>380.0</ele><time>2026-04-05T10:24:45.798Z</time></trkpt><trkpt lat="43.8193521" lon="11.3193914"><ele>380.0</ele><time>2026-04-05T10:24:46.796Z</time></trkpt><trkpt lat="43.819462" lon="11.3193579"><ele>380.0</ele><time>2026-04-05T10:24:47.797Z</time></trkpt><trkpt lat="43.8195722" lon="11.3193173"><ele>381.8</ele><time>2026-04-05T10:24:48.796Z</time></trkpt><trkpt lat="43.819688" lon="11.3192755"><ele>383.6</ele><time>2026-04-05T10:24:49.797Z</time></trkpt><trkpt lat="43.8197988" lon="11.3192477"><ele>385.4</ele><time>2026-04-05T10:24:50.797Z</time></trkpt><trkpt lat="43.8198994" lon="11.3192124"><ele>387.2</ele><time>2026-04-05T10:24:51.797Z</time></trkpt><trkpt lat="43.8200085" lon="11.319188"><ele>389.0</ele><time>2026-04-05T10:24:52.798Z</time></trkpt><trkpt lat="43.8201164" lon="11.3191954"><ele>387.25</ele><time>2026-04-05T10:24:53.797Z</time></trkpt><trkpt lat="43.8202264" lon="11.3192408"><ele>385.5</ele><time>2026-04-05T10:24:54.797Z</time></trkpt><trkpt lat="43.8203436" lon="11.3193261"><ele>383.75</ele><time>2026-04-05T10:24:55.798Z</time></trkpt><trkpt lat="43.8204596" lon="11.3194345"><ele>382.0</ele><time>2026-04-05T10:24:56.796Z</time></trkpt><trkpt lat="43.8205663" lon="11.3195288"><ele>382.0</ele><time>2026-04-05T10:24:57.797Z</time></trkpt><trkpt lat="43.8206659" lon="11.3196127"><ele>382.0</ele><time>2026-04-05T10:24:58.797Z</time></trkpt><trkpt lat="43.8207726" lon="11.3196885"><ele>382.0</ele><time>2026-04-05T10:24:59.797Z</time></trkpt><trkpt lat="43.820899" lon="11.3197374"><ele>382.0</ele><time>2026-04-05T10:25:00.796Z</time></trkpt><trkpt lat="43.8210217" lon="11.3197906"><ele>387.5</ele><time>2026-04-05T10:25:01.797Z</time></trkpt><trkpt lat="43.8211533" lon="11.3198342"><ele>393.0</ele><time>2026-04-05T10:25:02.797Z</time></trkpt><trkpt lat="43.8212834" lon="11.3198676"><ele>398.5</ele><time>2026-04-05T10:25:03.798Z</time></trkpt><trkpt lat="43.8214117" lon="11.3198654"><ele>404.0</ele><time>2026-04-05T10:25:04.797Z</time></trkpt><trkpt lat="43.8215431" lon="11.319836"><ele>404.0</ele><time>2026-04-05T10:25:05.798Z</time></trkpt><trkpt lat="43.8216696" lon="11.3197991"><ele>404.0</ele><time>2026-04-05T10:25:06.797Z</time></trkpt><trkpt lat="43.821786" lon="11.319758"><ele>404.0</ele><time>2026-04-05T10:25:07.798Z</time></trkpt><trkpt lat="43.8218946" lon="11.3197191"><ele>404.0</ele><time>2026-04-05T10:25:08.797Z</time></trkpt><trkpt lat="43.8220026" lon="11.3196976"><ele>404.0</ele><time>2026-04-05T10:25:09.796Z</time></trkpt><trkpt lat="43.8221087" lon="11.3197183"><ele>404.0</ele><time>2026-04-05T10:25:10.796Z</time></trkpt><trkpt lat="43.8222162" lon="11.3197654"><ele>404.0</ele><time>2026-04-05T10:25:11.797Z</time></trkpt><trkpt lat="43.8223293" lon="11.319866"><ele>404.0</ele><time>2026-04-05T10:25:12.797Z</time></trkpt><trkpt lat="43.8224558" lon="11.3199944"><ele>404.0</ele><time>2026-04-05T10:25:13.798Z</time></trkpt><trkpt lat="43.8225785" lon="11.3200898"><ele>404.0</ele><time>2026-04-05T10:25:14.797Z</time></trkpt><trkpt lat="43.8227103" lon="11.3201337"><ele>404.0</ele><time>2026-04-05T10:25:15.796Z</time></trkpt><trkpt lat="43.8228261" lon="11.3201889"><ele>404.0</ele><time>2026-04-05T10:25:16.797Z</time></trkpt><trkpt lat="43.8229278" lon="11.3202512"><ele>406.0</ele><time>2026-04-05T10:25:17.796Z</time></trkpt><trkpt lat="43.8230202" lon="11.3203443"><ele>408.0</ele><time>2026-04-05T10:25:18.797Z</time></trkpt><trkpt lat="43.823113" lon="11.3204632"><ele>410.0</ele><time>2026-04-05T10:25:19.796Z</time></trkpt><trkpt lat="43.8232145" lon="11.3205982"><ele>412.0</ele><time>2026-04-05T10:25:20.796Z</time></trkpt><trkpt lat="43.8233015" lon="11.3207171"><ele>412.0</ele><time>2026-04-05T10:25:21.797Z</time></trkpt><trkpt lat="43.8233823" lon="11.3208241"><ele>412.0</ele><time>2026-04-05T10:25:22.797Z</time></trkpt><trkpt lat="43.8234557" lon="11.3209492"><ele>412.0</ele><time>2026-04-05T10:25:23.796Z</time></trkpt><trkpt lat="43.8235357" lon="11.3210728"><ele>412.0</ele><time>2026-04-05T10:25:24.796Z</time></trkpt><trkpt lat="43.8235849" lon="11.3212401"><ele>408.5</ele><time>2026-04-05T10:25:25.797Z</time></trkpt><trkpt lat="43.8236476" lon="11.3213939"><ele>405.0</ele><time>2026-04-05T10:25:26.796Z</time></trkpt><trkpt lat="43.8237079" lon="11.3215374"><ele>401.5</ele><time>2026-04-05T10:25:27.796Z</time></trkpt><trkpt lat="43.8237492" lon="11.3216853"><ele>398.0</ele><time>2026-04-05T10:25:28.796Z</time></trkpt><trkpt lat="43.8237626" lon="11.3218342"><ele>398.0</ele><time>2026-04-05T10:25:29.797Z</time></trkpt><trkpt lat="43.8237712" lon="11.3219998"><ele>398.0</ele><time>2026-04-05T10:25:30.797Z</time></trkpt><trkpt lat="43.8238146" lon="11.3221557"><ele>398.0</ele><time>2026-04-05T10:25:31.795Z</time></trkpt><trkpt lat="43.8238709" lon="11.3222953"><ele>398.0</ele><time>2026-04-05T10:25:32.796Z</time></trkpt><trkpt lat="43.8239512" lon="11.322422"><ele>401.4</ele><time>2026-04-05T10:25:33.797Z</time></trkpt><trkpt lat="43.8240426" lon="11.3225331"><ele>404.79999999999995</ele><time>2026-04-05T10:25:34.798Z</time></trkpt><trkpt lat="43.8241259" lon="11.3226504"><ele>408.2</ele><time>2026-04-05T10:25:35.798Z</time></trkpt><trkpt lat="43.8241717" lon="11.3227672"><ele>411.6</ele><time>2026-04-05T10:25:36.798Z</time></trkpt><trkpt lat="43.8242151" lon="11.3228879"><ele>415.0</ele><time>2026-04-05T10:25:37.796Z</time></trkpt><trkpt lat="43.8241919" lon="11.3230549"><ele>416.6</ele><time>2026-04-05T10:25:38.797Z</time></trkpt><trkpt lat="43.8241739" lon="11.32322"><ele>418.2</ele><time>2026-04-05T10:25:39.797Z</time></trkpt><trkpt lat="43.824157" lon="11.3233784"><ele>419.79999999999995</ele><time>2026-04-05T10:25:40.798Z</time></trkpt><trkpt lat="43.8241344" lon="11.3235188"><ele>421.4</ele><time>2026-04-05T10:25:41.796Z</time></trkpt><trkpt lat="43.8241117" lon="11.3236326"><ele>423.0</ele><time>2026-04-05T10:25:42.796Z</time></trkpt><trkpt lat="43.8241017" lon="11.3237285"><ele>423.0</ele><time>2026-04-05T10:25:43.797Z</time></trkpt><trkpt lat="43.8241191" lon="11.3238181"><ele>423.0</ele><time>2026-04-05T10:25:44.795Z</time></trkpt><trkpt lat="43.8241581" lon="11.323899"><ele>423.0</ele><time>2026-04-05T10:25:45.797Z</time></trkpt><trkpt lat="43.8242253" lon="11.3239463"><ele>423.0</ele><time>2026-04-05T10:25:46.797Z</time></trkpt><trkpt lat="43.8243097" lon="11.3239709"><ele>423.0</ele><time>2026-04-05T10:25:47.797Z</time></trkpt><trkpt lat="43.8244226" lon="11.323952"><ele>423.0</ele><time>2026-04-05T10:25:48.798Z</time></trkpt><trkpt lat="43.8245431" lon="11.3239284"><ele>422.25</ele><time>2026-04-05T10:25:49.797Z</time></trkpt><trkpt lat="43.8246548" lon="11.3239301"><ele>421.5</ele><time>2026-04-05T10:25:50.798Z</time></trkpt><trkpt lat="43.8247608" lon="11.3239414"><ele>420.75</ele><time>2026-04-05T10:25:51.796Z</time></trkpt><trkpt lat="43.8248824" lon="11.323989"><ele>420.0</ele><time>2026-04-05T10:25:52.797Z</time></trkpt><trkpt lat="43.8249972" lon="11.3240749"><ele>420.0</ele><time>2026-04-05T10:25:53.797Z</time></trkpt><trkpt lat="43.8251229" lon="11.3241732"><ele>420.0</ele><time>2026-04-05T10:25:54.797Z</time></trkpt><trkpt lat="43.8252482" lon="11.3242589"><ele>420.0</ele><time>2026-04-05T10:25:55.796Z</time></trkpt><trkpt lat="43.8253506" lon="11.3243405"><ele>420.0</ele><time>2026-04-05T10:25:56.796Z</time></trkpt><trkpt lat="43.8254355" lon="11.3244123"><ele>419.0</ele><time>2026-04-05T10:25:57.797Z</time></trkpt><trkpt lat="43.8255062" lon="11.3244979"><ele>418.0</ele><time>2026-04-05T10:25:58.798Z</time></trkpt><trkpt lat="43.8255701" lon="11.3246247"><ele>417.0</ele><time>2026-04-05T10:25:59.796Z</time></trkpt><trkpt lat="43.8256232" lon="11.3247734"><ele>416.0</ele><time>2026-04-05T10:26:00.796Z</time></trkpt><trkpt lat="43.8256697" lon="11.3249409"><ele>416.0</ele><time>2026-04-05T10:26:01.798Z</time></trkpt><trkpt lat="43.8257211" lon="11.3250923"><ele>416.0</ele><time>2026-04-05T10:26:02.797Z</time></trkpt><trkpt lat="43.8257753" lon="11.3252255"><ele>416.0</ele><time>2026-04-05T10:26:03.797Z</time></trkpt><trkpt lat="43.8258241" lon="11.3253395"><ele>416.0</ele><time>2026-04-05T10:26:04.796Z</time></trkpt><trkpt lat="43.8258733" lon="11.3254454"><ele>416.0</ele><time>2026-04-05T10:26:05.796Z</time></trkpt><trkpt lat="43.825918" lon="11.3255273"><ele>415.0</ele><time>2026-04-05T10:26:06.798Z</time></trkpt><trkpt lat="43.8259687" lon="11.3256039"><ele>414.0</ele><time>2026-04-05T10:26:07.796Z</time></trkpt><trkpt lat="43.8260258" lon="11.3256768"><ele>413.0</ele><time>2026-04-05T10:26:08.796Z</time></trkpt><trkpt lat="43.8260978" lon="11.325764"><ele>412.0</ele><time>2026-04-05T10:26:09.797Z</time></trkpt><trkpt lat="43.8261851" lon="11.3258521"><ele>411.0</ele><time>2026-04-05T10:26:10.797Z</time></trkpt><trkpt lat="43.8262843" lon="11.3259306"><ele>411.0</ele><time>2026-04-05T10:26:11.796Z</time></trkpt><trkpt lat="43.8263968" lon="11.326002"><ele>411.0</ele><time>2026-04-05T10:26:12.795Z</time></trkpt><trkpt lat="43.8265059" lon="11.3260716"><ele>411.0</ele><time>2026-04-05T10:26:13.797Z</time></trkpt><trkpt lat="43.8266065" lon="11.3261309"><ele>411.0</ele><time>2026-04-05T10:26:14.796Z</time></trkpt><trkpt lat="43.8267144" lon="11.3261926"><ele>410.25</ele><time>2026-04-05T10:26:15.797Z</time></trkpt><trkpt lat="43.8268313" lon="11.326249"><ele>409.5</ele><time>2026-04-05T10:26:16.798Z</time></trkpt><trkpt lat="43.8269408" lon="11.3263146"><ele>408.75</ele><time>2026-04-05T10:26:17.797Z</time></trkpt><trkpt lat="43.8270489" lon="11.3264047"><ele>408.0</ele><time>2026-04-05T10:26:18.797Z</time></trkpt><trkpt lat="43.8271595" lon="11.3265306"><ele>408.0</ele><time>2026-04-05T10:26:19.797Z</time></trkpt><trkpt lat="43.8272715" lon="11.3266696"><ele>408.0</ele><time>2026-04-05T10:26:20.796Z</time></trkpt><trkpt lat="43.8273813" lon="11.3268089"><ele>408.0</ele><time>2026-04-05T10:26:21.798Z</time></trkpt><trkpt lat="43.8274827" lon="11.3269329"><ele>408.0</ele><time>2026-04-05T10:26:22.797Z</time></trkpt><trkpt lat="43.827574" lon="11.3270437"><ele>407.75</ele><time>2026-04-05T10:26:23.796Z</time></trkpt><trkpt lat="43.8276611" lon="11.3271514"><ele>407.5</ele><time>2026-04-05T10:26:24.798Z</time></trkpt><trkpt lat="43.8277493" lon="11.3272618"><ele>407.25</ele><time>2026-04-05T10:26:25.796Z</time></trkpt><trkpt lat="43.8278429" lon="11.3273808"><ele>407.0</ele><time>2026-04-05T10:26:26.797Z</time></trkpt><trkpt lat="43.8279479" lon="11.3275079"><ele>407.0</ele><time>2026-04-05T10:26:27.797Z</time></trkpt><trkpt lat="43.8280502" lon="11.3276239"><ele>407.0</ele><time>2026-04-05T10:26:28.796Z</time></trkpt><trkpt lat="43.8281564" lon="11.3277237"><ele>407.0</ele><time>2026-04-05T10:26:29.797Z</time></trkpt><trkpt lat="43.8282767" lon="11.3278014"><ele>407.0</ele><time>2026-04-05T10:26:30.796Z</time></trkpt><trkpt lat="43.8284207" lon="11.3278531"><ele>405.0</ele><time>2026-04-05T10:26:31.797Z</time></trkpt><trkpt lat="43.8285768" lon="11.3278781"><ele>403.0</ele><time>2026-04-05T10:26:32.797Z</time></trkpt><trkpt lat="43.8287367" lon="11.3278507"><ele>401.0</ele><time>2026-04-05T10:26:33.797Z</time></trkpt><trkpt lat="43.8288924" lon="11.3278066"><ele>401.0</ele><time>2026-04-05T10:26:34.797Z</time></trkpt><trkpt lat="43.8290338" lon="11.3277714"><ele>401.0</ele><time>2026-04-05T10:26:35.797Z</time></trkpt><trkpt lat="43.8291828" lon="11.3277329"><ele>401.0</ele><time>2026-04-05T10:26:36.797Z</time></trkpt><trkpt lat="43.8293275" lon="11.3277023"><ele>401.0</ele><time>2026-04-05T10:26:37.797Z</time></trkpt><trkpt lat="43.8294687" lon="11.3276636"><ele>402.25</ele><time>2026-04-05T10:26:38.796Z</time></trkpt><trkpt lat="43.8295984" lon="11.3276362"><ele>403.5</ele><time>2026-04-05T10:26:39.796Z</time></trkpt><trkpt lat="43.8297251" lon="11.3276094"><ele>404.75</ele><time>2026-04-05T10:26:40.796Z</time></trkpt><trkpt lat="43.8298393" lon="11.3275866"><ele>406.0</ele><time>2026-04-05T10:26:41.796Z</time></trkpt><trkpt lat="43.8299535" lon="11.3275673"><ele>406.0</ele><time>2026-04-05T10:26:42.797Z</time></trkpt><trkpt lat="43.8300635" lon="11.3275695"><ele>406.0</ele><time>2026-04-05T10:26:43.797Z</time></trkpt><trkpt lat="43.8301686" lon="11.3276192"><ele>406.0</ele><time>2026-04-05T10:26:44.797Z</time></trkpt><trkpt lat="43.8302645" lon="11.3277037"><ele>406.0</ele><time>2026-04-05T10:26:45.798Z</time></trkpt><trkpt lat="43.8303527" lon="11.3278314"><ele>405.5</ele><time>2026-04-05T10:26:46.796Z</time></trkpt><trkpt lat="43.8304249" lon="11.3280018"><ele>405.0</ele><time>2026-04-05T10:26:47.797Z</time></trkpt><trkpt lat="43.8304927" lon="11.328169"><ele>404.5</ele><time>2026-04-05T10:26:48.796Z</time></trkpt><trkpt lat="43.8305516" lon="11.3283185"><ele>404.0</ele><time>2026-04-05T10:26:49.797Z</time></trkpt><trkpt lat="43.8306169" lon="11.328464"><ele>404.0</ele><time>2026-04-05T10:26:50.795Z</time></trkpt><trkpt lat="43.8307136" lon="11.3285623"><ele>404.0</ele><time>2026-04-05T10:26:51.798Z</time></trkpt><trkpt lat="43.8308101" lon="11.3286549"><ele>404.0</ele><time>2026-04-05T10:26:52.797Z</time></trkpt><trkpt lat="43.8309446" lon="11.3286986"><ele>404.0</ele><time>2026-04-05T10:26:53.796Z</time></trkpt><trkpt lat="43.8310762" lon="11.3287302"><ele>404.75</ele><time>2026-04-05T10:26:54.796Z</time></trkpt><trkpt lat="43.8311877" lon="11.3287845"><ele>405.5</ele><time>2026-04-05T10:26:55.797Z</time></trkpt><trkpt lat="43.8312821" lon="11.3288733"><ele>406.25</ele><time>2026-04-05T10:26:56.797Z</time></trkpt><trkpt lat="43.8313725" lon="11.3289916"><ele>407.0</ele><time>2026-04-05T10:26:57.796Z</time></trkpt><trkpt lat="43.8314619" lon="11.329101"><ele>407.0</ele><time>2026-04-05T10:26:58.796Z</time></trkpt><trkpt lat="43.8315466" lon="11.3292052"><ele>407.0</ele><time>2026-04-05T10:26:59.797Z</time></trkpt><trkpt lat="43.8316305" lon="11.3293046"><ele>407.0</ele><time>2026-04-05T10:27:00.797Z</time></trkpt><trkpt lat="43.8317159" lon="11.3294227"><ele>407.0</ele><time>2026-04-05T10:27:01.796Z</time></trkpt><trkpt lat="43.8317963" lon="11.3295498"><ele>406.25</ele><time>2026-04-05T10:27:02.796Z</time></trkpt><trkpt lat="43.831868" lon="11.3296913"><ele>405.5</ele><time>2026-04-05T10:27:03.797Z</time></trkpt><trkpt lat="43.831919" lon="11.3298286"><ele>404.75</ele><time>2026-04-05T10:27:04.796Z</time></trkpt><trkpt lat="43.8319795" lon="11.329967"><ele>404.0</ele><time>2026-04-05T10:27:05.798Z</time></trkpt><trkpt lat="43.832058" lon="11.3301051"><ele>404.0</ele><time>2026-04-05T10:27:06.796Z</time></trkpt><trkpt lat="43.8321548" lon="11.3302108"><ele>404.0</ele><time>2026-04-05T10:27:07.797Z</time></trkpt><trkpt lat="43.832257" lon="11.3303007"><ele>404.0</ele><time>2026-04-05T10:27:08.795Z</time></trkpt><trkpt lat="43.8323933" lon="11.3303443"><ele>404.0</ele><time>2026-04-05T10:27:09.796Z</time></trkpt><trkpt lat="43.8325244" lon="11.3304043"><ele>401.75</ele><time>2026-04-05T10:27:10.796Z</time></trkpt><trkpt lat="43.8326482" lon="11.3304574"><ele>399.5</ele><time>2026-04-05T10:27:11.798Z</time></trkpt><trkpt lat="43.8327505" lon="11.3305068"><ele>397.25</ele><time>2026-04-05T10:27:12.797Z</time></trkpt><trkpt lat="43.8328509" lon="11.3305554"><ele>395.0</ele><time>2026-04-05T10:27:13.796Z</time></trkpt><trkpt lat="43.8329546" lon="11.3306007"><ele>401.0</ele><time>2026-04-05T10:27:14.797Z</time></trkpt><trkpt lat="43.8330555" lon="11.3306518"><ele>407.0</ele><time>2026-04-05T10:27:15.797Z</time></trkpt><trkpt lat="43.8331652" lon="11.3306999"><ele>413.0</ele><time>2026-04-05T10:27:16.797Z</time></trkpt><trkpt lat="43.8332707" lon="11.3307675"><ele>419.0</ele><time>2026-04-05T10:27:17.796Z</time></trkpt><trkpt lat="43.8333691" lon="11.330842"><ele>419.0</ele><time>2026-04-05T10:27:18.796Z</time></trkpt><trkpt lat="43.8334613" lon="11.3309502"><ele>419.0</ele><time>2026-04-05T10:27:19.796Z</time></trkpt><trkpt lat="43.8335674" lon="11.3310765"><ele>419.0</ele><time>2026-04-05T10:27:20.795Z</time></trkpt><trkpt lat="43.8336817" lon="11.3312081"><ele>419.0</ele><time>2026-04-05T10:27:21.796Z</time></trkpt><trkpt lat="43.8337918" lon="11.331335"><ele>420.5</ele><time>2026-04-05T10:27:22.796Z</time></trkpt><trkpt lat="43.8338963" lon="11.331455"><ele>422.0</ele><time>2026-04-05T10:27:23.798Z</time></trkpt><trkpt lat="43.8339835" lon="11.3315581"><ele>423.5</ele><time>2026-04-05T10:27:24.796Z</time></trkpt><trkpt lat="43.834072" lon="11.3316459"><ele>425.0</ele><time>2026-04-05T10:27:25.797Z</time></trkpt><trkpt lat="43.8341595" lon="11.3317202"><ele>425.0</ele><time>2026-04-05T10:27:26.798Z</time></trkpt><trkpt lat="43.8342575" lon="11.3317805"><ele>425.0</ele><time>2026-04-05T10:27:27.796Z</time></trkpt><trkpt lat="43.8343642" lon="11.3318228"><ele>425.0</ele><time>2026-04-05T10:27:28.796Z</time></trkpt><trkpt lat="43.8344928" lon="11.3318672"><ele>425.0</ele><time>2026-04-05T10:27:29.796Z</time></trkpt><trkpt lat="43.8346092" lon="11.3319042"><ele>425.0</ele><time>2026-04-05T10:27:30.797Z</time></trkpt><trkpt lat="43.8347169" lon="11.3319368"><ele>425.0</ele><time>2026-04-05T10:27:31.796Z</time></trkpt><trkpt lat="43.8348166" lon="11.3319516"><ele>425.0</ele><time>2026-04-05T10:27:32.796Z</time></trkpt><trkpt lat="43.8349135" lon="11.3319564"><ele>425.0</ele><time>2026-04-05T10:27:33.796Z</time></trkpt><trkpt lat="43.8350242" lon="11.3319122"><ele>425.0</ele><time>2026-04-05T10:27:34.798Z</time></trkpt><trkpt lat="43.8351415" lon="11.3318351"><ele>425.0</ele><time>2026-04-05T10:27:35.796Z</time></trkpt><trkpt lat="43.8352543" lon="11.3317363"><ele>425.0</ele><time>2026-04-05T10:27:36.796Z</time></trkpt><trkpt lat="43.835369" lon="11.3316495"><ele>425.0</ele><time>2026-04-05T10:27:37.797Z</time></trkpt><trkpt lat="43.8354831" lon="11.3315934"><ele>425.0</ele><time>2026-04-05T10:27:38.797Z</time></trkpt><trkpt lat="43.8356028" lon="11.3315674"><ele>425.0</ele><time>2026-04-05T10:27:39.797Z</time></trkpt><trkpt lat="43.8357182" lon="11.3315772"><ele>425.0</ele><time>2026-04-05T10:27:40.797Z</time></trkpt><trkpt lat="43.8358367" lon="11.3316148"><ele>425.0</ele><time>2026-04-05T10:27:41.796Z</time></trkpt><trkpt lat="43.8359467" lon="11.3316857"><ele>425.0</ele><time>2026-04-05T10:27:42.796Z</time></trkpt><trkpt lat="43.8360551" lon="11.331792"><ele>421.5</ele><time>2026-04-05T10:27:43.797Z</time></trkpt><trkpt lat="43.8361582" lon="11.33191"><ele>418.0</ele><time>2026-04-05T10:27:44.798Z</time></trkpt><trkpt lat="43.8362701" lon="11.3320202"><ele>414.5</ele><time>2026-04-05T10:27:45.797Z</time></trkpt><trkpt lat="43.8363928" lon="11.3321212"><ele>411.0</ele><time>2026-04-05T10:27:46.796Z</time></trkpt><trkpt lat="43.8365176" lon="11.3322059"><ele>412.8</ele><time>2026-04-05T10:27:47.795Z</time></trkpt><trkpt lat="43.8366326" lon="11.3322774"><ele>414.6</ele><time>2026-04-05T10:27:48.796Z</time></trkpt><trkpt lat="43.8367428" lon="11.3323399"><ele>416.4</ele><time>2026-04-05T10:27:49.797Z</time></trkpt><trkpt lat="43.8368321" lon="11.3323978"><ele>418.2</ele><time>2026-04-05T10:27:50.797Z</time></trkpt><trkpt lat="43.8369129" lon="11.3324555"><ele>420.0</ele><time>2026-04-05T10:27:51.796Z</time></trkpt><trkpt lat="43.836996" lon="11.3325042"><ele>420.0</ele><time>2026-04-05T10:27:52.798Z</time></trkpt><trkpt lat="43.8370919" lon="11.3325623"><ele>420.0</ele><time>2026-04-05T10:27:53.798Z</time></trkpt><trkpt lat="43.8371954" lon="11.3326258"><ele>420.0</ele><time>2026-04-05T10:27:54.797Z</time></trkpt><trkpt lat="43.8373047" lon="11.332714"><ele>420.0</ele><time>2026-04-05T10:27:55.795Z</time></trkpt><trkpt lat="43.8374147" lon="11.3328169"><ele>420.0</ele><time>2026-04-05T10:27:56.795Z</time></trkpt><trkpt lat="43.8375175" lon="11.332912"><ele>420.0</ele><time>2026-04-05T10:27:57.796Z</time></trkpt><trkpt lat="43.8376197" lon="11.3330044"><ele>420.0</ele><time>2026-04-05T10:27:58.796Z</time></trkpt><trkpt lat="43.8377309" lon="11.3331027"><ele>420.0</ele><time>2026-04-05T10:27:59.797Z</time></trkpt><trkpt lat="43.8378427" lon="11.3332067"><ele>421.0</ele><time>2026-04-05T10:28:00.796Z</time></trkpt><trkpt lat="43.8379581" lon="11.3333098"><ele>422.0</ele><time>2026-04-05T10:28:01.797Z</time></trkpt><trkpt lat="43.8380764" lon="11.3334152"><ele>423.0</ele><time>2026-04-05T10:28:02.797Z</time></trkpt><trkpt lat="43.838198" lon="11.3335184"><ele>424.0</ele><time>2026-04-05T10:28:03.795Z</time></trkpt><trkpt lat="43.8383119" lon="11.333608"><ele>424.0</ele><time>2026-04-05T10:28:04.795Z</time></trkpt><trkpt lat="43.8384257" lon="11.3336834"><ele>424.0</ele><time>2026-04-05T10:28:05.796Z</time></trkpt><trkpt lat="43.8385435" lon="11.3337544"><ele>424.0</ele><time>2026-04-05T10:28:06.796Z</time></trkpt><trkpt lat="43.8386595" lon="11.3338106"><ele>424.0</ele><time>2026-04-05T10:28:07.796Z</time></trkpt><trkpt lat="43.8387691" lon="11.3338605"><ele>426.0</ele><time>2026-04-05T10:28:08.796Z</time></trkpt><trkpt lat="43.8388774" lon="11.3339102"><ele>428.0</ele><time>2026-04-05T10:28:09.796Z</time></trkpt><trkpt lat="43.8389857" lon="11.3339637"><ele>430.0</ele><time>2026-04-05T10:28:10.796Z</time></trkpt><trkpt lat="43.8390955" lon="11.3340207"><ele>432.0</ele><time>2026-04-05T10:28:11.795Z</time></trkpt><trkpt lat="43.8392051" lon="11.3340767"><ele>432.5</ele><time>2026-04-05T10:28:12.796Z</time></trkpt><trkpt lat="43.8393167" lon="11.334136"><ele>433.0</ele><time>2026-04-05T10:28:13.796Z</time></trkpt><trkpt lat="43.83942" lon="11.3341941"><ele>433.5</ele><time>2026-04-05T10:28:14.798Z</time></trkpt><trkpt lat="43.8395244" lon="11.3342443"><ele>434.0</ele><time>2026-04-05T10:28:15.796Z</time></trkpt><trkpt lat="43.839634" lon="11.3342958"><ele>434.0</ele><time>2026-04-05T10:28:16.796Z</time></trkpt><trkpt lat="43.8397577" lon="11.3343628"><ele>434.0</ele><time>2026-04-05T10:28:17.796Z</time></trkpt><trkpt lat="43.8398843" lon="11.3344473"><ele>434.0</ele><time>2026-04-05T10:28:18.796Z</time></trkpt><trkpt lat="43.8400141" lon="11.3345417"><ele>434.0</ele><time>2026-04-05T10:28:19.796Z</time></trkpt><trkpt lat="43.8401366" lon="11.3346313"><ele>434.0</ele><time>2026-04-05T10:28:20.798Z</time></trkpt><trkpt lat="43.840245" lon="11.3347099"><ele>434.0</ele><time>2026-04-05T10:28:21.795Z</time></trkpt><trkpt lat="43.8403389" lon="11.334783"><ele>434.0</ele><time>2026-04-05T10:28:22.796Z</time></trkpt><trkpt lat="43.840424" lon="11.3348471"><ele>434.0</ele><time>2026-04-05T10:28:23.796Z</time></trkpt><trkpt lat="43.8405003" lon="11.3349023"><ele>434.0</ele><time>2026-04-05T10:28:24.797Z</time></trkpt><trkpt lat="43.8405788" lon="11.3349625"><ele>433.0</ele><time>2026-04-05T10:28:25.797Z</time></trkpt><trkpt lat="43.8406624" lon="11.3350245"><ele>432.0</ele><time>2026-04-05T10:28:26.796Z</time></trkpt><trkpt lat="43.8407554" lon="11.3350995"><ele>431.0</ele><time>2026-04-05T10:28:27.798Z</time></trkpt><trkpt lat="43.8408478" lon="11.3351796"><ele>430.0</ele><time>2026-04-05T10:28:28.796Z</time></trkpt><trkpt lat="43.8409375" lon="11.3352599"><ele>429.0</ele><time>2026-04-05T10:28:29.797Z</time></trkpt><trkpt lat="43.8410156" lon="11.3353664"><ele>429.0</ele><time>2026-04-05T10:28:30.796Z</time></trkpt><trkpt lat="43.8410656" lon="11.3355202"><ele>429.0</ele><time>2026-04-05T10:28:31.797Z</time></trkpt><trkpt lat="43.8411123" lon="11.3356819"><ele>429.0</ele><time>2026-04-05T10:28:32.797Z</time></trkpt><trkpt lat="43.8411488" lon="11.3358392"><ele>429.0</ele><time>2026-04-05T10:28:33.797Z</time></trkpt><trkpt lat="43.8411951" lon="11.3359692"><ele>430.0</ele><time>2026-04-05T10:28:34.797Z</time></trkpt><trkpt lat="43.8412429" lon="11.3360944"><ele>431.0</ele><time>2026-04-05T10:28:35.797Z</time></trkpt><trkpt lat="43.8412927" lon="11.3362229"><ele>432.0</ele><time>2026-04-05T10:28:36.796Z</time></trkpt><trkpt lat="43.8413507" lon="11.3363543"><ele>433.0</ele><time>2026-04-05T10:28:37.796Z</time></trkpt><trkpt lat="43.8414252" lon="11.3364791"><ele>434.0</ele><time>2026-04-05T10:28:38.797Z</time></trkpt><trkpt lat="43.8415055" lon="11.3366048"><ele>433.75</ele><time>2026-04-05T10:28:39.797Z</time></trkpt><trkpt lat="43.841583" lon="11.3367326"><ele>433.5</ele><time>2026-04-05T10:28:40.797Z</time></trkpt><trkpt lat="43.8416685" lon="11.3368606"><ele>433.25</ele><time>2026-04-05T10:28:41.797Z</time></trkpt><trkpt lat="43.8417567" lon="11.3369803"><ele>433.0</ele><time>2026-04-05T10:28:42.797Z</time></trkpt><trkpt lat="43.8418524" lon="11.3370975"><ele>433.0</ele><time>2026-04-05T10:28:43.797Z</time></trkpt><trkpt lat="43.8419515" lon="11.3372007"><ele>433.0</ele><time>2026-04-05T10:28:44.796Z</time></trkpt><trkpt lat="43.8420431" lon="11.3372978"><ele>433.0</ele><time>2026-04-05T10:28:45.797Z</time></trkpt><trkpt lat="43.8421367" lon="11.3373766"><ele>433.0</ele><time>2026-04-05T10:28:46.796Z</time></trkpt><trkpt lat="43.8422374" lon="11.3374508"><ele>435.5</ele><time>2026-04-05T10:28:47.797Z</time></trkpt><trkpt lat="43.8423488" lon="11.3375219"><ele>438.0</ele><time>2026-04-05T10:28:48.796Z</time></trkpt><trkpt lat="43.8424721" lon="11.3375916"><ele>440.5</ele><time>2026-04-05T10:28:49.796Z</time></trkpt><trkpt lat="43.8426092" lon="11.3376703"><ele>443.0</ele><time>2026-04-05T10:28:50.795Z</time></trkpt><trkpt lat="43.8427313" lon="11.3377442"><ele>443.0</ele><time>2026-04-05T10:28:51.797Z</time></trkpt><trkpt lat="43.842847" lon="11.3377981"><ele>443.0</ele><time>2026-04-05T10:28:52.796Z</time></trkpt><trkpt lat="43.8429679" lon="11.3378111"><ele>443.0</ele><time>2026-04-05T10:28:53.796Z</time></trkpt><trkpt lat="43.8430886" lon="11.3378064"><ele>443.0</ele><time>2026-04-05T10:28:54.797Z</time></trkpt><trkpt lat="43.8432054" lon="11.3377987"><ele>443.0</ele><time>2026-04-05T10:28:55.796Z</time></trkpt><trkpt lat="43.8433138" lon="11.3377898"><ele>442.99999999999994</ele><time>2026-04-05T10:28:56.796Z</time></trkpt><trkpt lat="43.8434267" lon="11.337802"><ele>442.99999999999994</ele><time>2026-04-05T10:28:57.796Z</time></trkpt><trkpt lat="43.8435415" lon="11.3378433"><ele>443.0</ele><time>2026-04-05T10:28:58.796Z</time></trkpt><trkpt lat="43.8436392" lon="11.3379027"><ele>443.0</ele><time>2026-04-05T10:28:59.796Z</time></trkpt><trkpt lat="43.8437318" lon="11.3379797"><ele>444.79999999999995</ele><time>2026-04-05T10:29:00.795Z</time></trkpt><trkpt lat="43.8438114" lon="11.3380645"><ele>446.59999999999997</ele><time>2026-04-05T10:29:01.797Z</time></trkpt><trkpt lat="43.8438837" lon="11.3381462"><ele>448.40000000000003</ele><time>2026-04-05T10:29:02.797Z</time></trkpt><trkpt lat="43.8439608" lon="11.3382279"><ele>450.20000000000005</ele><time>2026-04-05T10:29:03.796Z</time></trkpt><trkpt lat="43.8440336" lon="11.3382861"><ele>452.0</ele><time>2026-04-05T10:29:04.795Z</time></trkpt><trkpt lat="43.8441119" lon="11.338338"><ele>452.0</ele><time>2026-04-05T10:29:05.796Z</time></trkpt><trkpt lat="43.8442031" lon="11.3383792"><ele>452.00000000000006</ele><time>2026-04-05T10:29:06.796Z</time></trkpt><trkpt lat="43.8443121" lon="11.3383922"><ele>452.00000000000006</ele><time>2026-04-05T10:29:07.797Z</time></trkpt><trkpt lat="43.8444326" lon="11.3383903"><ele>452.0</ele><time>2026-04-05T10:29:08.797Z</time></trkpt><trkpt lat="43.844542" lon="11.3383879"><ele>452.0</ele><time>2026-04-05T10:29:09.797Z</time></trkpt><trkpt lat="43.8446533" lon="11.338379"><ele>452.75</ele><time>2026-04-05T10:29:10.796Z</time></trkpt><trkpt lat="43.8447693" lon="11.3383598"><ele>453.5</ele><time>2026-04-05T10:29:11.797Z</time></trkpt><trkpt lat="43.8448825" lon="11.3383369"><ele>454.25</ele><time>2026-04-05T10:29:12.797Z</time></trkpt><trkpt lat="43.8450032" lon="11.3383124"><ele>455.0</ele><time>2026-04-05T10:29:13.796Z</time></trkpt><trkpt lat="43.8451286" lon="11.3382758"><ele>456.0</ele><time>2026-04-05T10:29:14.796Z</time></trkpt><trkpt lat="43.8452521" lon="11.3382363"><ele>457.0</ele><time>2026-04-05T10:29:15.796Z</time></trkpt><trkpt lat="43.8453688" lon="11.3382039"><ele>458.0</ele><time>2026-04-05T10:29:16.797Z</time></trkpt><trkpt lat="43.8454704" lon="11.3381729"><ele>459.0</ele><time>2026-04-05T10:29:17.796Z</time></trkpt><trkpt lat="43.8455636" lon="11.3381277"><ele>460.0</ele><time>2026-04-05T10:29:18.796Z</time></trkpt><trkpt lat="43.8456607" lon="11.3380791"><ele>459.2</ele><time>2026-04-05T10:29:19.796Z</time></trkpt><trkpt lat="43.8457549" lon="11.3380192"><ele>458.4</ele><time>2026-04-05T10:29:20.797Z</time></trkpt><trkpt lat="43.8458433" lon="11.3379479"><ele>457.6</ele><time>2026-04-05T10:29:21.796Z</time></trkpt><trkpt lat="43.8459174" lon="11.337876"><ele>456.8</ele><time>2026-04-05T10:29:22.796Z</time></trkpt><trkpt lat="43.8460001" lon="11.3377986"><ele>456.0</ele><time>2026-04-05T10:29:23.796Z</time></trkpt><trkpt lat="43.846084" lon="11.3377205"><ele>456.0</ele><time>2026-04-05T10:29:24.797Z</time></trkpt><trkpt lat="43.8461725" lon="11.3376448"><ele>456.0</ele><time>2026-04-05T10:29:25.796Z</time></trkpt><trkpt lat="43.8462721" lon="11.3376048"><ele>456.0</ele><time>2026-04-05T10:29:26.796Z</time></trkpt><trkpt lat="43.8463727" lon="11.3375942"><ele>456.0</ele><time>2026-04-05T10:29:27.796Z</time></trkpt><trkpt lat="43.8464833" lon="11.3376068"><ele>456.0</ele><time>2026-04-05T10:29:28.797Z</time></trkpt><trkpt lat="43.8466086" lon="11.3376558"><ele>456.0</ele><time>2026-04-05T10:29:29.797Z</time></trkpt><trkpt lat="43.8467409" lon="11.3377175"><ele>456.0</ele><time>2026-04-05T10:29:30.796Z</time></trkpt><trkpt lat="43.8468788" lon="11.3377821"><ele>456.0</ele><time>2026-04-05T10:29:31.796Z</time></trkpt><trkpt lat="43.8470205" lon="11.3378488"><ele>456.0</ele><time>2026-04-05T10:29:32.798Z</time></trkpt><trkpt lat="43.8471677" lon="11.3379203"><ele>453.66666666666663</ele><time>2026-04-05T10:29:33.796Z</time></trkpt><trkpt lat="43.8473137" lon="11.3379926"><ele>451.3333333333333</ele><time>2026-04-05T10:29:34.799Z</time></trkpt><trkpt lat="43.8474586" lon="11.3380668"><ele>449.0</ele><time>2026-04-05T10:29:35.797Z</time></trkpt><trkpt lat="43.8476142" lon="11.3381451"><ele>452.66666666666663</ele><time>2026-04-05T10:29:36.795Z</time></trkpt><trkpt lat="43.8477645" lon="11.3382312"><ele>456.33333333333337</ele><time>2026-04-05T10:29:37.797Z</time></trkpt><trkpt lat="43.8479068" lon="11.3383108"><ele>460.0</ele><time>2026-04-05T10:29:38.796Z</time></trkpt><trkpt lat="43.8480453" lon="11.3383885"><ele>460.0</ele><time>2026-04-05T10:29:39.796Z</time></trkpt><trkpt lat="43.8481798" lon="11.3384673"><ele>460.0</ele><time>2026-04-05T10:29:40.796Z</time></trkpt><trkpt lat="43.8483152" lon="11.3385516"><ele>460.0</ele><time>2026-04-05T10:29:41.796Z</time></trkpt><trkpt lat="43.848444" lon="11.3386362"><ele>460.0</ele><time>2026-04-05T10:29:42.796Z</time></trkpt><trkpt lat="43.8485678" lon="11.3387437"><ele>460.0</ele><time>2026-04-05T10:29:43.797Z</time></trkpt><trkpt lat="43.848703" lon="11.3388715"><ele>460.0</ele><time>2026-04-05T10:29:44.796Z</time></trkpt><trkpt lat="43.8488416" lon="11.3389994"><ele>460.0</ele><time>2026-04-05T10:29:45.797Z</time></trkpt><trkpt lat="43.848975" lon="11.3391222"><ele>462.0</ele><time>2026-04-05T10:29:46.796Z</time></trkpt><trkpt lat="43.8490915" lon="11.3392347"><ele>464.0</ele><time>2026-04-05T10:29:47.796Z</time></trkpt><trkpt lat="43.8492056" lon="11.3393434"><ele>466.0</ele><time>2026-04-05T10:29:48.796Z</time></trkpt><trkpt lat="43.8493148" lon="11.3394495"><ele>468.0</ele><time>2026-04-05T10:29:49.796Z</time></trkpt><trkpt lat="43.8494151" lon="11.3395404"><ele>468.0</ele><time>2026-04-05T10:29:50.796Z</time></trkpt><trkpt lat="43.8495084" lon="11.339625"><ele>467.99999999999994</ele><time>2026-04-05T10:29:51.795Z</time></trkpt><trkpt lat="43.849594" lon="11.3397099"><ele>467.99999999999994</ele><time>2026-04-05T10:29:52.795Z</time></trkpt><trkpt lat="43.8496818" lon="11.3397928"><ele>468.0</ele><time>2026-04-05T10:29:53.797Z</time></trkpt><trkpt lat="43.849785" lon="11.3398649"><ele>468.0</ele><time>2026-04-05T10:29:54.795Z</time></trkpt><trkpt lat="43.8498912" lon="11.3399142"><ele>469.25</ele><time>2026-04-05T10:29:55.797Z</time></trkpt><trkpt lat="43.8500035" lon="11.3399211"><ele>470.5</ele><time>2026-04-05T10:29:56.795Z</time></trkpt><trkpt lat="43.8501186" lon="11.3398968"><ele>471.75</ele><time>2026-04-05T10:29:57.796Z</time></trkpt><trkpt lat="43.8502379" lon="11.33985"><ele>473.0</ele><time>2026-04-05T10:29:58.796Z</time></trkpt><trkpt lat="43.8503508" lon="11.3397778"><ele>472.0</ele><time>2026-04-05T10:29:59.796Z</time></trkpt><trkpt lat="43.8504557" lon="11.3397147"><ele>470.99999999999994</ele><time>2026-04-05T10:30:00.795Z</time></trkpt><trkpt lat="43.8505505" lon="11.339647"><ele>469.99999999999994</ele><time>2026-04-05T10:30:01.796Z</time></trkpt><trkpt lat="43.8506409" lon="11.3395857"><ele>469.0</ele><time>2026-04-05T10:30:02.797Z</time></trkpt><trkpt lat="43.8507228" lon="11.3395301"><ele>468.0</ele><time>2026-04-05T10:30:03.797Z</time></trkpt><trkpt lat="43.8507966" lon="11.3394809"><ele>468.0</ele><time>2026-04-05T10:30:04.797Z</time></trkpt><trkpt lat="43.8508865" lon="11.3394501"><ele>467.99999999999994</ele><time>2026-04-05T10:30:05.796Z</time></trkpt><trkpt lat="43.8509892" lon="11.3394324"><ele>467.99999999999994</ele><time>2026-04-05T10:30:06.795Z</time></trkpt><trkpt lat="43.8510913" lon="11.3394425"><ele>468.0</ele><time>2026-04-05T10:30:07.796Z</time></trkpt><trkpt lat="43.8511871" lon="11.3394693"><ele>468.0</ele><time>2026-04-05T10:30:08.797Z</time></trkpt><trkpt lat="43.8512802" lon="11.3394963"><ele>467.2</ele><time>2026-04-05T10:30:09.796Z</time></trkpt><trkpt lat="43.8513534" lon="11.3395189"><ele>466.4</ele><time>2026-04-05T10:30:10.796Z</time></trkpt><trkpt lat="43.8514327" lon="11.3395497"><ele>465.59999999999997</ele><time>2026-04-05T10:30:11.797Z</time></trkpt><trkpt lat="43.8515236" lon="11.3395925"><ele>464.79999999999995</ele><time>2026-04-05T10:30:12.796Z</time></trkpt><trkpt lat="43.8516271" lon="11.3396586"><ele>464.0</ele><time>2026-04-05T10:30:13.796Z</time></trkpt><trkpt lat="43.8517498" lon="11.3397469"><ele>464.75</ele><time>2026-04-05T10:30:14.796Z</time></trkpt><trkpt lat="43.8518729" lon="11.3398432"><ele>465.5</ele><time>2026-04-05T10:30:15.796Z</time></trkpt><trkpt lat="43.8519792" lon="11.3399396"><ele>466.25</ele><time>2026-04-05T10:30:16.796Z</time></trkpt><trkpt lat="43.8520831" lon="11.3400345"><ele>467.0</ele><time>2026-04-05T10:30:17.796Z</time></trkpt><trkpt lat="43.8521768" lon="11.3401345"><ele>467.0</ele><time>2026-04-05T10:30:18.796Z</time></trkpt><trkpt lat="43.8522691" lon="11.3402621"><ele>467.0</ele><time>2026-04-05T10:30:19.796Z</time></trkpt><trkpt lat="43.8523636" lon="11.3403876"><ele>467.0</ele><time>2026-04-05T10:30:20.796Z</time></trkpt><trkpt lat="43.8524643" lon="11.3405372"><ele>467.0</ele><time>2026-04-05T10:30:21.798Z</time></trkpt><trkpt lat="43.8525661" lon="11.3406794"><ele>467.0</ele><time>2026-04-05T10:30:22.796Z</time></trkpt><trkpt lat="43.8526703" lon="11.3408105"><ele>467.0</ele><time>2026-04-05T10:30:23.797Z</time></trkpt><trkpt lat="43.8527804" lon="11.3409213"><ele>467.0</ele><time>2026-04-05T10:30:24.797Z</time></trkpt><trkpt lat="43.8529054" lon="11.3409944"><ele>467.0</ele><time>2026-04-05T10:30:25.796Z</time></trkpt><trkpt lat="43.8530452" lon="11.3410374"><ele>467.0</ele><time>2026-04-05T10:30:26.797Z</time></trkpt><trkpt lat="43.8531912" lon="11.341056"><ele>467.0</ele><time>2026-04-05T10:30:27.796Z</time></trkpt><trkpt lat="43.8533331" lon="11.3410388"><ele>467.0</ele><time>2026-04-05T10:30:28.796Z</time></trkpt><trkpt lat="43.8534783" lon="11.3410056"><ele>467.0</ele><time>2026-04-05T10:30:29.797Z</time></trkpt><trkpt lat="43.8536116" lon="11.3409735"><ele>467.25</ele><time>2026-04-05T10:30:30.796Z</time></trkpt><trkpt lat="43.8537392" lon="11.3409469"><ele>467.5</ele><time>2026-04-05T10:30:31.796Z</time></trkpt><trkpt lat="43.8538639" lon="11.3409308"><ele>467.75</ele><time>2026-04-05T10:30:32.796Z</time></trkpt><trkpt lat="43.8539958" lon="11.3409475"><ele>468.0</ele><time>2026-04-05T10:30:33.796Z</time></trkpt><trkpt lat="43.8541263" lon="11.3409856"><ele>468.0</ele><time>2026-04-05T10:30:34.797Z</time></trkpt><trkpt lat="43.8542488" lon="11.3410466"><ele>468.0</ele><time>2026-04-05T10:30:35.797Z</time></trkpt><trkpt lat="43.8543669" lon="11.3411152"><ele>468.0</ele><time>2026-04-05T10:30:36.796Z</time></trkpt><trkpt lat="43.8544956" lon="11.34118"><ele>468.0</ele><time>2026-04-05T10:30:37.796Z</time></trkpt><trkpt lat="43.8546141" lon="11.3412418"><ele>466.75</ele><time>2026-04-05T10:30:38.797Z</time></trkpt><trkpt lat="43.8547296" lon="11.3412871"><ele>465.5</ele><time>2026-04-05T10:30:39.796Z</time></trkpt><trkpt lat="43.8548396" lon="11.3413285"><ele>464.25</ele><time>2026-04-05T10:30:40.796Z</time></trkpt><trkpt lat="43.8549549" lon="11.3413766"><ele>463.0</ele><time>2026-04-05T10:30:41.796Z</time></trkpt><trkpt lat="43.8550861" lon="11.3414353"><ele>464.5</ele><time>2026-04-05T10:30:42.796Z</time></trkpt><trkpt lat="43.8552132" lon="11.3414899"><ele>466.0</ele><time>2026-04-05T10:30:43.796Z</time></trkpt><trkpt lat="43.8553351" lon="11.3415542"><ele>467.5</ele><time>2026-04-05T10:30:44.797Z</time></trkpt><trkpt lat="43.8554477" lon="11.3416493"><ele>469.0</ele><time>2026-04-05T10:30:45.796Z</time></trkpt><trkpt lat="43.8555632" lon="11.3417794"><ele>469.0</ele><time>2026-04-05T10:30:46.795Z</time></trkpt><trkpt lat="43.8556699" lon="11.3419302"><ele>469.0</ele><time>2026-04-05T10:30:47.796Z</time></trkpt><trkpt lat="43.8557628" lon="11.3420752"><ele>469.0</ele><time>2026-04-05T10:30:48.796Z</time></trkpt><trkpt lat="43.8558419" lon="11.3422059"><ele>469.0</ele><time>2026-04-05T10:30:49.797Z</time></trkpt><trkpt lat="43.8559142" lon="11.3423291"><ele>470.0</ele><time>2026-04-05T10:30:50.796Z</time></trkpt><trkpt lat="43.8559904" lon="11.3424437"><ele>471.0</ele><time>2026-04-05T10:30:51.796Z</time></trkpt><trkpt lat="43.8560769" lon="11.3425369"><ele>472.0</ele><time>2026-04-05T10:30:52.796Z</time></trkpt><trkpt lat="43.8561704" lon="11.3426174"><ele>473.0</ele><time>2026-04-05T10:30:53.797Z</time></trkpt><trkpt lat="43.8562814" lon="11.3426809"><ele>473.0</ele><time>2026-04-05T10:30:54.796Z</time></trkpt><trkpt lat="43.8564029" lon="11.3427202"><ele>473.0</ele><time>2026-04-05T10:30:55.796Z</time></trkpt><trkpt lat="43.856522" lon="11.3427376"><ele>473.0</ele><time>2026-04-05T10:30:56.796Z</time></trkpt><trkpt lat="43.8566462" lon="11.3427343"><ele>473.0</ele><time>2026-04-05T10:30:57.796Z</time></trkpt><trkpt lat="43.8567728" lon="11.3427164"><ele>473.5</ele><time>2026-04-05T10:30:58.797Z</time></trkpt><trkpt lat="43.8568994" lon="11.3426813"><ele>474.0</ele><time>2026-04-05T10:30:59.797Z</time></trkpt><trkpt lat="43.8570297" lon="11.3426485"><ele>474.5</ele><time>2026-04-05T10:31:00.797Z</time></trkpt><trkpt lat="43.857158" lon="11.3426121"><ele>475.0</ele><time>2026-04-05T10:31:01.797Z</time></trkpt><trkpt lat="43.8572789" lon="11.3425855"><ele>475.0</ele><time>2026-04-05T10:31:02.796Z</time></trkpt><trkpt lat="43.8574035" lon="11.3425538"><ele>475.0</ele><time>2026-04-05T10:31:03.796Z</time></trkpt><trkpt lat="43.8575252" lon="11.3425273"><ele>475.0</ele><time>2026-04-05T10:31:04.796Z</time></trkpt><trkpt lat="43.8576483" lon="11.3425252"><ele>475.0</ele><time>2026-04-05T10:31:05.796Z</time></trkpt><trkpt lat="43.8577714" lon="11.3425612"><ele>474.5</ele><time>2026-04-05T10:31:06.796Z</time></trkpt><trkpt lat="43.8578884" lon="11.3426178"><ele>474.0</ele><time>2026-04-05T10:31:07.796Z</time></trkpt><trkpt lat="43.8579967" lon="11.3427021"><ele>473.5</ele><time>2026-04-05T10:31:08.797Z</time></trkpt><trkpt lat="43.8580872" lon="11.3427982"><ele>473.0</ele><time>2026-04-05T10:31:09.797Z</time></trkpt><trkpt lat="43.858163" lon="11.3428914"><ele>473.0</ele><time>2026-04-05T10:31:10.796Z</time></trkpt><trkpt lat="43.8582401" lon="11.3429935"><ele>472.99999999999994</ele><time>2026-04-05T10:31:11.796Z</time></trkpt><trkpt lat="43.8583161" lon="11.3430869"><ele>472.99999999999994</ele><time>2026-04-05T10:31:12.796Z</time></trkpt><trkpt lat="43.8583897" lon="11.3431858"><ele>473.0</ele><time>2026-04-05T10:31:13.796Z</time></trkpt><trkpt lat="43.8584604" lon="11.343272"><ele>473.0</ele><time>2026-04-05T10:31:14.796Z</time></trkpt><trkpt lat="43.8585459" lon="11.3433324"><ele>475.16666666666663</ele><time>2026-04-05T10:31:15.795Z</time></trkpt><trkpt lat="43.858633" lon="11.3433698"><ele>477.3333333333333</ele><time>2026-04-05T10:31:16.796Z</time></trkpt><trkpt lat="43.8587241" lon="11.3433895"><ele>479.5</ele><time>2026-04-05T10:31:17.796Z</time></trkpt><trkpt lat="43.8588135" lon="11.3433953"><ele>481.66666666666663</ele><time>2026-04-05T10:31:18.797Z</time></trkpt><trkpt lat="43.858898" lon="11.3433871"><ele>483.8333333333333</ele><time>2026-04-05T10:31:19.796Z</time></trkpt><trkpt lat="43.8589774" lon="11.3433255"><ele>486.0</ele><time>2026-04-05T10:31:20.796Z</time></trkpt><trkpt lat="43.8590631" lon="11.3432368"><ele>486.0</ele><time>2026-04-05T10:31:21.797Z</time></trkpt><trkpt lat="43.8591497" lon="11.3431511"><ele>486.0</ele><time>2026-04-05T10:31:22.795Z</time></trkpt><trkpt lat="43.8592356" lon="11.3430564"><ele>486.0</ele><time>2026-04-05T10:31:23.796Z</time></trkpt><trkpt lat="43.8593346" lon="11.3429489"><ele>486.0</ele><time>2026-04-05T10:31:24.797Z</time></trkpt><trkpt lat="43.8594357" lon="11.342833"><ele>486.5</ele><time>2026-04-05T10:31:25.796Z</time></trkpt><trkpt lat="43.8595364" lon="11.3427123"><ele>487.0</ele><time>2026-04-05T10:31:26.795Z</time></trkpt><trkpt lat="43.8596385" lon="11.3425967"><ele>487.5</ele><time>2026-04-05T10:31:27.797Z</time></trkpt><trkpt lat="43.8597294" lon="11.3424898"><ele>488.0</ele><time>2026-04-05T10:31:28.797Z</time></trkpt><trkpt lat="43.8598206" lon="11.3423827"><ele>488.0</ele><time>2026-04-05T10:31:29.797Z</time></trkpt><trkpt lat="43.8599076" lon="11.3422808"><ele>487.99999999999994</ele><time>2026-04-05T10:31:30.796Z</time></trkpt><trkpt lat="43.8599774" lon="11.342199"><ele>487.99999999999994</ele><time>2026-04-05T10:31:31.795Z</time></trkpt><trkpt lat="43.8600648" lon="11.3421158"><ele>488.0</ele><time>2026-04-05T10:31:32.797Z</time></trkpt><trkpt lat="43.8601666" lon="11.3420392"><ele>488.0</ele><time>2026-04-05T10:31:33.796Z</time></trkpt><trkpt lat="43.8602711" lon="11.3419682"><ele>488.75</ele><time>2026-04-05T10:31:34.795Z</time></trkpt><trkpt lat="43.8603761" lon="11.3418982"><ele>489.5</ele><time>2026-04-05T10:31:35.796Z</time></trkpt><trkpt lat="43.8604859" lon="11.3418193"><ele>490.25</ele><time>2026-04-05T10:31:36.795Z</time></trkpt><trkpt lat="43.8605962" lon="11.3417432"><ele>491.0</ele><time>2026-04-05T10:31:37.796Z</time></trkpt><trkpt lat="43.8607106" lon="11.3416586"><ele>491.0</ele><time>2026-04-05T10:31:38.796Z</time></trkpt><trkpt lat="43.8608197" lon="11.3415682"><ele>491.0</ele><time>2026-04-05T10:31:39.796Z</time></trkpt><trkpt lat="43.8609152" lon="11.3414713"><ele>491.0</ele><time>2026-04-05T10:31:40.796Z</time></trkpt><trkpt lat="43.8610249" lon="11.3413778"><ele>491.0</ele><time>2026-04-05T10:31:41.797Z</time></trkpt><trkpt lat="43.8611419" lon="11.3412949"><ele>491.0</ele><time>2026-04-05T10:31:42.797Z</time></trkpt><trkpt lat="43.8612748" lon="11.3412357"><ele>491.0</ele><time>2026-04-05T10:31:43.795Z</time></trkpt><trkpt lat="43.8614058" lon="11.3411968"><ele>491.0</ele><time>2026-04-05T10:31:44.796Z</time></trkpt><trkpt lat="43.8615271" lon="11.3411721"><ele>491.0</ele><time>2026-04-05T10:31:45.797Z</time></trkpt><trkpt lat="43.8616259" lon="11.3411452"><ele>491.0</ele><time>2026-04-05T10:31:46.797Z</time></trkpt><trkpt lat="43.8617111" lon="11.3411361"><ele>491.0</ele><time>2026-04-05T10:31:47.796Z</time></trkpt><trkpt lat="43.8617992" lon="11.3411242"><ele>491.0</ele><time>2026-04-05T10:31:48.794Z</time></trkpt><trkpt lat="43.861901" lon="11.3411257"><ele>491.0</ele><time>2026-04-05T10:31:49.796Z</time></trkpt><trkpt lat="43.8620225" lon="11.3411367"><ele>491.0</ele><time>2026-04-05T10:31:50.796Z</time></trkpt><trkpt lat="43.8621397" lon="11.3411552"><ele>491.8</ele><time>2026-04-05T10:31:51.796Z</time></trkpt><trkpt lat="43.8622417" lon="11.3411694"><ele>492.6</ele><time>2026-04-05T10:31:52.797Z</time></trkpt><trkpt lat="43.862349" lon="11.3411741"><ele>493.4</ele><time>2026-04-05T10:31:53.797Z</time></trkpt><trkpt lat="43.862464" lon="11.3411534"><ele>494.2</ele><time>2026-04-05T10:31:54.797Z</time></trkpt><trkpt lat="43.8625809" lon="11.3410979"><ele>495.0</ele><time>2026-04-05T10:31:55.796Z</time></trkpt><trkpt lat="43.8626926" lon="11.341017"><ele>496.75</ele><time>2026-04-05T10:31:56.796Z</time></trkpt><trkpt lat="43.8627921" lon="11.3409136"><ele>498.5</ele><time>2026-04-05T10:31:57.795Z</time></trkpt><trkpt lat="43.8628723" lon="11.3407867"><ele>500.25</ele><time>2026-04-05T10:31:58.795Z</time></trkpt><trkpt lat="43.8629351" lon="11.3406476"><ele>502.0</ele><time>2026-04-05T10:31:59.795Z</time></trkpt><trkpt lat="43.8629902" lon="11.340522"><ele>502.40000000000003</ele><time>2026-04-05T10:32:00.794Z</time></trkpt><trkpt lat="43.8630432" lon="11.3404031"><ele>502.80000000000007</ele><time>2026-04-05T10:32:01.796Z</time></trkpt><trkpt lat="43.8630905" lon="11.3402998"><ele>503.2</ele><time>2026-04-05T10:32:02.796Z</time></trkpt><trkpt lat="43.8631337" lon="11.3402209"><ele>503.6</ele><time>2026-04-05T10:32:03.796Z</time></trkpt><trkpt lat="43.8631959" lon="11.3401091"><ele>504.0</ele><time>2026-04-05T10:32:05.796Z</time></trkpt><trkpt lat="43.8632635" lon="11.3400323"><ele>504.0</ele><time>2026-04-05T10:32:08.796Z</time></trkpt><trkpt lat="43.8633453" lon="11.339988"><ele>504.0</ele><time>2026-04-05T10:32:10.796Z</time></trkpt><trkpt lat="43.8634705" lon="11.3400238"><ele>504.0</ele><time>2026-04-05T10:32:12.795Z</time></trkpt><trkpt lat="43.8635408" lon="11.3400479"><ele>504.0</ele><time>2026-04-05T10:32:13.796Z</time></trkpt><trkpt lat="43.8636156" lon="11.3400765"><ele>504.0</ele><time>2026-04-05T10:32:14.796Z</time></trkpt><trkpt lat="43.8636943" lon="11.3400981"><ele>504.0</ele><time>2026-04-05T10:32:15.796Z</time></trkpt><trkpt lat="43.8637572" lon="11.3401143"><ele>505.0</ele><time>2026-04-05T10:32:16.797Z</time></trkpt><trkpt lat="43.8638387" lon="11.3401637"><ele>506.0</ele><time>2026-04-05T10:32:18.797Z</time></trkpt><trkpt lat="43.8638979" lon="11.3402198"><ele>507.0</ele><time>2026-04-05T10:32:21.797Z</time></trkpt><trkpt lat="43.863896" lon="11.340111"><ele>508.0</ele><time>2026-04-05T10:39:03.796Z</time></trkpt><trkpt lat="43.8638286" lon="11.3400813"><ele>509.0</ele><time>2026-04-05T10:39:04.796Z</time></trkpt><trkpt lat="43.8637369" lon="11.3400527"><ele>510.0</ele><time>2026-04-05T10:39:05.795Z</time></trkpt><trkpt lat="43.8636484" lon="11.3400223"><ele>510.0</ele><time>2026-04-05T10:39:06.794Z</time></trkpt><trkpt lat="43.8635697" lon="11.3399973"><ele>510.0</ele><time>2026-04-05T10:39:07.794Z</time></trkpt><trkpt lat="43.863506" lon="11.3399692"><ele>510.0</ele><time>2026-04-05T10:39:08.794Z</time></trkpt><trkpt lat="43.8634061" lon="11.339921"><ele>510.0</ele><time>2026-04-05T10:39:10.795Z</time></trkpt><trkpt lat="43.8633032" lon="11.3399242"><ele>510.0</ele><time>2026-04-05T10:39:12.795Z</time></trkpt><trkpt lat="43.8632444" lon="11.3399653"><ele>510.0</ele><time>2026-04-05T10:39:13.795Z</time></trkpt><trkpt lat="43.8631822" lon="11.3400354"><ele>508.5</ele><time>2026-04-05T10:39:14.795Z</time></trkpt><trkpt lat="43.8631056" lon="11.3401848"><ele>507.0</ele><time>2026-04-05T10:39:15.794Z</time></trkpt><trkpt lat="43.8630398" lon="11.3403489"><ele>505.5</ele><time>2026-04-05T10:39:16.795Z</time></trkpt><trkpt lat="43.8629713" lon="11.3405034"><ele>504.0</ele><time>2026-04-05T10:39:17.795Z</time></trkpt><trkpt lat="43.8629052" lon="11.3406429"><ele>503.5</ele><time>2026-04-05T10:39:18.795Z</time></trkpt><trkpt lat="43.8628258" lon="11.3407813"><ele>503.0</ele><time>2026-04-05T10:39:19.795Z</time></trkpt><trkpt lat="43.8627278" lon="11.3409095"><ele>502.5</ele><time>2026-04-05T10:39:20.795Z</time></trkpt><trkpt lat="43.8626189" lon="11.3410109"><ele>502.0</ele><time>2026-04-05T10:39:21.795Z</time></trkpt><trkpt lat="43.8625036" lon="11.3410744"><ele>500.25</ele><time>2026-04-05T10:39:22.794Z</time></trkpt><trkpt lat="43.8623916" lon="11.3411043"><ele>498.5</ele><time>2026-04-05T10:39:23.796Z</time></trkpt><trkpt lat="43.8622738" lon="11.3411069"><ele>496.75</ele><time>2026-04-05T10:39:24.794Z</time></trkpt><trkpt lat="43.862139" lon="11.3410905"><ele>495.0</ele><time>2026-04-05T10:39:25.796Z</time></trkpt><trkpt lat="43.8619764" lon="11.3410742"><ele>495.0</ele><time>2026-04-05T10:39:26.795Z</time></trkpt><trkpt lat="43.8618115" lon="11.341084"><ele>495.0</ele><time>2026-04-05T10:39:27.794Z</time></trkpt><trkpt lat="43.8616494" lon="11.341105"><ele>495.0</ele><time>2026-04-05T10:39:28.795Z</time></trkpt><trkpt lat="43.8615001" lon="11.3411366"><ele>494.0</ele><time>2026-04-05T10:39:29.795Z</time></trkpt><trkpt lat="43.8613558" lon="11.3411561"><ele>493.0</ele><time>2026-04-05T10:39:30.795Z</time></trkpt><trkpt lat="43.8612186" lon="11.3411996"><ele>492.0</ele><time>2026-04-05T10:39:31.796Z</time></trkpt><trkpt lat="43.8610799" lon="11.3412783"><ele>491.0</ele><time>2026-04-05T10:39:32.794Z</time></trkpt><trkpt lat="43.8609359" lon="11.3414054"><ele>491.0</ele><time>2026-04-05T10:39:33.795Z</time></trkpt><trkpt lat="43.8607936" lon="11.3415246"><ele>491.0</ele><time>2026-04-05T10:39:34.794Z</time></trkpt><trkpt lat="43.8606474" lon="11.3416473"><ele>491.0</ele><time>2026-04-05T10:39:35.794Z</time></trkpt><trkpt lat="43.8604876" lon="11.3417437"><ele>491.0</ele><time>2026-04-05T10:39:36.794Z</time></trkpt><trkpt lat="43.8603363" lon="11.3418411"><ele>491.0</ele><time>2026-04-05T10:39:37.795Z</time></trkpt><trkpt lat="43.8602063" lon="11.3419305"><ele>491.0</ele><time>2026-04-05T10:39:38.794Z</time></trkpt><trkpt lat="43.8600925" lon="11.342023"><ele>491.0</ele><time>2026-04-05T10:39:39.796Z</time></trkpt><trkpt lat="43.859989" lon="11.3421047"><ele>490.4</ele><time>2026-04-05T10:39:40.795Z</time></trkpt><trkpt lat="43.8599004" lon="11.3421992"><ele>489.8</ele><time>2026-04-05T10:39:41.795Z</time></trkpt><trkpt lat="43.8598136" lon="11.3422934"><ele>489.19999999999993</ele><time>2026-04-05T10:39:42.795Z</time></trkpt><trkpt lat="43.8597401" lon="11.3423825"><ele>488.59999999999997</ele><time>2026-04-05T10:39:43.794Z</time></trkpt><trkpt lat="43.8596622" lon="11.3424852"><ele>488.0</ele><time>2026-04-05T10:39:44.794Z</time></trkpt><trkpt lat="43.8595666" lon="11.3425848"><ele>488.0</ele><time>2026-04-05T10:39:45.796Z</time></trkpt><trkpt lat="43.8594635" lon="11.3427025"><ele>488.0</ele><time>2026-04-05T10:39:46.795Z</time></trkpt><trkpt lat="43.859349" lon="11.3428291"><ele>488.0</ele><time>2026-04-05T10:39:47.796Z</time></trkpt><trkpt lat="43.8592364" lon="11.3429565"><ele>488.0</ele><time>2026-04-05T10:39:48.795Z</time></trkpt><trkpt lat="43.8591299" lon="11.3430787"><ele>487.5</ele><time>2026-04-05T10:39:49.795Z</time></trkpt><trkpt lat="43.8590318" lon="11.3431781"><ele>487.0</ele><time>2026-04-05T10:39:50.795Z</time></trkpt><trkpt lat="43.8589381" lon="11.3432587"><ele>486.5</ele><time>2026-04-05T10:39:51.794Z</time></trkpt><trkpt lat="43.8588408" lon="11.3433102"><ele>486.0</ele><time>2026-04-05T10:39:52.795Z</time></trkpt><trkpt lat="43.8587255" lon="11.3433187"><ele>486.0</ele><time>2026-04-05T10:39:53.794Z</time></trkpt><trkpt lat="43.8585993" lon="11.3432868"><ele>486.0</ele><time>2026-04-05T10:39:54.795Z</time></trkpt><trkpt lat="43.8584739" lon="11.343203"><ele>486.0</ele><time>2026-04-05T10:39:55.795Z</time></trkpt><trkpt lat="43.8583535" lon="11.3430774"><ele>486.0</ele><time>2026-04-05T10:39:56.794Z</time></trkpt><trkpt lat="43.8582365" lon="11.3429269"><ele>481.66666666666663</ele><time>2026-04-05T10:39:57.795Z</time></trkpt><trkpt lat="43.8581225" lon="11.3427794"><ele>477.3333333333333</ele><time>2026-04-05T10:39:58.795Z</time></trkpt><trkpt lat="43.8580023" lon="11.3426484"><ele>473.0</ele><time>2026-04-05T10:39:59.793Z</time></trkpt><trkpt lat="43.8578644" lon="11.3425474"><ele>473.0</ele><time>2026-04-05T10:40:00.794Z</time></trkpt><trkpt lat="43.8577242" lon="11.3424835"><ele>473.0</ele><time>2026-04-05T10:40:01.794Z</time></trkpt><trkpt lat="43.8575675" lon="11.3424602"><ele>473.0</ele><time>2026-04-05T10:40:02.796Z</time></trkpt><trkpt lat="43.8574056" lon="11.3424743"><ele>473.66666666666663</ele><time>2026-04-05T10:40:03.794Z</time></trkpt><trkpt lat="43.8572345" lon="11.3425332"><ele>474.33333333333337</ele><time>2026-04-05T10:40:04.794Z</time></trkpt><trkpt lat="43.8570584" lon="11.3425765"><ele>475.0</ele><time>2026-04-05T10:40:05.795Z</time></trkpt><trkpt lat="43.8568871" lon="11.3426261"><ele>474.33333333333337</ele><time>2026-04-05T10:40:06.794Z</time></trkpt><trkpt lat="43.8567297" lon="11.3426616"><ele>473.66666666666663</ele><time>2026-04-05T10:40:07.794Z</time></trkpt><trkpt lat="43.8565849" lon="11.3426771"><ele>473.0</ele><time>2026-04-05T10:40:08.794Z</time></trkpt><trkpt lat="43.8564376" lon="11.3426678"><ele>473.0</ele><time>2026-04-05T10:40:09.795Z</time></trkpt><trkpt lat="43.8562893" lon="11.3426293"><ele>473.0</ele><time>2026-04-05T10:40:10.796Z</time></trkpt><trkpt lat="43.856151" lon="11.342576"><ele>473.0</ele><time>2026-04-05T10:40:11.794Z</time></trkpt><trkpt lat="43.8560344" lon="11.342437"><ele>473.0</ele><time>2026-04-05T10:40:12.795Z</time></trkpt><trkpt lat="43.8559314" lon="11.3423012"><ele>472.0</ele><time>2026-04-05T10:40:13.794Z</time></trkpt><trkpt lat="43.8558415" lon="11.3421411"><ele>471.0</ele><time>2026-04-05T10:40:14.796Z</time></trkpt><trkpt lat="43.8557481" lon="11.3419855"><ele>470.0</ele><time>2026-04-05T10:40:15.793Z</time></trkpt><trkpt lat="43.8556643" lon="11.341838"><ele>469.0</ele><time>2026-04-05T10:40:16.794Z</time></trkpt><trkpt lat="43.8555821" lon="11.3417051"><ele>469.00000000000006</ele><time>2026-04-05T10:40:17.795Z</time></trkpt><trkpt lat="43.855496" lon="11.3416065"><ele>469.0</ele><time>2026-04-05T10:40:18.794Z</time></trkpt><trkpt lat="43.8554206" lon="11.3415378"><ele>469.0</ele><time>2026-04-05T10:40:19.795Z</time></trkpt><trkpt lat="43.8553633" lon="11.3414916"><ele>469.0</ele><time>2026-04-05T10:40:20.795Z</time></trkpt><trkpt lat="43.8553055" lon="11.3414424"><ele>469.00000000000006</ele><time>2026-04-05T10:40:22.795Z</time></trkpt><trkpt lat="43.8552496" lon="11.3413991"><ele>469.0</ele><time>2026-04-05T10:40:25.793Z</time></trkpt><trkpt lat="43.8551748" lon="11.3414219"><ele>469.0</ele><time>2026-04-05T10:40:27.795Z</time></trkpt><trkpt lat="43.85514" lon="11.3415267"><ele>469.0</ele><time>2026-04-05T10:40:29.795Z</time></trkpt><trkpt lat="43.8551421" lon="11.3417375"><ele>469.0</ele><time>2026-04-05T10:40:31.795Z</time></trkpt><trkpt lat="43.8551659" lon="11.3418972"><ele>469.0</ele><time>2026-04-05T10:40:32.795Z</time></trkpt><trkpt lat="43.8551954" lon="11.3420669"><ele>471.0</ele><time>2026-04-05T10:40:33.795Z</time></trkpt><trkpt lat="43.8552412" lon="11.342277"><ele>473.0</ele><time>2026-04-05T10:40:34.794Z</time></trkpt><trkpt lat="43.8552983" lon="11.3424897"><ele>475.0</ele><time>2026-04-05T10:40:35.795Z</time></trkpt><trkpt lat="43.8553592" lon="11.342687"><ele>475.0</ele><time>2026-04-05T10:40:36.793Z</time></trkpt><trkpt lat="43.8554204" lon="11.3428661"><ele>475.0</ele><time>2026-04-05T10:40:37.795Z</time></trkpt><trkpt lat="43.8554895" lon="11.3430105"><ele>475.0</ele><time>2026-04-05T10:40:38.794Z</time></trkpt><trkpt lat="43.855557" lon="11.3431558"><ele>475.0</ele><time>2026-04-05T10:40:39.794Z</time></trkpt><trkpt lat="43.8556155" lon="11.343298"><ele>477.5</ele><time>2026-04-05T10:40:40.793Z</time></trkpt><trkpt lat="43.8556711" lon="11.3434469"><ele>480.0</ele><time>2026-04-05T10:40:41.794Z</time></trkpt><trkpt lat="43.8557202" lon="11.343602"><ele>482.5</ele><time>2026-04-05T10:40:42.794Z</time></trkpt><trkpt lat="43.8557623" lon="11.3437521"><ele>485.0</ele><time>2026-04-05T10:40:43.794Z</time></trkpt><trkpt lat="43.8558043" lon="11.3439031"><ele>486.0</ele><time>2026-04-05T10:40:44.795Z</time></trkpt><trkpt lat="43.8558509" lon="11.3440556"><ele>487.0</ele><time>2026-04-05T10:40:45.795Z</time></trkpt><trkpt lat="43.8558952" lon="11.3441963"><ele>488.0</ele><time>2026-04-05T10:40:46.796Z</time></trkpt><trkpt lat="43.8559368" lon="11.3443357"><ele>489.0</ele><time>2026-04-05T10:40:47.796Z</time></trkpt><trkpt lat="43.855995" lon="11.3444742"><ele>489.0</ele><time>2026-04-05T10:40:48.794Z</time></trkpt><trkpt lat="43.8560552" lon="11.3446037"><ele>489.0</ele><time>2026-04-05T10:40:49.794Z</time></trkpt><trkpt lat="43.8561137" lon="11.3447422"><ele>489.0</ele><time>2026-04-05T10:40:50.795Z</time></trkpt><trkpt lat="43.8561701" lon="11.3448825"><ele>489.0</ele><time>2026-04-05T10:40:51.796Z</time></trkpt><trkpt lat="43.8562322" lon="11.3450067"><ele>491.75</ele><time>2026-04-05T10:40:52.794Z</time></trkpt><trkpt lat="43.8562987" lon="11.3451306"><ele>494.5</ele><time>2026-04-05T10:40:53.795Z</time></trkpt><trkpt lat="43.8563682" lon="11.3452566"><ele>497.25</ele><time>2026-04-05T10:40:54.793Z</time></trkpt><trkpt lat="43.8564418" lon="11.3453958"><ele>500.0</ele><time>2026-04-05T10:40:55.794Z</time></trkpt><trkpt lat="43.8565313" lon="11.3455336"><ele>501.25</ele><time>2026-04-05T10:40:56.795Z</time></trkpt><trkpt lat="43.8566423" lon="11.3456598"><ele>502.5</ele><time>2026-04-05T10:40:57.794Z</time></trkpt><trkpt lat="43.8567521" lon="11.3457616"><ele>503.75</ele><time>2026-04-05T10:40:58.794Z</time></trkpt><trkpt lat="43.8568612" lon="11.3458526"><ele>505.0</ele><time>2026-04-05T10:40:59.795Z</time></trkpt><trkpt lat="43.8569677" lon="11.3459543"><ele>505.0</ele><time>2026-04-05T10:41:00.796Z</time></trkpt><trkpt lat="43.8570656" lon="11.3460755"><ele>505.0</ele><time>2026-04-05T10:41:01.795Z</time></trkpt><trkpt lat="43.8571456" lon="11.346201"><ele>505.0</ele><time>2026-04-05T10:41:02.794Z</time></trkpt><trkpt lat="43.8572043" lon="11.3463355"><ele>505.0</ele><time>2026-04-05T10:41:03.794Z</time></trkpt><trkpt lat="43.8572301" lon="11.346484"><ele>507.4</ele><time>2026-04-05T10:41:04.794Z</time></trkpt><trkpt lat="43.8572339" lon="11.3466135"><ele>509.8</ele><time>2026-04-05T10:41:05.794Z</time></trkpt><trkpt lat="43.8572171" lon="11.3467422"><ele>512.2</ele><time>2026-04-05T10:41:06.794Z</time></trkpt><trkpt lat="43.8571743" lon="11.3468599"><ele>514.6</ele><time>2026-04-05T10:41:07.795Z</time></trkpt><trkpt lat="43.8571045" lon="11.346966"><ele>517.0</ele><time>2026-04-05T10:41:08.795Z</time></trkpt><trkpt lat="43.8570181" lon="11.3470464"><ele>517.0</ele><time>2026-04-05T10:41:09.794Z</time></trkpt><trkpt lat="43.8569092" lon="11.3471091"><ele>517.0</ele><time>2026-04-05T10:41:10.795Z</time></trkpt><trkpt lat="43.856796" lon="11.347176"><ele>517.0</ele><time>2026-04-05T10:41:11.794Z</time></trkpt><trkpt lat="43.8566634" lon="11.3472324"><ele>517.0</ele><time>2026-04-05T10:41:12.796Z</time></trkpt><trkpt lat="43.8565176" lon="11.3472898"><ele>516.3333333333334</ele><time>2026-04-05T10:41:13.795Z</time></trkpt><trkpt lat="43.8563661" lon="11.3473504"><ele>515.6666666666666</ele><time>2026-04-05T10:41:14.794Z</time></trkpt><trkpt lat="43.8562115" lon="11.3473895"><ele>515.0</ele><time>2026-04-05T10:41:15.794Z</time></trkpt><trkpt lat="43.8560563" lon="11.3474249"><ele>518.0</ele><time>2026-04-05T10:41:16.794Z</time></trkpt><trkpt lat="43.8559012" lon="11.347468"><ele>521.0</ele><time>2026-04-05T10:41:17.794Z</time></trkpt><trkpt lat="43.8557492" lon="11.3474974"><ele>524.0</ele><time>2026-04-05T10:41:18.795Z</time></trkpt><trkpt lat="43.8556134" lon="11.3475322"><ele>524.0</ele><time>2026-04-05T10:41:19.795Z</time></trkpt><trkpt lat="43.8554906" lon="11.3475671"><ele>524.0</ele><time>2026-04-05T10:41:20.795Z</time></trkpt><trkpt lat="43.8553722" lon="11.3476125"><ele>524.0</ele><time>2026-04-05T10:41:21.795Z</time></trkpt><trkpt lat="43.8552523" lon="11.3476486"><ele>524.0</ele><time>2026-04-05T10:41:22.795Z</time></trkpt><trkpt lat="43.8551262" lon="11.3476673"><ele>525.0</ele><time>2026-04-05T10:41:23.795Z</time></trkpt><trkpt lat="43.8549959" lon="11.3476696"><ele>526.0</ele><time>2026-04-05T10:41:24.794Z</time></trkpt><trkpt lat="43.854854" lon="11.3476582"><ele>527.0</ele><time>2026-04-05T10:41:25.795Z</time></trkpt><trkpt lat="43.8547149" lon="11.3476521"><ele>528.0</ele><time>2026-04-05T10:41:26.794Z</time></trkpt><trkpt lat="43.8545855" lon="11.3476423"><ele>528.0</ele><time>2026-04-05T10:41:27.794Z</time></trkpt><trkpt lat="43.8544625" lon="11.3476373"><ele>528.0</ele><time>2026-04-05T10:41:28.795Z</time></trkpt><trkpt lat="43.854349" lon="11.3476072"><ele>528.0</ele><time>2026-04-05T10:41:29.796Z</time></trkpt><trkpt lat="43.8542468" lon="11.3475516"><ele>528.0</ele><time>2026-04-05T10:41:30.795Z</time></trkpt><trkpt lat="43.8541463" lon="11.3474773"><ele>525.75</ele><time>2026-04-05T10:41:31.794Z</time></trkpt><trkpt lat="43.8540551" lon="11.3473849"><ele>523.5</ele><time>2026-04-05T10:41:32.795Z</time></trkpt><trkpt lat="43.85396" lon="11.3472698"><ele>521.25</ele><time>2026-04-05T10:41:33.794Z</time></trkpt><trkpt lat="43.8538435" lon="11.3471739"><ele>519.0</ele><time>2026-04-05T10:41:34.793Z</time></trkpt><trkpt lat="43.8537157" lon="11.3471077"><ele>523.5</ele><time>2026-04-05T10:41:35.794Z</time></trkpt><trkpt lat="43.8535901" lon="11.3470592"><ele>528.0</ele><time>2026-04-05T10:41:36.794Z</time></trkpt><trkpt lat="43.8534732" lon="11.3470914"><ele>532.5</ele><time>2026-04-05T10:41:37.794Z</time></trkpt><trkpt lat="43.8533575" lon="11.347119"><ele>537.0</ele><time>2026-04-05T10:41:38.794Z</time></trkpt><trkpt lat="43.8532391" lon="11.3471603"><ele>537.0</ele><time>2026-04-05T10:41:39.795Z</time></trkpt><trkpt lat="43.8531199" lon="11.3471931"><ele>537.0</ele><time>2026-04-05T10:41:40.794Z</time></trkpt><trkpt lat="43.8529795" lon="11.3471606"><ele>537.0</ele><time>2026-04-05T10:41:41.796Z</time></trkpt><trkpt lat="43.8528438" lon="11.3471573"><ele>537.0</ele><time>2026-04-05T10:41:42.795Z</time></trkpt><trkpt lat="43.8527057" lon="11.3471456"><ele>536.0</ele><time>2026-04-05T10:41:43.794Z</time></trkpt><trkpt lat="43.8525533" lon="11.3471345"><ele>535.0</ele><time>2026-04-05T10:41:44.794Z</time></trkpt><trkpt lat="43.8523956" lon="11.3471163"><ele>534.0</ele><time>2026-04-05T10:41:45.793Z</time></trkpt><trkpt lat="43.8522417" lon="11.347131"><ele>534.0</ele><time>2026-04-05T10:41:46.795Z</time></trkpt><trkpt lat="43.8521" lon="11.347145"><ele>534.0</ele><time>2026-04-05T10:41:47.795Z</time></trkpt><trkpt lat="43.8519683" lon="11.3471597"><ele>534.0</ele><time>2026-04-05T10:41:48.793Z</time></trkpt><trkpt lat="43.8518511" lon="11.3471876"><ele>534.0</ele><time>2026-04-05T10:41:49.796Z</time></trkpt><trkpt lat="43.8517386" lon="11.3472506"><ele>526.5</ele><time>2026-04-05T10:41:50.794Z</time></trkpt><trkpt lat="43.8516339" lon="11.3473296"><ele>519.0</ele><time>2026-04-05T10:41:51.795Z</time></trkpt><trkpt lat="43.8515139" lon="11.3474327"><ele>511.5</ele><time>2026-04-05T10:41:52.794Z</time></trkpt><trkpt lat="43.8513859" lon="11.3475527"><ele>504.0</ele><time>2026-04-05T10:41:53.794Z</time></trkpt><trkpt lat="43.8512264" lon="11.3476998"><ele>504.0</ele><time>2026-04-05T10:41:54.795Z</time></trkpt><trkpt lat="43.851077" lon="11.3478431"><ele>504.0</ele><time>2026-04-05T10:41:55.795Z</time></trkpt><trkpt lat="43.850937" lon="11.3479753"><ele>504.0</ele><time>2026-04-05T10:41:56.794Z</time></trkpt><trkpt lat="43.8508023" lon="11.3481005"><ele>502.25</ele><time>2026-04-05T10:41:57.796Z</time></trkpt><trkpt lat="43.8506809" lon="11.3482137"><ele>500.5</ele><time>2026-04-05T10:41:58.794Z</time></trkpt><trkpt lat="43.8505675" lon="11.3483122"><ele>498.75</ele><time>2026-04-05T10:41:59.796Z</time></trkpt><trkpt lat="43.8504686" lon="11.3484031"><ele>497.0</ele><time>2026-04-05T10:42:00.794Z</time></trkpt><trkpt lat="43.8503876" lon="11.3484972"><ele>496.99999999999994</ele><time>2026-04-05T10:42:01.795Z</time></trkpt><trkpt lat="43.8503234" lon="11.3485877"><ele>497.0</ele><time>2026-04-05T10:42:02.795Z</time></trkpt><trkpt lat="43.8502713" lon="11.3486813"><ele>497.0</ele><time>2026-04-05T10:42:03.796Z</time></trkpt><trkpt lat="43.8502399" lon="11.3487811"><ele>497.0</ele><time>2026-04-05T10:42:04.794Z</time></trkpt><trkpt lat="43.8502358" lon="11.3488842"><ele>496.99999999999994</ele><time>2026-04-05T10:42:05.794Z</time></trkpt><trkpt lat="43.8502507" lon="11.3489965"><ele>497.0</ele><time>2026-04-05T10:42:06.794Z</time></trkpt><trkpt lat="43.8502759" lon="11.3491109"><ele>495.6</ele><time>2026-04-05T10:42:07.794Z</time></trkpt><trkpt lat="43.8503359" lon="11.349255"><ele>494.20000000000005</ele><time>2026-04-05T10:42:08.794Z</time></trkpt><trkpt lat="43.8504116" lon="11.349378"><ele>492.8</ele><time>2026-04-05T10:42:09.794Z</time></trkpt><trkpt lat="43.8504906" lon="11.3494671"><ele>491.4</ele><time>2026-04-05T10:42:10.795Z</time></trkpt><trkpt lat="43.8505821" lon="11.349545"><ele>490.0</ele><time>2026-04-05T10:42:11.795Z</time></trkpt><trkpt lat="43.8507064" lon="11.3496025"><ele>490.0</ele><time>2026-04-05T10:42:12.794Z</time></trkpt><trkpt lat="43.8508388" lon="11.3496578"><ele>490.0</ele><time>2026-04-05T10:42:13.794Z</time></trkpt><trkpt lat="43.8509666" lon="11.3497173"><ele>490.0</ele><time>2026-04-05T10:42:14.794Z</time></trkpt><trkpt lat="43.85108" lon="11.349771"><ele>490.0</ele><time>2026-04-05T10:42:15.796Z</time></trkpt><trkpt lat="43.8511948" lon="11.3498247"><ele>488.25</ele><time>2026-04-05T10:42:16.796Z</time></trkpt><trkpt lat="43.851305" lon="11.3498769"><ele>486.5</ele><time>2026-04-05T10:42:17.795Z</time></trkpt><trkpt lat="43.8514158" lon="11.3499378"><ele>484.75</ele><time>2026-04-05T10:42:18.795Z</time></trkpt><trkpt lat="43.8514999" lon="11.3500242"><ele>483.0</ele><time>2026-04-05T10:42:19.796Z</time></trkpt><trkpt lat="43.8515791" lon="11.350129"><ele>483.0</ele><time>2026-04-05T10:42:20.794Z</time></trkpt><trkpt lat="43.8516464" lon="11.3502312"><ele>482.99999999999994</ele><time>2026-04-05T10:42:21.794Z</time></trkpt><trkpt lat="43.8516933" lon="11.3503452"><ele>482.99999999999994</ele><time>2026-04-05T10:42:22.793Z</time></trkpt><trkpt lat="43.8517434" lon="11.350457"><ele>483.0</ele><time>2026-04-05T10:42:23.796Z</time></trkpt><trkpt lat="43.8517774" lon="11.3506159"><ele>483.0</ele><time>2026-04-05T10:42:24.794Z</time></trkpt><trkpt lat="43.8517997" lon="11.3507614"><ele>483.1666666666667</ele><time>2026-04-05T10:42:25.794Z</time></trkpt><trkpt lat="43.8518167" lon="11.3509078"><ele>483.33333333333337</ele><time>2026-04-05T10:42:26.794Z</time></trkpt><trkpt lat="43.8518298" lon="11.3510429"><ele>483.5</ele><time>2026-04-05T10:42:27.794Z</time></trkpt><trkpt lat="43.8518359" lon="11.3511547"><ele>483.6666666666667</ele><time>2026-04-05T10:42:28.795Z</time></trkpt><trkpt lat="43.8518266" lon="11.3512632"><ele>483.83333333333337</ele><time>2026-04-05T10:42:29.794Z</time></trkpt><trkpt lat="43.8518083" lon="11.3513667"><ele>484.0</ele><time>2026-04-05T10:42:30.795Z</time></trkpt><trkpt lat="43.851761" lon="11.3514727"><ele>484.0</ele><time>2026-04-05T10:42:31.794Z</time></trkpt><trkpt lat="43.8516976" lon="11.3515705"><ele>484.0</ele><time>2026-04-05T10:42:32.794Z</time></trkpt><trkpt lat="43.8516269" lon="11.3516449"><ele>484.0</ele><time>2026-04-05T10:42:33.794Z</time></trkpt><trkpt lat="43.8515441" lon="11.3516937"><ele>484.0</ele><time>2026-04-05T10:42:34.794Z</time></trkpt><trkpt lat="43.8514178" lon="11.3517127"><ele>484.0</ele><time>2026-04-05T10:42:35.794Z</time></trkpt><trkpt lat="43.8512948" lon="11.3516953"><ele>484.0</ele><time>2026-04-05T10:42:36.794Z</time></trkpt><trkpt lat="43.8511792" lon="11.3516826"><ele>484.0</ele><time>2026-04-05T10:42:37.794Z</time></trkpt><trkpt lat="43.8510698" lon="11.3516697"><ele>484.0</ele><time>2026-04-05T10:42:38.794Z</time></trkpt><trkpt lat="43.850958" lon="11.3516713"><ele>484.0</ele><time>2026-04-05T10:42:39.794Z</time></trkpt><trkpt lat="43.850843" lon="11.3516805"><ele>483.5</ele><time>2026-04-05T10:42:40.794Z</time></trkpt><trkpt lat="43.8507221" lon="11.3517271"><ele>483.0</ele><time>2026-04-05T10:42:41.795Z</time></trkpt><trkpt lat="43.8506023" lon="11.3518016"><ele>482.5</ele><time>2026-04-05T10:42:42.795Z</time></trkpt><trkpt lat="43.8504941" lon="11.3518716"><ele>482.0</ele><time>2026-04-05T10:42:43.794Z</time></trkpt><trkpt lat="43.8503788" lon="11.3519303"><ele>482.0</ele><time>2026-04-05T10:42:44.794Z</time></trkpt><trkpt lat="43.8502775" lon="11.3519793"><ele>482.00000000000006</ele><time>2026-04-05T10:42:45.795Z</time></trkpt><trkpt lat="43.8501892" lon="11.3519994"><ele>482.00000000000006</ele><time>2026-04-05T10:42:46.796Z</time></trkpt><trkpt lat="43.8500876" lon="11.3520373"><ele>482.0</ele><time>2026-04-05T10:42:47.794Z</time></trkpt><trkpt lat="43.8499907" lon="11.3520681"><ele>482.0</ele><time>2026-04-05T10:42:48.794Z</time></trkpt><trkpt lat="43.8498925" lon="11.3520839"><ele>481.8</ele><time>2026-04-05T10:42:49.795Z</time></trkpt><trkpt lat="43.8497876" lon="11.3520959"><ele>481.6</ele><time>2026-04-05T10:42:50.794Z</time></trkpt><trkpt lat="43.8496654" lon="11.3521097"><ele>481.40000000000003</ele><time>2026-04-05T10:42:51.796Z</time></trkpt><trkpt lat="43.8495444" lon="11.3521297"><ele>481.20000000000005</ele><time>2026-04-05T10:42:52.794Z</time></trkpt><trkpt lat="43.8494467" lon="11.3521212"><ele>481.0</ele><time>2026-04-05T10:42:53.794Z</time></trkpt><trkpt lat="43.8493286" lon="11.3521415"><ele>480.5</ele><time>2026-04-05T10:42:54.794Z</time></trkpt><trkpt lat="43.8492247" lon="11.3521367"><ele>480.0</ele><time>2026-04-05T10:42:55.794Z</time></trkpt><trkpt lat="43.8491046" lon="11.3521279"><ele>479.5</ele><time>2026-04-05T10:42:56.795Z</time></trkpt><trkpt lat="43.848982" lon="11.3521265"><ele>479.0</ele><time>2026-04-05T10:42:57.795Z</time></trkpt><trkpt lat="43.8488301" lon="11.3521549"><ele>479.0</ele><time>2026-04-05T10:42:58.794Z</time></trkpt><trkpt lat="43.8486642" lon="11.3521854"><ele>479.0</ele><time>2026-04-05T10:42:59.795Z</time></trkpt><trkpt lat="43.8484992" lon="11.3522167"><ele>479.0</ele><time>2026-04-05T10:43:00.794Z</time></trkpt><trkpt lat="43.8483323" lon="11.3522491"><ele>473.0</ele><time>2026-04-05T10:43:01.794Z</time></trkpt><trkpt lat="43.8481523" lon="11.3522817"><ele>467.0</ele><time>2026-04-05T10:43:02.794Z</time></trkpt><trkpt lat="43.8479707" lon="11.3523097"><ele>461.0</ele><time>2026-04-05T10:43:03.795Z</time></trkpt><trkpt lat="43.8477978" lon="11.3523348"><ele>461.0</ele><time>2026-04-05T10:43:04.795Z</time></trkpt><trkpt lat="43.847634" lon="11.3523513"><ele>461.0</ele><time>2026-04-05T10:43:05.795Z</time></trkpt><trkpt lat="43.8474748" lon="11.3523664"><ele>461.0</ele><time>2026-04-05T10:43:06.794Z</time></trkpt><trkpt lat="43.8473252" lon="11.3523815"><ele>461.0</ele><time>2026-04-05T10:43:07.794Z</time></trkpt><trkpt lat="43.8471745" lon="11.3523995"><ele>461.0</ele><time>2026-04-05T10:43:08.795Z</time></trkpt><trkpt lat="43.8470243" lon="11.3524257"><ele>461.0</ele><time>2026-04-05T10:43:09.795Z</time></trkpt><trkpt lat="43.8468612" lon="11.3524466"><ele>459.3333333333333</ele><time>2026-04-05T10:43:10.795Z</time></trkpt><trkpt lat="43.8466961" lon="11.3524686"><ele>457.66666666666663</ele><time>2026-04-05T10:43:11.794Z</time></trkpt><trkpt lat="43.8465343" lon="11.3524914"><ele>456.0</ele><time>2026-04-05T10:43:12.795Z</time></trkpt><trkpt lat="43.8463864" lon="11.3525344"><ele>456.0</ele><time>2026-04-05T10:43:13.795Z</time></trkpt><trkpt lat="43.8462461" lon="11.3525816"><ele>456.0</ele><time>2026-04-05T10:43:14.794Z</time></trkpt><trkpt lat="43.8461103" lon="11.3526314"><ele>456.0</ele><time>2026-04-05T10:43:15.795Z</time></trkpt><trkpt lat="43.8459831" lon="11.3526902"><ele>456.0</ele><time>2026-04-05T10:43:16.794Z</time></trkpt><trkpt lat="43.8458591" lon="11.3527565"><ele>454.75</ele><time>2026-04-05T10:43:17.794Z</time></trkpt><trkpt lat="43.8457506" lon="11.3528386"><ele>453.5</ele><time>2026-04-05T10:43:18.796Z</time></trkpt><trkpt lat="43.8456397" lon="11.3529348"><ele>452.25</ele><time>2026-04-05T10:43:19.794Z</time></trkpt><trkpt lat="43.8455302" lon="11.3530414"><ele>451.0</ele><time>2026-04-05T10:43:20.794Z</time></trkpt><trkpt lat="43.845424" lon="11.3531439"><ele>449.25</ele><time>2026-04-05T10:43:21.794Z</time></trkpt><trkpt lat="43.8453248" lon="11.3532344"><ele>447.5</ele><time>2026-04-05T10:43:22.795Z</time></trkpt><trkpt lat="43.845228" lon="11.3533128"><ele>445.75</ele><time>2026-04-05T10:43:23.795Z</time></trkpt><trkpt lat="43.8451202" lon="11.3533792"><ele>444.0</ele><time>2026-04-05T10:43:24.795Z</time></trkpt><trkpt lat="43.8449635" lon="11.353413"><ele>444.0</ele><time>2026-04-05T10:43:25.794Z</time></trkpt><trkpt lat="43.8448051" lon="11.353429"><ele>444.0</ele><time>2026-04-05T10:43:26.795Z</time></trkpt><trkpt lat="43.8446531" lon="11.3534479"><ele>444.0</ele><time>2026-04-05T10:43:27.793Z</time></trkpt><trkpt lat="43.8445109" lon="11.3534665"><ele>444.0</ele><time>2026-04-05T10:43:28.795Z</time></trkpt><trkpt lat="43.8443647" lon="11.3534892"><ele>444.0</ele><time>2026-04-05T10:43:29.795Z</time></trkpt><trkpt lat="43.8442152" lon="11.3535184"><ele>444.0</ele><time>2026-04-05T10:43:30.794Z</time></trkpt><trkpt lat="43.8440604" lon="11.3535665"><ele>443.33333333333337</ele><time>2026-04-05T10:43:31.794Z</time></trkpt><trkpt lat="43.8439007" lon="11.3536252"><ele>442.6666666666667</ele><time>2026-04-05T10:43:32.795Z</time></trkpt><trkpt lat="43.8437443" lon="11.3536838"><ele>442.0</ele><time>2026-04-05T10:43:33.794Z</time></trkpt><trkpt lat="43.8435902" lon="11.3537413"><ele>443.33333333333337</ele><time>2026-04-05T10:43:34.794Z</time></trkpt><trkpt lat="43.8434322" lon="11.3538037"><ele>444.66666666666663</ele><time>2026-04-05T10:43:35.795Z</time></trkpt><trkpt lat="43.8432806" lon="11.353867"><ele>446.0</ele><time>2026-04-05T10:43:36.795Z</time></trkpt><trkpt lat="43.8431436" lon="11.3539354"><ele>443.0</ele><time>2026-04-05T10:43:37.794Z</time></trkpt><trkpt lat="43.8430185" lon="11.3540286"><ele>440.0</ele><time>2026-04-05T10:43:38.794Z</time></trkpt><trkpt lat="43.8429121" lon="11.3541438"><ele>437.0</ele><time>2026-04-05T10:43:39.795Z</time></trkpt><trkpt lat="43.8428144" lon="11.3542863"><ele>434.0</ele><time>2026-04-05T10:43:40.794Z</time></trkpt><trkpt lat="43.8427307" lon="11.354478"><ele>434.0</ele><time>2026-04-05T10:43:41.796Z</time></trkpt><trkpt lat="43.8426594" lon="11.354664"><ele>434.0</ele><time>2026-04-05T10:43:42.794Z</time></trkpt><trkpt lat="43.8425965" lon="11.3548434"><ele>434.0</ele><time>2026-04-05T10:43:43.795Z</time></trkpt><trkpt lat="43.8425406" lon="11.3550109"><ele>434.0</ele><time>2026-04-05T10:43:44.794Z</time></trkpt><trkpt lat="43.8424819" lon="11.3551657"><ele>435.0</ele><time>2026-04-05T10:43:45.795Z</time></trkpt><trkpt lat="43.8424096" lon="11.3552935"><ele>436.0</ele><time>2026-04-05T10:43:46.794Z</time></trkpt><trkpt lat="43.8423168" lon="11.355414"><ele>437.0</ele><time>2026-04-05T10:43:47.794Z</time></trkpt><trkpt lat="43.8422129" lon="11.3555206"><ele>438.0</ele><time>2026-04-05T10:43:48.794Z</time></trkpt><trkpt lat="43.8420983" lon="11.3556261"><ele>438.25</ele><time>2026-04-05T10:43:49.794Z</time></trkpt><trkpt lat="43.8419627" lon="11.3557019"><ele>438.5</ele><time>2026-04-05T10:43:50.794Z</time></trkpt><trkpt lat="43.8418385" lon="11.3557726"><ele>438.75</ele><time>2026-04-05T10:43:51.794Z</time></trkpt><trkpt lat="43.8417206" lon="11.355844"><ele>439.0</ele><time>2026-04-05T10:43:52.793Z</time></trkpt><trkpt lat="43.8416103" lon="11.3559081"><ele>439.0</ele><time>2026-04-05T10:43:53.794Z</time></trkpt><trkpt lat="43.841513" lon="11.3559729"><ele>439.0</ele><time>2026-04-05T10:43:54.795Z</time></trkpt><trkpt lat="43.8414255" lon="11.3560232"><ele>439.0</ele><time>2026-04-05T10:43:55.795Z</time></trkpt><trkpt lat="43.8413272" lon="11.3560713"><ele>439.0</ele><time>2026-04-05T10:43:57.794Z</time></trkpt><trkpt lat="43.8412717" lon="11.3561612"><ele>439.0</ele><time>2026-04-05T10:44:00.795Z</time></trkpt><trkpt lat="43.8412769" lon="11.3562895"><ele>437.6</ele><time>2026-04-05T10:44:02.794Z</time></trkpt><trkpt lat="43.8412962" lon="11.3563864"><ele>436.2</ele><time>2026-04-05T10:44:03.794Z</time></trkpt><trkpt lat="43.8413138" lon="11.3564775"><ele>434.80000000000007</ele><time>2026-04-05T10:44:04.793Z</time></trkpt><trkpt lat="43.8413215" lon="11.3566192"><ele>433.40000000000003</ele><time>2026-04-05T10:44:06.795Z</time></trkpt><trkpt lat="43.8412627" lon="11.3567304"><ele>432.0</ele><time>2026-04-05T10:44:08.795Z</time></trkpt><trkpt lat="43.8411264" lon="11.3567679"><ele>432.0</ele><time>2026-04-05T10:44:10.794Z</time></trkpt><trkpt lat="43.8410336" lon="11.3567811"><ele>432.00000000000006</ele><time>2026-04-05T10:44:11.795Z</time></trkpt><trkpt lat="43.840933" lon="11.3568028"><ele>432.00000000000006</ele><time>2026-04-05T10:44:12.795Z</time></trkpt><trkpt lat="43.8408426" lon="11.3568223"><ele>432.0</ele><time>2026-04-05T10:44:13.794Z</time></trkpt><trkpt lat="43.840758" lon="11.356838"><ele>432.0</ele><time>2026-04-05T10:44:14.794Z</time></trkpt><trkpt lat="43.8406798" lon="11.3568493"><ele>431.3333333333333</ele><time>2026-04-05T10:44:15.794Z</time></trkpt><trkpt lat="43.8406031" lon="11.3568638"><ele>430.66666666666663</ele><time>2026-04-05T10:44:16.795Z</time></trkpt><trkpt lat="43.8405318" lon="11.3568756"><ele>430.0</ele><time>2026-04-05T10:44:17.794Z</time></trkpt><trkpt lat="43.8404657" lon="11.3568883"><ele>429.3333333333333</ele><time>2026-04-05T10:44:18.794Z</time></trkpt><trkpt lat="43.8403927" lon="11.356897"><ele>428.66666666666663</ele><time>2026-04-05T10:44:19.794Z</time></trkpt><trkpt lat="43.8403124" lon="11.3569134"><ele>428.0</ele><time>2026-04-05T10:44:20.794Z</time></trkpt><trkpt lat="43.8402185" lon="11.3569366"><ele>427.49999999999994</ele><time>2026-04-05T10:44:21.794Z</time></trkpt><trkpt lat="43.8401241" lon="11.3569645"><ele>427.0</ele><time>2026-04-05T10:44:22.794Z</time></trkpt><trkpt lat="43.8400336" lon="11.3569811"><ele>426.5</ele><time>2026-04-05T10:44:23.794Z</time></trkpt><trkpt lat="43.8399529" lon="11.3569957"><ele>426.0</ele><time>2026-04-05T10:44:24.794Z</time></trkpt><trkpt lat="43.8398798" lon="11.3570102"><ele>425.49999999999994</ele><time>2026-04-05T10:44:25.794Z</time></trkpt><trkpt lat="43.8398035" lon="11.3570129"><ele>425.0</ele><time>2026-04-05T10:44:26.794Z</time></trkpt><trkpt lat="43.8397206" lon="11.3570259"><ele>425.0</ele><time>2026-04-05T10:44:27.795Z</time></trkpt><trkpt lat="43.8396286" lon="11.3570391"><ele>425.0</ele><time>2026-04-05T10:44:28.794Z</time></trkpt><trkpt lat="43.8395339" lon="11.3570574"><ele>425.0</ele><time>2026-04-05T10:44:29.795Z</time></trkpt><trkpt lat="43.83944" lon="11.3570758"><ele>425.0</ele><time>2026-04-05T10:44:30.794Z</time></trkpt><trkpt lat="43.8393449" lon="11.3570827"><ele>425.0</ele><time>2026-04-05T10:44:31.794Z</time></trkpt><trkpt lat="43.839263" lon="11.3570714"><ele>424.3333333333333</ele><time>2026-04-05T10:44:32.793Z</time></trkpt><trkpt lat="43.8391782" lon="11.3570609"><ele>423.66666666666663</ele><time>2026-04-05T10:44:33.794Z</time></trkpt><trkpt lat="43.839091" lon="11.357053"><ele>423.0</ele><time>2026-04-05T10:44:34.795Z</time></trkpt><trkpt lat="43.8390131" lon="11.3570435"><ele>422.33333333333337</ele><time>2026-04-05T10:44:35.794Z</time></trkpt><trkpt lat="43.8389402" lon="11.3570296"><ele>421.6666666666667</ele><time>2026-04-05T10:44:36.795Z</time></trkpt><trkpt lat="43.8388695" lon="11.3570158"><ele>421.0</ele><time>2026-04-05T10:44:37.793Z</time></trkpt><trkpt lat="43.8387997" lon="11.3569932"><ele>421.00000000000006</ele><time>2026-04-05T10:44:38.794Z</time></trkpt><trkpt lat="43.8387278" lon="11.3569593"><ele>421.0</ele><time>2026-04-05T10:44:39.794Z</time></trkpt><trkpt lat="43.838657" lon="11.3569209"><ele>421.0</ele><time>2026-04-05T10:44:40.794Z</time></trkpt><trkpt lat="43.8385895" lon="11.3568741"><ele>421.0</ele><time>2026-04-05T10:44:41.794Z</time></trkpt><trkpt lat="43.8385266" lon="11.3568341"><ele>421.0</ele><time>2026-04-05T10:44:42.793Z</time></trkpt><trkpt lat="43.8384676" lon="11.3567947"><ele>421.00000000000006</ele><time>2026-04-05T10:44:43.795Z</time></trkpt><trkpt lat="43.8384073" lon="11.3567618"><ele>421.0</ele><time>2026-04-05T10:44:44.795Z</time></trkpt><trkpt lat="43.8382942" lon="11.3567158"><ele>418.6</ele><time>2026-04-05T10:44:46.795Z</time></trkpt><trkpt lat="43.8381642" lon="11.3566674"><ele>416.20000000000005</ele><time>2026-04-05T10:44:48.795Z</time></trkpt><trkpt lat="43.8380973" lon="11.3566431"><ele>413.79999999999995</ele><time>2026-04-05T10:44:49.794Z</time></trkpt><trkpt lat="43.8379945" lon="11.3565831"><ele>411.4</ele><time>2026-04-05T10:44:51.793Z</time></trkpt><trkpt lat="43.8379149" lon="11.3565326"><ele>409.0</ele><time>2026-04-05T10:44:53.794Z</time></trkpt><trkpt lat="43.8378454" lon="11.3564958"><ele>409.0</ele><time>2026-04-05T10:44:55.794Z</time></trkpt><trkpt lat="43.8377798" lon="11.3564856"><ele>409.0</ele><time>2026-04-05T10:45:20.795Z</time></trkpt></trkseg></trk></gpx>